<?xml version="1.0" encoding="UTF-8" standalone="no" ?>
<gpx xmlns="http://www.topografix.com/GPX/1/1" xmlns:xsi="http://www.w3.org/2001/XMLSchema-instance" xsi:schemaLocation="http://www.topografix.com/GPX/1/1 http://www.topografix.com/GPX/1/1/gpx.xsd" version="1.1" creator="VisuGPX - https://www.visugpx.com">
  <metadata>
    <name>9563918-2019 j2 randonneur</name>
  </metadata>
  <trk>
    <name><![CDATA[9563918-2019 j2 randonneur]]></name>
    <trkseg>
      <trkpt lat="46.07831" lon="6.72622">
        <ele>705</ele>
        <time>2019-06-11T11:35:39Z</time>
      </trkpt>
      <trkpt lat="46.07863" lon="6.72539">
        <ele>703</ele>
        <time>2019-06-11T11:35:51Z</time>
      </trkpt>
      <trkpt lat="46.07809" lon="6.72494">
        <ele>702</ele>
        <time>2019-06-11T11:36:02Z</time>
      </trkpt>
      <trkpt lat="46.07797" lon="6.72476">
        <ele>701</ele>
        <time>2019-06-11T11:36:05Z</time>
      </trkpt>
      <trkpt lat="46.07791" lon="6.7246">
        <ele>701</ele>
        <time>2019-06-11T11:36:07Z</time>
      </trkpt>
      <trkpt lat="46.07665" lon="6.72013">
        <ele>700</ele>
        <time>2019-06-11T11:37:07Z</time>
      </trkpt>
      <trkpt lat="46.07663" lon="6.71998">
        <ele>700</ele>
        <time>2019-06-11T11:37:09Z</time>
      </trkpt>
      <trkpt lat="46.07664" lon="6.71979">
        <ele>700</ele>
        <time>2019-06-11T11:37:11Z</time>
      </trkpt>
      <trkpt lat="46.07682" lon="6.71945">
        <ele>698</ele>
        <time>2019-06-11T11:37:16Z</time>
      </trkpt>
      <trkpt lat="46.07688" lon="6.71938">
        <ele>698</ele>
        <time>2019-06-11T11:37:18Z</time>
      </trkpt>
      <trkpt lat="46.07693" lon="6.71936">
        <ele>697</ele>
        <time>2019-06-11T11:37:19Z</time>
      </trkpt>
      <trkpt lat="46.07698" lon="6.7193">
        <ele>697</ele>
        <time>2019-06-11T11:37:20Z</time>
      </trkpt>
      <trkpt lat="46.07699" lon="6.71923">
        <ele>697</ele>
        <time>2019-06-11T11:37:21Z</time>
      </trkpt>
      <trkpt lat="46.07698" lon="6.71916">
        <ele>697</ele>
        <time>2019-06-11T11:37:21Z</time>
      </trkpt>
      <trkpt lat="46.07691" lon="6.71907">
        <ele>697</ele>
        <time>2019-06-11T11:37:23Z</time>
      </trkpt>
      <trkpt lat="46.07685" lon="6.71908">
        <ele>697</ele>
        <time>2019-06-11T11:37:24Z</time>
      </trkpt>
      <trkpt lat="46.07672" lon="6.71902">
        <ele>698</ele>
        <time>2019-06-11T11:37:27Z</time>
      </trkpt>
      <trkpt lat="46.07644" lon="6.71882">
        <ele>707</ele>
        <time>2019-06-11T11:37:32Z</time>
      </trkpt>
      <trkpt lat="46.07599" lon="6.71838">
        <ele>726</ele>
        <time>2019-06-11T11:37:42Z</time>
      </trkpt>
      <trkpt lat="46.07591" lon="6.71834">
        <ele>730</ele>
        <time>2019-06-11T11:37:43Z</time>
      </trkpt>
      <trkpt lat="46.07586" lon="6.71828">
        <ele>733</ele>
        <time>2019-06-11T11:37:45Z</time>
      </trkpt>
      <trkpt lat="46.07585" lon="6.71812">
        <ele>736</ele>
        <time>2019-06-11T11:37:46Z</time>
      </trkpt>
      <trkpt lat="46.07607" lon="6.7165">
        <ele>739</ele>
        <time>2019-06-11T11:38:07Z</time>
      </trkpt>
      <trkpt lat="46.0761" lon="6.71613">
        <ele>738</ele>
        <time>2019-06-11T11:38:11Z</time>
      </trkpt>
      <trkpt lat="46.0761" lon="6.7158">
        <ele>739</ele>
        <time>2019-06-11T11:38:16Z</time>
      </trkpt>
      <trkpt lat="46.07606" lon="6.71557">
        <ele>742</ele>
        <time>2019-06-11T11:38:18Z</time>
      </trkpt>
      <trkpt lat="46.07587" lon="6.71508">
        <ele>753</ele>
        <time>2019-06-11T11:38:25Z</time>
      </trkpt>
      <trkpt lat="46.07583" lon="6.71492">
        <ele>754</ele>
        <time>2019-06-11T11:38:27Z</time>
      </trkpt>
      <trkpt lat="46.07583" lon="6.71476">
        <ele>753</ele>
        <time>2019-06-11T11:38:29Z</time>
      </trkpt>
      <trkpt lat="46.07592" lon="6.71415">
        <ele>743</ele>
        <time>2019-06-11T11:38:37Z</time>
      </trkpt>
      <trkpt lat="46.07592" lon="6.71399">
        <ele>743</ele>
        <time>2019-06-11T11:38:39Z</time>
      </trkpt>
      <trkpt lat="46.07588" lon="6.71391">
        <ele>744</ele>
        <time>2019-06-11T11:38:40Z</time>
      </trkpt>
      <trkpt lat="46.07582" lon="6.71387">
        <ele>746</ele>
        <time>2019-06-11T11:38:42Z</time>
      </trkpt>
      <trkpt lat="46.07576" lon="6.71387">
        <ele>748</ele>
        <time>2019-06-11T11:38:43Z</time>
      </trkpt>
      <trkpt lat="46.0757" lon="6.71391">
        <ele>751</ele>
        <time>2019-06-11T11:38:44Z</time>
      </trkpt>
      <trkpt lat="46.07566" lon="6.71399">
        <ele>754</ele>
        <time>2019-06-11T11:38:45Z</time>
      </trkpt>
      <trkpt lat="46.07563" lon="6.71415">
        <ele>757</ele>
        <time>2019-06-11T11:38:47Z</time>
      </trkpt>
      <trkpt lat="46.07564" lon="6.71447">
        <ele>760</ele>
        <time>2019-06-11T11:38:51Z</time>
      </trkpt>
      <trkpt lat="46.07561" lon="6.71461">
        <ele>763</ele>
        <time>2019-06-11T11:38:53Z</time>
      </trkpt>
      <trkpt lat="46.07557" lon="6.71466">
        <ele>766</ele>
        <time>2019-06-11T11:38:54Z</time>
      </trkpt>
      <trkpt lat="46.07548" lon="6.71465">
        <ele>770</ele>
        <time>2019-06-11T11:38:55Z</time>
      </trkpt>
      <trkpt lat="46.07542" lon="6.71456">
        <ele>772</ele>
        <time>2019-06-11T11:38:57Z</time>
      </trkpt>
      <trkpt lat="46.07539" lon="6.71441">
        <ele>772</ele>
        <time>2019-06-11T11:38:59Z</time>
      </trkpt>
      <trkpt lat="46.0754" lon="6.71328">
        <ele>756</ele>
        <time>2019-06-11T11:39:13Z</time>
      </trkpt>
      <trkpt lat="46.07551" lon="6.71094">
        <ele>756</ele>
        <time>2019-06-11T11:39:42Z</time>
      </trkpt>
      <trkpt lat="46.07532" lon="6.71016">
        <ele>760</ele>
        <time>2019-06-11T11:39:52Z</time>
      </trkpt>
      <trkpt lat="46.07516" lon="6.70888">
        <ele>765</ele>
        <time>2019-06-11T11:40:08Z</time>
      </trkpt>
      <trkpt lat="46.07516" lon="6.70892">
        <ele>764</ele>
        <time>2019-06-11T11:40:08Z</time>
      </trkpt>
      <trkpt lat="46.07485" lon="6.70906">
        <ele>768</ele>
        <time>2019-06-11T11:40:14Z</time>
      </trkpt>
      <trkpt lat="46.07469" lon="6.70918">
        <ele>772</ele>
        <time>2019-06-11T11:40:17Z</time>
      </trkpt>
      <trkpt lat="46.07455" lon="6.70934">
        <ele>774</ele>
        <time>2019-06-11T11:40:21Z</time>
      </trkpt>
      <trkpt lat="46.07396" lon="6.71046">
        <ele>784</ele>
        <time>2019-06-11T11:40:38Z</time>
      </trkpt>
      <trkpt lat="46.07376" lon="6.7104">
        <ele>787</ele>
        <time>2019-06-11T11:40:42Z</time>
      </trkpt>
      <trkpt lat="46.07354" lon="6.71047">
        <ele>792</ele>
        <time>2019-06-11T11:40:46Z</time>
      </trkpt>
      <trkpt lat="46.07338" lon="6.71049">
        <ele>795</ele>
        <time>2019-06-11T11:40:48Z</time>
      </trkpt>
      <trkpt lat="46.07319" lon="6.71048">
        <ele>798</ele>
        <time>2019-06-11T11:40:52Z</time>
      </trkpt>
      <trkpt lat="46.07289" lon="6.71035">
        <ele>801</ele>
        <time>2019-06-11T11:40:57Z</time>
      </trkpt>
      <trkpt lat="46.07268" lon="6.71005">
        <ele>805</ele>
        <time>2019-06-11T11:41:03Z</time>
      </trkpt>
      <trkpt lat="46.07251" lon="6.70977">
        <ele>809</ele>
        <time>2019-06-11T11:41:07Z</time>
      </trkpt>
      <trkpt lat="46.07242" lon="6.70953">
        <ele>811</ele>
        <time>2019-06-11T11:41:11Z</time>
      </trkpt>
      <trkpt lat="46.07239" lon="6.70925">
        <ele>813</ele>
        <time>2019-06-11T11:41:14Z</time>
      </trkpt>
      <trkpt lat="46.07242" lon="6.70878">
        <ele>814</ele>
        <time>2019-06-11T11:41:20Z</time>
      </trkpt>
      <trkpt lat="46.07239" lon="6.70863">
        <ele>815</ele>
        <time>2019-06-11T11:41:22Z</time>
      </trkpt>
      <trkpt lat="46.07245" lon="6.7079">
        <ele>816</ele>
        <time>2019-06-11T11:41:31Z</time>
      </trkpt>
      <trkpt lat="46.07241" lon="6.70754">
        <ele>818</ele>
        <time>2019-06-11T11:41:35Z</time>
      </trkpt>
      <trkpt lat="46.07247" lon="6.70705">
        <ele>819</ele>
        <time>2019-06-11T11:41:42Z</time>
      </trkpt>
      <trkpt lat="46.07265" lon="6.70707">
        <ele>815</ele>
        <time>2019-06-11T11:41:45Z</time>
      </trkpt>
      <trkpt lat="46.07272" lon="6.70698">
        <ele>814</ele>
        <time>2019-06-11T11:41:47Z</time>
      </trkpt>
      <trkpt lat="46.07277" lon="6.70685">
        <ele>813</ele>
        <time>2019-06-11T11:41:48Z</time>
      </trkpt>
      <trkpt lat="46.07277" lon="6.70645">
        <ele>815</ele>
        <time>2019-06-11T11:41:53Z</time>
      </trkpt>
      <trkpt lat="46.07266" lon="6.70579">
        <ele>820</ele>
        <time>2019-06-11T11:42:02Z</time>
      </trkpt>
      <trkpt lat="46.07275" lon="6.70526">
        <ele>818</ele>
        <time>2019-06-11T11:42:08Z</time>
      </trkpt>
      <trkpt lat="46.07291" lon="6.70488">
        <ele>813</ele>
        <time>2019-06-11T11:42:14Z</time>
      </trkpt>
      <trkpt lat="46.07317" lon="6.70466">
        <ele>807</ele>
        <time>2019-06-11T11:42:19Z</time>
      </trkpt>
      <trkpt lat="46.07324" lon="6.70471">
        <ele>805</ele>
        <time>2019-06-11T11:42:21Z</time>
      </trkpt>
      <trkpt lat="46.07332" lon="6.7047">
        <ele>803</ele>
        <time>2019-06-11T11:42:22Z</time>
      </trkpt>
      <trkpt lat="46.0734" lon="6.70465">
        <ele>802</ele>
        <time>2019-06-11T11:42:24Z</time>
      </trkpt>
      <trkpt lat="46.07348" lon="6.7045">
        <ele>801</ele>
        <time>2019-06-11T11:42:26Z</time>
      </trkpt>
      <trkpt lat="46.07373" lon="6.70388">
        <ele>799</ele>
        <time>2019-06-11T11:42:35Z</time>
      </trkpt>
      <trkpt lat="46.07388" lon="6.70375">
        <ele>797</ele>
        <time>2019-06-11T11:42:38Z</time>
      </trkpt>
      <trkpt lat="46.07407" lon="6.70375">
        <ele>794</ele>
        <time>2019-06-11T11:42:41Z</time>
      </trkpt>
      <trkpt lat="46.07437" lon="6.70395">
        <ele>790</ele>
        <time>2019-06-11T11:42:47Z</time>
      </trkpt>
      <trkpt lat="46.07465" lon="6.70421">
        <ele>785</ele>
        <time>2019-06-11T11:42:53Z</time>
      </trkpt>
      <trkpt lat="46.07474" lon="6.70418">
        <ele>784</ele>
        <time>2019-06-11T11:42:55Z</time>
      </trkpt>
      <trkpt lat="46.075" lon="6.70421">
        <ele>780</ele>
        <time>2019-06-11T11:42:59Z</time>
      </trkpt>
      <trkpt lat="46.07516" lon="6.70415">
        <ele>779</ele>
        <time>2019-06-11T11:43:02Z</time>
      </trkpt>
      <trkpt lat="46.07529" lon="6.70397">
        <ele>780</ele>
        <time>2019-06-11T11:43:06Z</time>
      </trkpt>
      <trkpt lat="46.07538" lon="6.70375">
        <ele>782</ele>
        <time>2019-06-11T11:43:09Z</time>
      </trkpt>
      <trkpt lat="46.07557" lon="6.70256">
        <ele>782</ele>
        <time>2019-06-11T11:43:24Z</time>
      </trkpt>
      <trkpt lat="46.07572" lon="6.70216">
        <ele>778</ele>
        <time>2019-06-11T11:43:29Z</time>
      </trkpt>
      <trkpt lat="46.07612" lon="6.70158">
        <ele>764</ele>
        <time>2019-06-11T11:43:39Z</time>
      </trkpt>
      <trkpt lat="46.07622" lon="6.70128">
        <ele>759</ele>
        <time>2019-06-11T11:43:44Z</time>
      </trkpt>
      <trkpt lat="46.07626" lon="6.70085">
        <ele>754</ele>
        <time>2019-06-11T11:43:49Z</time>
      </trkpt>
      <trkpt lat="46.07623" lon="6.7006">
        <ele>752</ele>
        <time>2019-06-11T11:43:52Z</time>
      </trkpt>
      <trkpt lat="46.07605" lon="6.70004">
        <ele>752</ele>
        <time>2019-06-11T11:44:00Z</time>
      </trkpt>
      <trkpt lat="46.07597" lon="6.69975">
        <ele>752</ele>
        <time>2019-06-11T11:44:04Z</time>
      </trkpt>
      <trkpt lat="46.07592" lon="6.69936">
        <ele>752</ele>
        <time>2019-06-11T11:44:08Z</time>
      </trkpt>
      <trkpt lat="46.07579" lon="6.69893">
        <ele>755</ele>
        <time>2019-06-11T11:44:14Z</time>
      </trkpt>
      <trkpt lat="46.07566" lon="6.69864">
        <ele>757</ele>
        <time>2019-06-11T11:44:18Z</time>
      </trkpt>
      <trkpt lat="46.07545" lon="6.69785">
        <ele>750</ele>
        <time>2019-06-11T11:44:29Z</time>
      </trkpt>
      <trkpt lat="46.0754" lon="6.69706">
        <ele>739</ele>
        <time>2019-06-11T11:44:39Z</time>
      </trkpt>
      <trkpt lat="46.07539" lon="6.6967">
        <ele>734</ele>
        <time>2019-06-11T11:44:43Z</time>
      </trkpt>
      <trkpt lat="46.07545" lon="6.69619">
        <ele>729</ele>
        <time>2019-06-11T11:44:50Z</time>
      </trkpt>
      <trkpt lat="46.07544" lon="6.69562">
        <ele>727</ele>
        <time>2019-06-11T11:44:57Z</time>
      </trkpt>
      <trkpt lat="46.07548" lon="6.69516">
        <ele>725</ele>
        <time>2019-06-11T11:45:02Z</time>
      </trkpt>
      <trkpt lat="46.07555" lon="6.69504">
        <ele>723</ele>
        <time>2019-06-11T11:45:04Z</time>
      </trkpt>
      <trkpt lat="46.07601" lon="6.69461">
        <ele>711</ele>
        <time>2019-06-11T11:45:14Z</time>
      </trkpt>
      <trkpt lat="46.07611" lon="6.69445">
        <ele>710</ele>
        <time>2019-06-11T11:45:17Z</time>
      </trkpt>
      <trkpt lat="46.07692" lon="6.69264">
        <ele>700</ele>
        <time>2019-06-11T11:45:43Z</time>
      </trkpt>
      <trkpt lat="46.07719" lon="6.69214">
        <ele>700</ele>
        <time>2019-06-11T11:45:51Z</time>
      </trkpt>
      <trkpt lat="46.07762" lon="6.69151">
        <ele>701</ele>
        <time>2019-06-11T11:46:02Z</time>
      </trkpt>
      <trkpt lat="46.07786" lon="6.69111">
        <ele>702</ele>
        <time>2019-06-11T11:46:09Z</time>
      </trkpt>
      <trkpt lat="46.07779" lon="6.69105">
        <ele>703</ele>
        <time>2019-06-11T11:46:10Z</time>
      </trkpt>
      <trkpt lat="46.07739" lon="6.69088">
        <ele>705</ele>
        <time>2019-06-11T11:46:17Z</time>
      </trkpt>
      <trkpt lat="46.07733" lon="6.69084">
        <ele>707</ele>
        <time>2019-06-11T11:46:19Z</time>
      </trkpt>
      <trkpt lat="46.0773" lon="6.69074">
        <ele>708</ele>
        <time>2019-06-11T11:46:20Z</time>
      </trkpt>
      <trkpt lat="46.07729" lon="6.6906">
        <ele>710</ele>
        <time>2019-06-11T11:46:22Z</time>
      </trkpt>
      <trkpt lat="46.07739" lon="6.69009">
        <ele>713</ele>
        <time>2019-06-11T11:46:28Z</time>
      </trkpt>
      <trkpt lat="46.07741" lon="6.68966">
        <ele>717</ele>
        <time>2019-06-11T11:46:33Z</time>
      </trkpt>
      <trkpt lat="46.07738" lon="6.68878">
        <ele>726</ele>
        <time>2019-06-11T11:46:44Z</time>
      </trkpt>
      <trkpt lat="46.07735" lon="6.68862">
        <ele>729</ele>
        <time>2019-06-11T11:46:46Z</time>
      </trkpt>
      <trkpt lat="46.07709" lon="6.68803">
        <ele>737</ele>
        <time>2019-06-11T11:46:55Z</time>
      </trkpt>
      <trkpt lat="46.07701" lon="6.68779">
        <ele>739</ele>
        <time>2019-06-11T11:46:58Z</time>
      </trkpt>
      <trkpt lat="46.07692" lon="6.68763">
        <ele>741</ele>
        <time>2019-06-11T11:47:01Z</time>
      </trkpt>
      <trkpt lat="46.07679" lon="6.68756">
        <ele>742</ele>
        <time>2019-06-11T11:47:03Z</time>
      </trkpt>
      <trkpt lat="46.07659" lon="6.68756">
        <ele>745</ele>
        <time>2019-06-11T11:47:07Z</time>
      </trkpt>
      <trkpt lat="46.07632" lon="6.68748">
        <ele>751</ele>
        <time>2019-06-11T11:47:12Z</time>
      </trkpt>
      <trkpt lat="46.07632" lon="6.68727">
        <ele>752</ele>
        <time>2019-06-11T11:47:14Z</time>
      </trkpt>
      <trkpt lat="46.07621" lon="6.68698">
        <ele>755</ele>
        <time>2019-06-11T11:47:18Z</time>
      </trkpt>
      <trkpt lat="46.07619" lon="6.68687">
        <ele>755</ele>
        <time>2019-06-11T11:47:20Z</time>
      </trkpt>
      <trkpt lat="46.07612" lon="6.6867">
        <ele>757</ele>
        <time>2019-06-11T11:47:22Z</time>
      </trkpt>
      <trkpt lat="46.07609" lon="6.68666">
        <ele>757</ele>
        <time>2019-06-11T11:47:23Z</time>
      </trkpt>
      <trkpt lat="46.07604" lon="6.68668">
        <ele>758</ele>
        <time>2019-06-11T11:47:24Z</time>
      </trkpt>
      <trkpt lat="46.07597" lon="6.68666">
        <ele>758</ele>
        <time>2019-06-11T11:47:25Z</time>
      </trkpt>
      <trkpt lat="46.07592" lon="6.68661">
        <ele>759</ele>
        <time>2019-06-11T11:47:26Z</time>
      </trkpt>
      <trkpt lat="46.07591" lon="6.68656">
        <ele>759</ele>
        <time>2019-06-11T11:47:27Z</time>
      </trkpt>
      <trkpt lat="46.07594" lon="6.68647">
        <ele>758</ele>
        <time>2019-06-11T11:47:28Z</time>
      </trkpt>
      <trkpt lat="46.07588" lon="6.68641">
        <ele>759</ele>
        <time>2019-06-11T11:47:29Z</time>
      </trkpt>
      <trkpt lat="46.07579" lon="6.68573">
        <ele>759</ele>
        <time>2019-06-11T11:47:38Z</time>
      </trkpt>
      <trkpt lat="46.07556" lon="6.68507">
        <ele>768</ele>
        <time>2019-06-11T11:47:47Z</time>
      </trkpt>
      <trkpt lat="46.07539" lon="6.68481">
        <ele>774</ele>
        <time>2019-06-11T11:47:52Z</time>
      </trkpt>
      <trkpt lat="46.07531" lon="6.68484">
        <ele>775</ele>
        <time>2019-06-11T11:47:53Z</time>
      </trkpt>
      <trkpt lat="46.07531" lon="6.68499">
        <ele>774</ele>
        <time>2019-06-11T11:47:55Z</time>
      </trkpt>
      <trkpt lat="46.07545" lon="6.68553">
        <ele>768</ele>
        <time>2019-06-11T11:48:02Z</time>
      </trkpt>
      <trkpt lat="46.07546" lon="6.68574">
        <ele>767</ele>
        <time>2019-06-11T11:48:05Z</time>
      </trkpt>
      <trkpt lat="46.07537" lon="6.68599">
        <ele>769</ele>
        <time>2019-06-11T11:48:08Z</time>
      </trkpt>
      <trkpt lat="46.07501" lon="6.68641">
        <ele>777</ele>
        <time>2019-06-11T11:48:16Z</time>
      </trkpt>
      <trkpt lat="46.07451" lon="6.68648">
        <ele>786</ele>
        <time>2019-06-11T11:48:25Z</time>
      </trkpt>
      <trkpt lat="46.07393" lon="6.68692">
        <ele>795</ele>
        <time>2019-06-11T11:48:37Z</time>
      </trkpt>
      <trkpt lat="46.07356" lon="6.68735">
        <ele>798</ele>
        <time>2019-06-11T11:48:45Z</time>
      </trkpt>
      <trkpt lat="46.07335" lon="6.68745">
        <ele>800</ele>
        <time>2019-06-11T11:48:49Z</time>
      </trkpt>
      <trkpt lat="46.07323" lon="6.68734">
        <ele>804</ele>
        <time>2019-06-11T11:48:52Z</time>
      </trkpt>
      <trkpt lat="46.07329" lon="6.68703">
        <ele>805</ele>
        <time>2019-06-11T11:48:56Z</time>
      </trkpt>
      <trkpt lat="46.07346" lon="6.68676">
        <ele>804</ele>
        <time>2019-06-11T11:49:00Z</time>
      </trkpt>
      <trkpt lat="46.07353" lon="6.68645">
        <ele>806</ele>
        <time>2019-06-11T11:49:04Z</time>
      </trkpt>
      <trkpt lat="46.07341" lon="6.68609">
        <ele>813</ele>
        <time>2019-06-11T11:49:09Z</time>
      </trkpt>
      <trkpt lat="46.07326" lon="6.68584">
        <ele>820</ele>
        <time>2019-06-11T11:49:13Z</time>
      </trkpt>
      <trkpt lat="46.07304" lon="6.68513">
        <ele>824</ele>
        <time>2019-06-11T11:49:23Z</time>
      </trkpt>
      <trkpt lat="46.07269" lon="6.68408">
        <ele>832</ele>
        <time>2019-06-11T11:49:37Z</time>
      </trkpt>
      <trkpt lat="46.07253" lon="6.68397">
        <ele>836</ele>
        <time>2019-06-11T11:49:40Z</time>
      </trkpt>
      <trkpt lat="46.07238" lon="6.68402">
        <ele>840</ele>
        <time>2019-06-11T11:49:43Z</time>
      </trkpt>
      <trkpt lat="46.07228" lon="6.68436">
        <ele>842</ele>
        <time>2019-06-11T11:49:48Z</time>
      </trkpt>
      <trkpt lat="46.07216" lon="6.6853">
        <ele>844</ele>
        <time>2019-06-11T11:50:00Z</time>
      </trkpt>
      <trkpt lat="46.07197" lon="6.68571">
        <ele>847</ele>
        <time>2019-06-11T11:50:06Z</time>
      </trkpt>
      <trkpt lat="46.07129" lon="6.68621">
        <ele>854</ele>
        <time>2019-06-11T11:50:19Z</time>
      </trkpt>
      <trkpt lat="46.07104" lon="6.6866">
        <ele>854</ele>
        <time>2019-06-11T11:50:26Z</time>
      </trkpt>
      <trkpt lat="46.07088" lon="6.6867">
        <ele>855</ele>
        <time>2019-06-11T11:50:29Z</time>
      </trkpt>
      <trkpt lat="46.06971" lon="6.68573">
        <ele>878</ele>
        <time>2019-06-11T11:50:53Z</time>
      </trkpt>
      <trkpt lat="46.06944" lon="6.68501">
        <ele>892</ele>
        <time>2019-06-11T11:51:03Z</time>
      </trkpt>
      <trkpt lat="46.06981" lon="6.68453">
        <ele>894</ele>
        <time>2019-06-11T11:51:12Z</time>
      </trkpt>
      <trkpt lat="46.06998" lon="6.68429">
        <ele>895</ele>
        <time>2019-06-11T11:51:16Z</time>
      </trkpt>
      <trkpt lat="46.07002" lon="6.6842">
        <ele>895</ele>
        <time>2019-06-11T11:51:17Z</time>
      </trkpt>
      <trkpt lat="46.07019" lon="6.68335">
        <ele>901</ele>
        <time>2019-06-11T11:51:28Z</time>
      </trkpt>
      <trkpt lat="46.0702" lon="6.68313">
        <ele>904</ele>
        <time>2019-06-11T11:51:31Z</time>
      </trkpt>
      <trkpt lat="46.07018" lon="6.68301">
        <ele>906</ele>
        <time>2019-06-11T11:51:33Z</time>
      </trkpt>
      <trkpt lat="46.07012" lon="6.68291">
        <ele>908</ele>
        <time>2019-06-11T11:51:34Z</time>
      </trkpt>
      <trkpt lat="46.07002" lon="6.68286">
        <ele>909</ele>
        <time>2019-06-11T11:51:36Z</time>
      </trkpt>
      <trkpt lat="46.06992" lon="6.68289">
        <ele>910</ele>
        <time>2019-06-11T11:51:38Z</time>
      </trkpt>
      <trkpt lat="46.06983" lon="6.68297">
        <ele>910</ele>
        <time>2019-06-11T11:51:40Z</time>
      </trkpt>
      <trkpt lat="46.06978" lon="6.68305">
        <ele>910</ele>
        <time>2019-06-11T11:51:41Z</time>
      </trkpt>
      <trkpt lat="46.06956" lon="6.68357">
        <ele>909</ele>
        <time>2019-06-11T11:51:49Z</time>
      </trkpt>
      <trkpt lat="46.06951" lon="6.68362">
        <ele>910</ele>
        <time>2019-06-11T11:51:50Z</time>
      </trkpt>
      <trkpt lat="46.06945" lon="6.68365">
        <ele>910</ele>
        <time>2019-06-11T11:51:51Z</time>
      </trkpt>
      <trkpt lat="46.06939" lon="6.68365">
        <ele>912</ele>
        <time>2019-06-11T11:51:52Z</time>
      </trkpt>
      <trkpt lat="46.06937" lon="6.68356">
        <ele>913</ele>
        <time>2019-06-11T11:51:53Z</time>
      </trkpt>
      <trkpt lat="46.06935" lon="6.68336">
        <ele>915</ele>
        <time>2019-06-11T11:51:56Z</time>
      </trkpt>
      <trkpt lat="46.06935" lon="6.68304">
        <ele>916</ele>
        <time>2019-06-11T11:52:00Z</time>
      </trkpt>
      <trkpt lat="46.06938" lon="6.68286">
        <ele>917</ele>
        <time>2019-06-11T11:52:02Z</time>
      </trkpt>
      <trkpt lat="46.06943" lon="6.68272">
        <ele>917</ele>
        <time>2019-06-11T11:52:04Z</time>
      </trkpt>
      <trkpt lat="46.0697" lon="6.68216">
        <ele>922</ele>
        <time>2019-06-11T11:52:12Z</time>
      </trkpt>
      <trkpt lat="46.06984" lon="6.68175">
        <ele>928</ele>
        <time>2019-06-11T11:52:18Z</time>
      </trkpt>
      <trkpt lat="46.06993" lon="6.68137">
        <ele>935</ele>
        <time>2019-06-11T11:52:23Z</time>
      </trkpt>
      <trkpt lat="46.06996" lon="6.68116">
        <ele>939</ele>
        <time>2019-06-11T11:52:25Z</time>
      </trkpt>
      <trkpt lat="46.06996" lon="6.68097">
        <ele>942</ele>
        <time>2019-06-11T11:52:28Z</time>
      </trkpt>
      <trkpt lat="46.06992" lon="6.68082">
        <ele>945</ele>
        <time>2019-06-11T11:52:30Z</time>
      </trkpt>
      <trkpt lat="46.06987" lon="6.68077">
        <ele>946</ele>
        <time>2019-06-11T11:52:31Z</time>
      </trkpt>
      <trkpt lat="46.06977" lon="6.6807">
        <ele>948</ele>
        <time>2019-06-11T11:52:33Z</time>
      </trkpt>
      <trkpt lat="46.06966" lon="6.68066">
        <ele>949</ele>
        <time>2019-06-11T11:52:35Z</time>
      </trkpt>
      <trkpt lat="46.06956" lon="6.68065">
        <ele>950</ele>
        <time>2019-06-11T11:52:37Z</time>
      </trkpt>
      <trkpt lat="46.06892" lon="6.68087">
        <ele>953</ele>
        <time>2019-06-11T11:52:48Z</time>
      </trkpt>
      <trkpt lat="46.06873" lon="6.68097">
        <ele>955</ele>
        <time>2019-06-11T11:52:52Z</time>
      </trkpt>
      <trkpt lat="46.06855" lon="6.68116">
        <ele>956</ele>
        <time>2019-06-11T11:52:56Z</time>
      </trkpt>
      <trkpt lat="46.06838" lon="6.6815">
        <ele>954</ele>
        <time>2019-06-11T11:53:01Z</time>
      </trkpt>
      <trkpt lat="46.06824" lon="6.68186">
        <ele>952</ele>
        <time>2019-06-11T11:53:06Z</time>
      </trkpt>
      <trkpt lat="46.06813" lon="6.68202">
        <ele>952</ele>
        <time>2019-06-11T11:53:09Z</time>
      </trkpt>
      <trkpt lat="46.06805" lon="6.68206">
        <ele>953</ele>
        <time>2019-06-11T11:53:10Z</time>
      </trkpt>
      <trkpt lat="46.06799" lon="6.68205">
        <ele>955</ele>
        <time>2019-06-11T11:53:12Z</time>
      </trkpt>
      <trkpt lat="46.06792" lon="6.682">
        <ele>957</ele>
        <time>2019-06-11T11:53:13Z</time>
      </trkpt>
      <trkpt lat="46.06788" lon="6.68192">
        <ele>959</ele>
        <time>2019-06-11T11:53:14Z</time>
      </trkpt>
      <trkpt lat="46.06788" lon="6.68176">
        <ele>961</ele>
        <time>2019-06-11T11:53:16Z</time>
      </trkpt>
      <trkpt lat="46.06791" lon="6.68166">
        <ele>961</ele>
        <time>2019-06-11T11:53:17Z</time>
      </trkpt>
      <trkpt lat="46.06807" lon="6.68155">
        <ele>960</ele>
        <time>2019-06-11T11:53:21Z</time>
      </trkpt>
      <trkpt lat="46.06815" lon="6.68146">
        <ele>960</ele>
        <time>2019-06-11T11:53:22Z</time>
      </trkpt>
      <trkpt lat="46.06817" lon="6.68131">
        <ele>962</ele>
        <time>2019-06-11T11:53:24Z</time>
      </trkpt>
      <trkpt lat="46.06814" lon="6.68117">
        <ele>965</ele>
        <time>2019-06-11T11:53:26Z</time>
      </trkpt>
      <trkpt lat="46.0681" lon="6.68111">
        <ele>967</ele>
        <time>2019-06-11T11:53:27Z</time>
      </trkpt>
      <trkpt lat="46.06799" lon="6.68104">
        <ele>971</ele>
        <time>2019-06-11T11:53:29Z</time>
      </trkpt>
      <trkpt lat="46.06777" lon="6.68102">
        <ele>975</ele>
        <time>2019-06-11T11:53:33Z</time>
      </trkpt>
      <trkpt lat="46.06764" lon="6.68105">
        <ele>977</ele>
        <time>2019-06-11T11:53:36Z</time>
      </trkpt>
      <trkpt lat="46.06756" lon="6.68108">
        <ele>978</ele>
        <time>2019-06-11T11:53:37Z</time>
      </trkpt>
      <trkpt lat="46.06745" lon="6.68119">
        <ele>978</ele>
        <time>2019-06-11T11:53:39Z</time>
      </trkpt>
      <trkpt lat="46.06739" lon="6.68129">
        <ele>978</ele>
        <time>2019-06-11T11:53:41Z</time>
      </trkpt>
      <trkpt lat="46.06728" lon="6.68156">
        <ele>976</ele>
        <time>2019-06-11T11:53:45Z</time>
      </trkpt>
      <trkpt lat="46.06717" lon="6.68177">
        <ele>975</ele>
        <time>2019-06-11T11:53:48Z</time>
      </trkpt>
      <trkpt lat="46.06712" lon="6.68183">
        <ele>975</ele>
        <time>2019-06-11T11:53:49Z</time>
      </trkpt>
      <trkpt lat="46.06706" lon="6.68187">
        <ele>976</ele>
        <time>2019-06-11T11:53:50Z</time>
      </trkpt>
      <trkpt lat="46.06695" lon="6.68189">
        <ele>978</ele>
        <time>2019-06-11T11:53:52Z</time>
      </trkpt>
      <trkpt lat="46.0669" lon="6.68187">
        <ele>979</ele>
        <time>2019-06-11T11:53:53Z</time>
      </trkpt>
      <trkpt lat="46.06684" lon="6.68181">
        <ele>980</ele>
        <time>2019-06-11T11:53:55Z</time>
      </trkpt>
      <trkpt lat="46.06679" lon="6.68174">
        <ele>982</ele>
        <time>2019-06-11T11:53:56Z</time>
      </trkpt>
      <trkpt lat="46.06677" lon="6.68166">
        <ele>983</ele>
        <time>2019-06-11T11:53:57Z</time>
      </trkpt>
      <trkpt lat="46.06666" lon="6.68105">
        <ele>993</ele>
        <time>2019-06-11T11:54:05Z</time>
      </trkpt>
      <trkpt lat="46.0667" lon="6.68061">
        <ele>1000</ele>
        <time>2019-06-11T11:54:10Z</time>
      </trkpt>
      <trkpt lat="46.06669" lon="6.68047">
        <ele>1003</ele>
        <time>2019-06-11T11:54:12Z</time>
      </trkpt>
      <trkpt lat="46.06665" lon="6.68037">
        <ele>1006</ele>
        <time>2019-06-11T11:54:13Z</time>
      </trkpt>
      <trkpt lat="46.06662" lon="6.68034">
        <ele>1008</ele>
        <time>2019-06-11T11:54:14Z</time>
      </trkpt>
      <trkpt lat="46.06655" lon="6.68031">
        <ele>1010</ele>
        <time>2019-06-11T11:54:15Z</time>
      </trkpt>
      <trkpt lat="46.06645" lon="6.68032">
        <ele>1012</ele>
        <time>2019-06-11T11:54:17Z</time>
      </trkpt>
      <trkpt lat="46.06637" lon="6.68038">
        <ele>1012</ele>
        <time>2019-06-11T11:54:19Z</time>
      </trkpt>
      <trkpt lat="46.06628" lon="6.68054">
        <ele>1012</ele>
        <time>2019-06-11T11:54:21Z</time>
      </trkpt>
      <trkpt lat="46.0662" lon="6.68085">
        <ele>1009</ele>
        <time>2019-06-11T11:54:25Z</time>
      </trkpt>
      <trkpt lat="46.06611" lon="6.68097">
        <ele>1011</ele>
        <time>2019-06-11T11:54:28Z</time>
      </trkpt>
      <trkpt lat="46.06604" lon="6.68099">
        <ele>1014</ele>
        <time>2019-06-11T11:54:29Z</time>
      </trkpt>
      <trkpt lat="46.06601" lon="6.68096">
        <ele>1015</ele>
        <time>2019-06-11T11:54:29Z</time>
      </trkpt>
      <trkpt lat="46.06599" lon="6.68089">
        <ele>1016</ele>
        <time>2019-06-11T11:54:30Z</time>
      </trkpt>
      <trkpt lat="46.06598" lon="6.68082">
        <ele>1017</ele>
        <time>2019-06-11T11:54:31Z</time>
      </trkpt>
      <trkpt lat="46.06613" lon="6.68021">
        <ele>1020</ele>
        <time>2019-06-11T11:54:39Z</time>
      </trkpt>
      <trkpt lat="46.06613" lon="6.68009">
        <ele>1022</ele>
        <time>2019-06-11T11:54:41Z</time>
      </trkpt>
      <trkpt lat="46.06611" lon="6.68003">
        <ele>1023</ele>
        <time>2019-06-11T11:54:42Z</time>
      </trkpt>
      <trkpt lat="46.06609" lon="6.68001">
        <ele>1023</ele>
        <time>2019-06-11T11:54:42Z</time>
      </trkpt>
      <trkpt lat="46.06605" lon="6.68">
        <ele>1024</ele>
        <time>2019-06-11T11:54:43Z</time>
      </trkpt>
      <trkpt lat="46.066" lon="6.68001">
        <ele>1024</ele>
        <time>2019-06-11T11:54:44Z</time>
      </trkpt>
      <trkpt lat="46.06595" lon="6.68005">
        <ele>1025</ele>
        <time>2019-06-11T11:54:45Z</time>
      </trkpt>
      <trkpt lat="46.06591" lon="6.68013">
        <ele>1025</ele>
        <time>2019-06-11T11:54:46Z</time>
      </trkpt>
      <trkpt lat="46.06582" lon="6.68039">
        <ele>1025</ele>
        <time>2019-06-11T11:54:49Z</time>
      </trkpt>
      <trkpt lat="46.06576" lon="6.6809">
        <ele>1023</ele>
        <time>2019-06-11T11:54:56Z</time>
      </trkpt>
      <trkpt lat="46.06576" lon="6.68111">
        <ele>1022</ele>
        <time>2019-06-11T11:54:58Z</time>
      </trkpt>
      <trkpt lat="46.06582" lon="6.68166">
        <ele>1017</ele>
        <time>2019-06-11T11:55:05Z</time>
      </trkpt>
      <trkpt lat="46.06582" lon="6.68175">
        <ele>1016</ele>
        <time>2019-06-11T11:55:06Z</time>
      </trkpt>
      <trkpt lat="46.0658" lon="6.6818">
        <ele>1015</ele>
        <time>2019-06-11T11:55:07Z</time>
      </trkpt>
      <trkpt lat="46.06577" lon="6.68185">
        <ele>1015</ele>
        <time>2019-06-11T11:55:08Z</time>
      </trkpt>
      <trkpt lat="46.06569" lon="6.68184">
        <ele>1016</ele>
        <time>2019-06-11T11:55:09Z</time>
      </trkpt>
      <trkpt lat="46.06566" lon="6.68179">
        <ele>1017</ele>
        <time>2019-06-11T11:55:10Z</time>
      </trkpt>
      <trkpt lat="46.06565" lon="6.68174">
        <ele>1019</ele>
        <time>2019-06-11T11:55:11Z</time>
      </trkpt>
      <trkpt lat="46.06567" lon="6.68147">
        <ele>1021</ele>
        <time>2019-06-11T11:55:14Z</time>
      </trkpt>
      <trkpt lat="46.06558" lon="6.68114">
        <ele>1027</ele>
        <time>2019-06-11T11:55:19Z</time>
      </trkpt>
      <trkpt lat="46.0655" lon="6.68088">
        <ele>1032</ele>
        <time>2019-06-11T11:55:22Z</time>
      </trkpt>
      <trkpt lat="46.06518" lon="6.68005">
        <ele>1051</ele>
        <time>2019-06-11T11:55:34Z</time>
      </trkpt>
      <trkpt lat="46.06512" lon="6.67983">
        <ele>1054</ele>
        <time>2019-06-11T11:55:37Z</time>
      </trkpt>
      <trkpt lat="46.06511" lon="6.67962">
        <ele>1054</ele>
        <time>2019-06-11T11:55:39Z</time>
      </trkpt>
      <trkpt lat="46.06513" lon="6.67925">
        <ele>1054</ele>
        <time>2019-06-11T11:55:44Z</time>
      </trkpt>
      <trkpt lat="46.06521" lon="6.67899">
        <ele>1056</ele>
        <time>2019-06-11T11:55:47Z</time>
      </trkpt>
      <trkpt lat="46.06526" lon="6.67888">
        <ele>1057</ele>
        <time>2019-06-11T11:55:49Z</time>
      </trkpt>
      <trkpt lat="46.06542" lon="6.67869">
        <ele>1059</ele>
        <time>2019-06-11T11:55:53Z</time>
      </trkpt>
      <trkpt lat="46.06555" lon="6.67858">
        <ele>1060</ele>
        <time>2019-06-11T11:55:55Z</time>
      </trkpt>
      <trkpt lat="46.06563" lon="6.67854">
        <ele>1060</ele>
        <time>2019-06-11T11:55:57Z</time>
      </trkpt>
      <trkpt lat="46.06606" lon="6.67851">
        <ele>1055</ele>
        <time>2019-06-11T11:56:05Z</time>
      </trkpt>
      <trkpt lat="46.06613" lon="6.67843">
        <ele>1056</ele>
        <time>2019-06-11T11:56:06Z</time>
      </trkpt>
      <trkpt lat="46.06614" lon="6.67833">
        <ele>1058</ele>
        <time>2019-06-11T11:56:07Z</time>
      </trkpt>
      <trkpt lat="46.0661" lon="6.67825">
        <ele>1059</ele>
        <time>2019-06-11T11:56:09Z</time>
      </trkpt>
      <trkpt lat="46.06607" lon="6.67824">
        <ele>1060</ele>
        <time>2019-06-11T11:56:09Z</time>
      </trkpt>
      <trkpt lat="46.06578" lon="6.67827">
        <ele>1064</ele>
        <time>2019-06-11T11:56:14Z</time>
      </trkpt>
      <trkpt lat="46.06514" lon="6.67813">
        <ele>1071</ele>
        <time>2019-06-11T11:56:26Z</time>
      </trkpt>
      <trkpt lat="46.06496" lon="6.67814">
        <ele>1073</ele>
        <time>2019-06-11T11:56:29Z</time>
      </trkpt>
      <trkpt lat="46.06477" lon="6.67819">
        <ele>1078</ele>
        <time>2019-06-11T11:56:32Z</time>
      </trkpt>
      <trkpt lat="46.0647" lon="6.67814">
        <ele>1080</ele>
        <time>2019-06-11T11:56:34Z</time>
      </trkpt>
      <trkpt lat="46.06467" lon="6.67806">
        <ele>1082</ele>
        <time>2019-06-11T11:56:35Z</time>
      </trkpt>
      <trkpt lat="46.06467" lon="6.67797">
        <ele>1083</ele>
        <time>2019-06-11T11:56:36Z</time>
      </trkpt>
      <trkpt lat="46.06469" lon="6.67792">
        <ele>1083</ele>
        <time>2019-06-11T11:56:37Z</time>
      </trkpt>
      <trkpt lat="46.06477" lon="6.67785">
        <ele>1082</ele>
        <time>2019-06-11T11:56:38Z</time>
      </trkpt>
      <trkpt lat="46.06516" lon="6.67758">
        <ele>1079</ele>
        <time>2019-06-11T11:56:46Z</time>
      </trkpt>
      <trkpt lat="46.06527" lon="6.67746">
        <ele>1080</ele>
        <time>2019-06-11T11:56:49Z</time>
      </trkpt>
      <trkpt lat="46.06531" lon="6.67732">
        <ele>1080</ele>
        <time>2019-06-11T11:56:51Z</time>
      </trkpt>
      <trkpt lat="46.06531" lon="6.67724">
        <ele>1080</ele>
        <time>2019-06-11T11:56:51Z</time>
      </trkpt>
      <trkpt lat="46.06527" lon="6.67709">
        <ele>1081</ele>
        <time>2019-06-11T11:56:53Z</time>
      </trkpt>
      <trkpt lat="46.06522" lon="6.677">
        <ele>1082</ele>
        <time>2019-06-11T11:56:55Z</time>
      </trkpt>
      <trkpt lat="46.06447" lon="6.6762">
        <ele>1091</ele>
        <time>2019-06-11T11:57:12Z</time>
      </trkpt>
      <trkpt lat="46.0643" lon="6.67611">
        <ele>1092</ele>
        <time>2019-06-11T11:57:15Z</time>
      </trkpt>
      <trkpt lat="46.06379" lon="6.67589">
        <ele>1098</ele>
        <time>2019-06-11T11:57:24Z</time>
      </trkpt>
      <trkpt lat="46.06351" lon="6.67582">
        <ele>1103</ele>
        <time>2019-06-11T11:57:29Z</time>
      </trkpt>
      <trkpt lat="46.06346" lon="6.67579">
        <ele>1104</ele>
        <time>2019-06-11T11:57:30Z</time>
      </trkpt>
      <trkpt lat="46.06339" lon="6.67571">
        <ele>1105</ele>
        <time>2019-06-11T11:57:32Z</time>
      </trkpt>
      <trkpt lat="46.06335" lon="6.67554">
        <ele>1106</ele>
        <time>2019-06-11T11:57:34Z</time>
      </trkpt>
      <trkpt lat="46.06338" lon="6.67542">
        <ele>1105</ele>
        <time>2019-06-11T11:57:36Z</time>
      </trkpt>
      <trkpt lat="46.06357" lon="6.67519">
        <ele>1100</ele>
        <time>2019-06-11T11:57:40Z</time>
      </trkpt>
      <trkpt lat="46.06418" lon="6.67437">
        <ele>1088</ele>
        <time>2019-06-11T11:57:55Z</time>
      </trkpt>
      <trkpt lat="46.06435" lon="6.67422">
        <ele>1086</ele>
        <time>2019-06-11T11:57:58Z</time>
      </trkpt>
      <trkpt lat="46.0646" lon="6.6741">
        <ele>1084</ele>
        <time>2019-06-11T11:58:03Z</time>
      </trkpt>
      <trkpt lat="46.06477" lon="6.67408">
        <ele>1082</ele>
        <time>2019-06-11T11:58:06Z</time>
      </trkpt>
      <trkpt lat="46.06527" lon="6.67415">
        <ele>1075</ele>
        <time>2019-06-11T11:58:15Z</time>
      </trkpt>
      <trkpt lat="46.06544" lon="6.67413">
        <ele>1074</ele>
        <time>2019-06-11T11:58:18Z</time>
      </trkpt>
      <trkpt lat="46.06555" lon="6.67405">
        <ele>1073</ele>
        <time>2019-06-11T11:58:20Z</time>
      </trkpt>
      <trkpt lat="46.06564" lon="6.67395">
        <ele>1072</ele>
        <time>2019-06-11T11:58:22Z</time>
      </trkpt>
      <trkpt lat="46.06572" lon="6.67374">
        <ele>1071</ele>
        <time>2019-06-11T11:58:25Z</time>
      </trkpt>
      <trkpt lat="46.06585" lon="6.67327">
        <ele>1069</ele>
        <time>2019-06-11T11:58:32Z</time>
      </trkpt>
      <trkpt lat="46.06601" lon="6.67282">
        <ele>1069</ele>
        <time>2019-06-11T11:58:38Z</time>
      </trkpt>
      <trkpt lat="46.06607" lon="6.67271">
        <ele>1069</ele>
        <time>2019-06-11T11:58:39Z</time>
      </trkpt>
      <trkpt lat="46.0663" lon="6.67253">
        <ele>1067</ele>
        <time>2019-06-11T11:58:44Z</time>
      </trkpt>
      <trkpt lat="46.06648" lon="6.67225">
        <ele>1066</ele>
        <time>2019-06-11T11:58:49Z</time>
      </trkpt>
      <trkpt lat="46.06657" lon="6.67198">
        <ele>1066</ele>
        <time>2019-06-11T11:58:53Z</time>
      </trkpt>
      <trkpt lat="46.06659" lon="6.67169">
        <ele>1067</ele>
        <time>2019-06-11T11:58:56Z</time>
      </trkpt>
      <trkpt lat="46.06656" lon="6.67129">
        <ele>1067</ele>
        <time>2019-06-11T11:59:01Z</time>
      </trkpt>
      <trkpt lat="46.06657" lon="6.67087">
        <ele>1065</ele>
        <time>2019-06-11T11:59:06Z</time>
      </trkpt>
      <trkpt lat="46.06671" lon="6.67042">
        <ele>1064</ele>
        <time>2019-06-11T11:59:12Z</time>
      </trkpt>
      <trkpt lat="46.0669" lon="6.66997">
        <ele>1063</ele>
        <time>2019-06-11T11:59:19Z</time>
      </trkpt>
      <trkpt lat="46.06698" lon="6.66973">
        <ele>1066</ele>
        <time>2019-06-11T11:59:22Z</time>
      </trkpt>
      <trkpt lat="46.06704" lon="6.66966">
        <ele>1066</ele>
        <time>2019-06-11T11:59:24Z</time>
      </trkpt>
      <trkpt lat="46.06712" lon="6.66961">
        <ele>1067</ele>
        <time>2019-06-11T11:59:25Z</time>
      </trkpt>
      <trkpt lat="46.06723" lon="6.66964">
        <ele>1065</ele>
        <time>2019-06-11T11:59:27Z</time>
      </trkpt>
      <trkpt lat="46.06781" lon="6.67006">
        <ele>1055</ele>
        <time>2019-06-11T11:59:39Z</time>
      </trkpt>
      <trkpt lat="46.06807" lon="6.67027">
        <ele>1053</ele>
        <time>2019-06-11T11:59:44Z</time>
      </trkpt>
      <trkpt lat="46.06889" lon="6.67102">
        <ele>1041</ele>
        <time>2019-06-11T12:00:01Z</time>
      </trkpt>
      <trkpt lat="46.06909" lon="6.67112">
        <ele>1039</ele>
        <time>2019-06-11T12:00:05Z</time>
      </trkpt>
      <trkpt lat="46.06928" lon="6.67119">
        <ele>1036</ele>
        <time>2019-06-11T12:00:08Z</time>
      </trkpt>
      <trkpt lat="46.06944" lon="6.67117">
        <ele>1034</ele>
        <time>2019-06-11T12:00:11Z</time>
      </trkpt>
      <trkpt lat="46.06955" lon="6.67113">
        <ele>1033</ele>
        <time>2019-06-11T12:00:13Z</time>
      </trkpt>
      <trkpt lat="46.07018" lon="6.67063">
        <ele>1034</ele>
        <time>2019-06-11T12:00:26Z</time>
      </trkpt>
      <trkpt lat="46.07056" lon="6.67012">
        <ele>1035</ele>
        <time>2019-06-11T12:00:35Z</time>
      </trkpt>
      <trkpt lat="46.07063" lon="6.67012">
        <ele>1032</ele>
        <time>2019-06-11T12:00:37Z</time>
      </trkpt>
      <trkpt lat="46.07071" lon="6.67017">
        <ele>1028</ele>
        <time>2019-06-11T12:00:38Z</time>
      </trkpt>
      <trkpt lat="46.07075" lon="6.6703">
        <ele>1025</ele>
        <time>2019-06-11T12:00:40Z</time>
      </trkpt>
      <trkpt lat="46.07071" lon="6.67043">
        <ele>1024</ele>
        <time>2019-06-11T12:00:42Z</time>
      </trkpt>
      <trkpt lat="46.07049" lon="6.67101">
        <ele>1018</ele>
        <time>2019-06-11T12:00:50Z</time>
      </trkpt>
      <trkpt lat="46.07044" lon="6.67121">
        <ele>1016</ele>
        <time>2019-06-11T12:00:52Z</time>
      </trkpt>
      <trkpt lat="46.07043" lon="6.67159">
        <ele>1010</ele>
        <time>2019-06-11T12:00:57Z</time>
      </trkpt>
      <trkpt lat="46.07057" lon="6.6723">
        <ele>1007</ele>
        <time>2019-06-11T12:01:06Z</time>
      </trkpt>
      <trkpt lat="46.0706" lon="6.67235">
        <ele>1006</ele>
        <time>2019-06-11T12:01:07Z</time>
      </trkpt>
      <trkpt lat="46.07068" lon="6.67241">
        <ele>1005</ele>
        <time>2019-06-11T12:01:09Z</time>
      </trkpt>
      <trkpt lat="46.07075" lon="6.6724">
        <ele>1005</ele>
        <time>2019-06-11T12:01:10Z</time>
      </trkpt>
      <trkpt lat="46.07081" lon="6.67235">
        <ele>1004</ele>
        <time>2019-06-11T12:01:11Z</time>
      </trkpt>
      <trkpt lat="46.07084" lon="6.67226">
        <ele>1003</ele>
        <time>2019-06-11T12:01:12Z</time>
      </trkpt>
      <trkpt lat="46.07086" lon="6.67203">
        <ele>1002</ele>
        <time>2019-06-11T12:01:15Z</time>
      </trkpt>
      <trkpt lat="46.07094" lon="6.67159">
        <ele>1001</ele>
        <time>2019-06-11T12:01:21Z</time>
      </trkpt>
      <trkpt lat="46.07104" lon="6.67141">
        <ele>1001</ele>
        <time>2019-06-11T12:01:24Z</time>
      </trkpt>
      <trkpt lat="46.07134" lon="6.67114">
        <ele>996</ele>
        <time>2019-06-11T12:01:30Z</time>
      </trkpt>
      <trkpt lat="46.07145" lon="6.67097">
        <ele>995</ele>
        <time>2019-06-11T12:01:33Z</time>
      </trkpt>
      <trkpt lat="46.07206" lon="6.66976">
        <ele>992</ele>
        <time>2019-06-11T12:01:51Z</time>
      </trkpt>
      <trkpt lat="46.07215" lon="6.66961">
        <ele>991</ele>
        <time>2019-06-11T12:01:54Z</time>
      </trkpt>
      <trkpt lat="46.07228" lon="6.66957">
        <ele>988</ele>
        <time>2019-06-11T12:01:56Z</time>
      </trkpt>
      <trkpt lat="46.07237" lon="6.66959">
        <ele>986</ele>
        <time>2019-06-11T12:01:58Z</time>
      </trkpt>
      <trkpt lat="46.07245" lon="6.66978">
        <ele>982</ele>
        <time>2019-06-11T12:02:01Z</time>
      </trkpt>
      <trkpt lat="46.0725" lon="6.67009">
        <ele>977</ele>
        <time>2019-06-11T12:02:04Z</time>
      </trkpt>
      <trkpt lat="46.0725" lon="6.67045">
        <ele>973</ele>
        <time>2019-06-11T12:02:09Z</time>
      </trkpt>
      <trkpt lat="46.07234" lon="6.67106">
        <ele>971</ele>
        <time>2019-06-11T12:02:17Z</time>
      </trkpt>
      <trkpt lat="46.07248" lon="6.67116">
        <ele>967</ele>
        <time>2019-06-11T12:02:20Z</time>
      </trkpt>
      <trkpt lat="46.07266" lon="6.67104">
        <ele>963</ele>
        <time>2019-06-11T12:02:23Z</time>
      </trkpt>
      <trkpt lat="46.07288" lon="6.67065">
        <ele>962</ele>
        <time>2019-06-11T12:02:30Z</time>
      </trkpt>
      <trkpt lat="46.07306" lon="6.67009">
        <ele>964</ele>
        <time>2019-06-11T12:02:37Z</time>
      </trkpt>
      <trkpt lat="46.07307" lon="6.66869">
        <ele>966</ele>
        <time>2019-06-11T12:02:54Z</time>
      </trkpt>
      <trkpt lat="46.07329" lon="6.66815">
        <ele>957</ele>
        <time>2019-06-11T12:03:02Z</time>
      </trkpt>
      <trkpt lat="46.07333" lon="6.66782">
        <ele>956</ele>
        <time>2019-06-11T12:03:06Z</time>
      </trkpt>
      <trkpt lat="46.07325" lon="6.66745">
        <ele>961</ele>
        <time>2019-06-11T12:03:11Z</time>
      </trkpt>
      <trkpt lat="46.07328" lon="6.66721">
        <ele>963</ele>
        <time>2019-06-11T12:03:14Z</time>
      </trkpt>
      <trkpt lat="46.07342" lon="6.66707">
        <ele>961</ele>
        <time>2019-06-11T12:03:17Z</time>
      </trkpt>
      <trkpt lat="46.07366" lon="6.6671">
        <ele>952</ele>
        <time>2019-06-11T12:03:21Z</time>
      </trkpt>
      <trkpt lat="46.07379" lon="6.66708">
        <ele>947</ele>
        <time>2019-06-11T12:03:24Z</time>
      </trkpt>
      <trkpt lat="46.07409" lon="6.6666">
        <ele>941</ele>
        <time>2019-06-11T12:03:32Z</time>
      </trkpt>
      <trkpt lat="46.07443" lon="6.66596">
        <ele>936</ele>
        <time>2019-06-11T12:03:42Z</time>
      </trkpt>
      <trkpt lat="46.07451" lon="6.66555">
        <ele>935</ele>
        <time>2019-06-11T12:03:47Z</time>
      </trkpt>
      <trkpt lat="46.0745" lon="6.66485">
        <ele>938</ele>
        <time>2019-06-11T12:03:56Z</time>
      </trkpt>
      <trkpt lat="46.07456" lon="6.66458">
        <ele>938</ele>
        <time>2019-06-11T12:03:59Z</time>
      </trkpt>
      <trkpt lat="46.07472" lon="6.66453">
        <ele>934</ele>
        <time>2019-06-11T12:04:02Z</time>
      </trkpt>
      <trkpt lat="46.07482" lon="6.66468">
        <ele>929</ele>
        <time>2019-06-11T12:04:05Z</time>
      </trkpt>
      <trkpt lat="46.07487" lon="6.66488">
        <ele>925</ele>
        <time>2019-06-11T12:04:07Z</time>
      </trkpt>
      <trkpt lat="46.07484" lon="6.66531">
        <ele>923</ele>
        <time>2019-06-11T12:04:12Z</time>
      </trkpt>
      <trkpt lat="46.07485" lon="6.66596">
        <ele>919</ele>
        <time>2019-06-11T12:04:20Z</time>
      </trkpt>
      <trkpt lat="46.07479" lon="6.6665">
        <ele>915</ele>
        <time>2019-06-11T12:04:27Z</time>
      </trkpt>
      <trkpt lat="46.07467" lon="6.66686">
        <ele>917</ele>
        <time>2019-06-11T12:04:32Z</time>
      </trkpt>
      <trkpt lat="46.07451" lon="6.66716">
        <ele>921</ele>
        <time>2019-06-11T12:04:37Z</time>
      </trkpt>
      <trkpt lat="46.07448" lon="6.66743">
        <ele>920</ele>
        <time>2019-06-11T12:04:40Z</time>
      </trkpt>
      <trkpt lat="46.07458" lon="6.66795">
        <ele>917</ele>
        <time>2019-06-11T12:04:47Z</time>
      </trkpt>
      <trkpt lat="46.07476" lon="6.66835">
        <ele>913</ele>
        <time>2019-06-11T12:04:53Z</time>
      </trkpt>
      <trkpt lat="46.0751" lon="6.66881">
        <ele>902</ele>
        <time>2019-06-11T12:05:01Z</time>
      </trkpt>
      <trkpt lat="46.07528" lon="6.66921">
        <ele>897</ele>
        <time>2019-06-11T12:05:07Z</time>
      </trkpt>
      <trkpt lat="46.07537" lon="6.66931">
        <ele>895</ele>
        <time>2019-06-11T12:05:09Z</time>
      </trkpt>
      <trkpt lat="46.07543" lon="6.66923">
        <ele>894</ele>
        <time>2019-06-11T12:05:10Z</time>
      </trkpt>
      <trkpt lat="46.07539" lon="6.669">
        <ele>895</ele>
        <time>2019-06-11T12:05:13Z</time>
      </trkpt>
      <trkpt lat="46.07539" lon="6.66883">
        <ele>896</ele>
        <time>2019-06-11T12:05:15Z</time>
      </trkpt>
      <trkpt lat="46.07548" lon="6.66869">
        <ele>894</ele>
        <time>2019-06-11T12:05:18Z</time>
      </trkpt>
      <trkpt lat="46.07557" lon="6.66865">
        <ele>892</ele>
        <time>2019-06-11T12:05:19Z</time>
      </trkpt>
      <trkpt lat="46.07571" lon="6.66869">
        <ele>889</ele>
        <time>2019-06-11T12:05:22Z</time>
      </trkpt>
      <trkpt lat="46.07644" lon="6.66924">
        <ele>878</ele>
        <time>2019-06-11T12:05:37Z</time>
      </trkpt>
      <trkpt lat="46.07778" lon="6.66979">
        <ele>858</ele>
        <time>2019-06-11T12:06:01Z</time>
      </trkpt>
      <trkpt lat="46.07792" lon="6.6699">
        <ele>856</ele>
        <time>2019-06-11T12:06:04Z</time>
      </trkpt>
      <trkpt lat="46.07795" lon="6.67008">
        <ele>855</ele>
        <time>2019-06-11T12:06:07Z</time>
      </trkpt>
      <trkpt lat="46.07794" lon="6.67043">
        <ele>854</ele>
        <time>2019-06-11T12:06:11Z</time>
      </trkpt>
      <trkpt lat="46.07806" lon="6.67053">
        <ele>851</ele>
        <time>2019-06-11T12:06:13Z</time>
      </trkpt>
      <trkpt lat="46.0782" lon="6.67043">
        <ele>849</ele>
        <time>2019-06-11T12:06:16Z</time>
      </trkpt>
      <trkpt lat="46.07831" lon="6.6698">
        <ele>850</ele>
        <time>2019-06-11T12:06:24Z</time>
      </trkpt>
      <trkpt lat="46.07832" lon="6.66947">
        <ele>850</ele>
        <time>2019-06-11T12:06:28Z</time>
      </trkpt>
      <trkpt lat="46.0784" lon="6.66926">
        <ele>848</ele>
        <time>2019-06-11T12:06:31Z</time>
      </trkpt>
      <trkpt lat="46.07862" lon="6.66891">
        <ele>845</ele>
        <time>2019-06-11T12:06:37Z</time>
      </trkpt>
      <trkpt lat="46.07869" lon="6.66858">
        <ele>845</ele>
        <time>2019-06-11T12:06:41Z</time>
      </trkpt>
      <trkpt lat="46.07872" lon="6.66804">
        <ele>846</ele>
        <time>2019-06-11T12:06:48Z</time>
      </trkpt>
      <trkpt lat="46.0788" lon="6.66774">
        <ele>845</ele>
        <time>2019-06-11T12:06:52Z</time>
      </trkpt>
      <trkpt lat="46.07893" lon="6.66767">
        <ele>844</ele>
        <time>2019-06-11T12:06:54Z</time>
      </trkpt>
      <trkpt lat="46.07905" lon="6.66788">
        <ele>842</ele>
        <time>2019-06-11T12:06:58Z</time>
      </trkpt>
      <trkpt lat="46.0791" lon="6.66805">
        <ele>840</ele>
        <time>2019-06-11T12:07:00Z</time>
      </trkpt>
      <trkpt lat="46.0791" lon="6.66857">
        <ele>837</ele>
        <time>2019-06-11T12:07:06Z</time>
      </trkpt>
      <trkpt lat="46.07903" lon="6.66962">
        <ele>833</ele>
        <time>2019-06-11T12:07:19Z</time>
      </trkpt>
      <trkpt lat="46.07905" lon="6.66988">
        <ele>832</ele>
        <time>2019-06-11T12:07:23Z</time>
      </trkpt>
      <trkpt lat="46.07916" lon="6.67034">
        <ele>827</ele>
        <time>2019-06-11T12:07:29Z</time>
      </trkpt>
      <trkpt lat="46.07919" lon="6.67066">
        <ele>824</ele>
        <time>2019-06-11T12:07:33Z</time>
      </trkpt>
      <trkpt lat="46.07917" lon="6.67105">
        <ele>820</ele>
        <time>2019-06-11T12:07:38Z</time>
      </trkpt>
      <trkpt lat="46.07893" lon="6.6723">
        <ele>815</ele>
        <time>2019-06-11T12:07:54Z</time>
      </trkpt>
      <trkpt lat="46.07877" lon="6.67282">
        <ele>816</ele>
        <time>2019-06-11T12:08:01Z</time>
      </trkpt>
      <trkpt lat="46.07881" lon="6.67305">
        <ele>813</ele>
        <time>2019-06-11T12:08:03Z</time>
      </trkpt>
      <trkpt lat="46.07893" lon="6.67304">
        <ele>809</ele>
        <time>2019-06-11T12:08:06Z</time>
      </trkpt>
      <trkpt lat="46.0791" lon="6.67283">
        <ele>806</ele>
        <time>2019-06-11T12:08:10Z</time>
      </trkpt>
      <trkpt lat="46.07952" lon="6.67207">
        <ele>801</ele>
        <time>2019-06-11T12:08:22Z</time>
      </trkpt>
      <trkpt lat="46.07982" lon="6.67151">
        <ele>799</ele>
        <time>2019-06-11T12:08:30Z</time>
      </trkpt>
      <trkpt lat="46.08002" lon="6.67083">
        <ele>798</ele>
        <time>2019-06-11T12:08:39Z</time>
      </trkpt>
      <trkpt lat="46.08038" lon="6.66993">
        <ele>793</ele>
        <time>2019-06-11T12:08:52Z</time>
      </trkpt>
      <trkpt lat="46.08075" lon="6.6693">
        <ele>784</ele>
        <time>2019-06-11T12:09:02Z</time>
      </trkpt>
      <trkpt lat="46.08123" lon="6.66874">
        <ele>781</ele>
        <time>2019-06-11T12:09:13Z</time>
      </trkpt>
      <trkpt lat="46.08146" lon="6.66813">
        <ele>782</ele>
        <time>2019-06-11T12:09:22Z</time>
      </trkpt>
      <trkpt lat="46.08156" lon="6.66804">
        <ele>779</ele>
        <time>2019-06-11T12:09:24Z</time>
      </trkpt>
      <trkpt lat="46.08168" lon="6.6681">
        <ele>775</ele>
        <time>2019-06-11T12:09:26Z</time>
      </trkpt>
      <trkpt lat="46.08174" lon="6.66825">
        <ele>774</ele>
        <time>2019-06-11T12:09:29Z</time>
      </trkpt>
      <trkpt lat="46.08172" lon="6.66849">
        <ele>773</ele>
        <time>2019-06-11T12:09:32Z</time>
      </trkpt>
      <trkpt lat="46.08166" lon="6.66876">
        <ele>771</ele>
        <time>2019-06-11T12:09:35Z</time>
      </trkpt>
      <trkpt lat="46.08161" lon="6.66924">
        <ele>767</ele>
        <time>2019-06-11T12:09:41Z</time>
      </trkpt>
      <trkpt lat="46.08176" lon="6.67047">
        <ele>762</ele>
        <time>2019-06-11T12:09:56Z</time>
      </trkpt>
      <trkpt lat="46.08176" lon="6.671">
        <ele>757</ele>
        <time>2019-06-11T12:10:03Z</time>
      </trkpt>
      <trkpt lat="46.08166" lon="6.67157">
        <ele>751</ele>
        <time>2019-06-11T12:10:10Z</time>
      </trkpt>
      <trkpt lat="46.08153" lon="6.67188">
        <ele>750</ele>
        <time>2019-06-11T12:10:15Z</time>
      </trkpt>
      <trkpt lat="46.08124" lon="6.67245">
        <ele>750</ele>
        <time>2019-06-11T12:10:23Z</time>
      </trkpt>
      <trkpt lat="46.08102" lon="6.67306">
        <ele>744</ele>
        <time>2019-06-11T12:10:32Z</time>
      </trkpt>
      <trkpt lat="46.08077" lon="6.67335">
        <ele>746</ele>
        <time>2019-06-11T12:10:38Z</time>
      </trkpt>
      <trkpt lat="46.08066" lon="6.67356">
        <ele>746</ele>
        <time>2019-06-11T12:10:41Z</time>
      </trkpt>
      <trkpt lat="46.08065" lon="6.67376">
        <ele>743</ele>
        <time>2019-06-11T12:10:43Z</time>
      </trkpt>
      <trkpt lat="46.08074" lon="6.67384">
        <ele>739</ele>
        <time>2019-06-11T12:10:45Z</time>
      </trkpt>
      <trkpt lat="46.08089" lon="6.67372">
        <ele>737</ele>
        <time>2019-06-11T12:10:48Z</time>
      </trkpt>
      <trkpt lat="46.08159" lon="6.67277">
        <ele>732</ele>
        <time>2019-06-11T12:11:05Z</time>
      </trkpt>
      <trkpt lat="46.08191" lon="6.67247">
        <ele>730</ele>
        <time>2019-06-11T12:11:12Z</time>
      </trkpt>
      <trkpt lat="46.08304" lon="6.67208">
        <ele>721</ele>
        <time>2019-06-11T12:11:33Z</time>
      </trkpt>
      <trkpt lat="46.08321" lon="6.67205">
        <ele>721</ele>
        <time>2019-06-11T12:11:36Z</time>
      </trkpt>
      <trkpt lat="46.08337" lon="6.67211">
        <ele>718</ele>
        <time>2019-06-11T12:11:39Z</time>
      </trkpt>
      <trkpt lat="46.08353" lon="6.67231">
        <ele>711</ele>
        <time>2019-06-11T12:11:43Z</time>
      </trkpt>
      <trkpt lat="46.0836" lon="6.67264">
        <ele>705</ele>
        <time>2019-06-11T12:11:47Z</time>
      </trkpt>
      <trkpt lat="46.08359" lon="6.67297">
        <ele>701</ele>
        <time>2019-06-11T12:11:51Z</time>
      </trkpt>
      <trkpt lat="46.08351" lon="6.67324">
        <ele>700</ele>
        <time>2019-06-11T12:11:55Z</time>
      </trkpt>
      <trkpt lat="46.08288" lon="6.67428">
        <ele>696</ele>
        <time>2019-06-11T12:12:12Z</time>
      </trkpt>
      <trkpt lat="46.08282" lon="6.67442">
        <ele>696</ele>
        <time>2019-06-11T12:12:14Z</time>
      </trkpt>
      <trkpt lat="46.08282" lon="6.67456">
        <ele>695</ele>
        <time>2019-06-11T12:12:15Z</time>
      </trkpt>
      <trkpt lat="46.08297" lon="6.67468">
        <ele>693</ele>
        <time>2019-06-11T12:12:18Z</time>
      </trkpt>
      <trkpt lat="46.08319" lon="6.67481">
        <ele>691</ele>
        <time>2019-06-11T12:12:23Z</time>
      </trkpt>
      <trkpt lat="46.08369" lon="6.67513">
        <ele>688</ele>
        <time>2019-06-11T12:12:32Z</time>
      </trkpt>
      <trkpt lat="46.08397" lon="6.67534">
        <ele>687</ele>
        <time>2019-06-11T12:12:38Z</time>
      </trkpt>
      <trkpt lat="46.08407" lon="6.67501">
        <ele>686</ele>
        <time>2019-06-11T12:12:42Z</time>
      </trkpt>
      <trkpt lat="46.08425" lon="6.67434">
        <ele>681</ele>
        <time>2019-06-11T12:12:51Z</time>
      </trkpt>
      <trkpt lat="46.0843" lon="6.67372">
        <ele>678</ele>
        <time>2019-06-11T12:12:59Z</time>
      </trkpt>
      <trkpt lat="46.08435" lon="6.67353">
        <ele>678</ele>
        <time>2019-06-11T12:13:01Z</time>
      </trkpt>
      <trkpt lat="46.08455" lon="6.67311">
        <ele>676</ele>
        <time>2019-06-11T12:13:08Z</time>
      </trkpt>
      <trkpt lat="46.08463" lon="6.67284">
        <ele>676</ele>
        <time>2019-06-11T12:13:11Z</time>
      </trkpt>
      <trkpt lat="46.08474" lon="6.67243">
        <ele>675</ele>
        <time>2019-06-11T12:13:17Z</time>
      </trkpt>
      <trkpt lat="46.08481" lon="6.672">
        <ele>675</ele>
        <time>2019-06-11T12:13:22Z</time>
      </trkpt>
      <trkpt lat="46.08487" lon="6.67179">
        <ele>674</ele>
        <time>2019-06-11T12:13:25Z</time>
      </trkpt>
      <trkpt lat="46.08493" lon="6.67165">
        <ele>672</ele>
        <time>2019-06-11T12:13:27Z</time>
      </trkpt>
      <trkpt lat="46.08538" lon="6.67092">
        <ele>672</ele>
        <time>2019-06-11T12:13:39Z</time>
      </trkpt>
      <trkpt lat="46.08548" lon="6.67065">
        <ele>671</ele>
        <time>2019-06-11T12:13:43Z</time>
      </trkpt>
      <trkpt lat="46.08567" lon="6.67023">
        <ele>670</ele>
        <time>2019-06-11T12:13:49Z</time>
      </trkpt>
      <trkpt lat="46.08642" lon="6.66889">
        <ele>669</ele>
        <time>2019-06-11T12:14:10Z</time>
      </trkpt>
      <trkpt lat="46.08662" lon="6.66833">
        <ele>667</ele>
        <time>2019-06-11T12:14:18Z</time>
      </trkpt>
      <trkpt lat="46.08665" lon="6.66834">
        <ele>666</ele>
        <time>2019-06-11T12:14:19Z</time>
      </trkpt>
      <trkpt lat="46.08672" lon="6.66828">
        <ele>666</ele>
        <time>2019-06-11T12:14:20Z</time>
      </trkpt>
      <trkpt lat="46.08674" lon="6.66821">
        <ele>667</ele>
        <time>2019-06-11T12:14:21Z</time>
      </trkpt>
      <trkpt lat="46.08671" lon="6.6681">
        <ele>667</ele>
        <time>2019-06-11T12:14:23Z</time>
      </trkpt>
      <trkpt lat="46.08668" lon="6.66808">
        <ele>667</ele>
        <time>2019-06-11T12:14:23Z</time>
      </trkpt>
      <trkpt lat="46.08712" lon="6.66623">
        <ele>672</ele>
        <time>2019-06-11T12:14:47Z</time>
      </trkpt>
      <trkpt lat="46.08743" lon="6.66508">
        <ele>664</ele>
        <time>2019-06-11T12:15:02Z</time>
      </trkpt>
      <trkpt lat="46.08942" lon="6.66034">
        <ele>655</ele>
        <time>2019-06-11T12:16:11Z</time>
      </trkpt>
      <trkpt lat="46.0898" lon="6.65941">
        <ele>655</ele>
        <time>2019-06-11T12:16:24Z</time>
      </trkpt>
      <trkpt lat="46.09035" lon="6.65707">
        <ele>655</ele>
        <time>2019-06-11T12:16:55Z</time>
      </trkpt>
      <trkpt lat="46.0905" lon="6.65668">
        <ele>654</ele>
        <time>2019-06-11T12:17:00Z</time>
      </trkpt>
      <trkpt lat="46.0909" lon="6.65587">
        <ele>653</ele>
        <time>2019-06-11T12:17:12Z</time>
      </trkpt>
      <trkpt lat="46.09108" lon="6.65543">
        <ele>651</ele>
        <time>2019-06-11T12:17:19Z</time>
      </trkpt>
      <trkpt lat="46.09119" lon="6.65499">
        <ele>650</ele>
        <time>2019-06-11T12:17:25Z</time>
      </trkpt>
      <trkpt lat="46.09231" lon="6.64951">
        <ele>652</ele>
        <time>2019-06-11T12:18:35Z</time>
      </trkpt>
      <trkpt lat="46.09272" lon="6.64767">
        <ele>648</ele>
        <time>2019-06-11T12:18:59Z</time>
      </trkpt>
      <trkpt lat="46.09282" lon="6.64717">
        <ele>647</ele>
        <time>2019-06-11T12:19:05Z</time>
      </trkpt>
      <trkpt lat="46.09301" lon="6.64645">
        <ele>647</ele>
        <time>2019-06-11T12:19:15Z</time>
      </trkpt>
      <trkpt lat="46.09307" lon="6.64613">
        <ele>648</ele>
        <time>2019-06-11T12:19:19Z</time>
      </trkpt>
      <trkpt lat="46.09309" lon="6.64579">
        <ele>648</ele>
        <time>2019-06-11T12:19:23Z</time>
      </trkpt>
      <trkpt lat="46.09324" lon="6.64057">
        <ele>644</ele>
        <time>2019-06-11T12:20:28Z</time>
      </trkpt>
      <trkpt lat="46.09319" lon="6.63925">
        <ele>649</ele>
        <time>2019-06-11T12:20:44Z</time>
      </trkpt>
      <trkpt lat="46.09321" lon="6.63883">
        <ele>649</ele>
        <time>2019-06-11T12:20:49Z</time>
      </trkpt>
      <trkpt lat="46.09331" lon="6.6383">
        <ele>647</ele>
        <time>2019-06-11T12:20:56Z</time>
      </trkpt>
      <trkpt lat="46.09369" lon="6.63696">
        <ele>653</ele>
        <time>2019-06-11T12:21:14Z</time>
      </trkpt>
      <trkpt lat="46.09383" lon="6.63631">
        <ele>653</ele>
        <time>2019-06-11T12:21:22Z</time>
      </trkpt>
      <trkpt lat="46.09408" lon="6.63446">
        <ele>648</ele>
        <time>2019-06-11T12:21:45Z</time>
      </trkpt>
      <trkpt lat="46.09429" lon="6.63372">
        <ele>646</ele>
        <time>2019-06-11T12:21:55Z</time>
      </trkpt>
      <trkpt lat="46.09482" lon="6.63242">
        <ele>644</ele>
        <time>2019-06-11T12:22:14Z</time>
      </trkpt>
      <trkpt lat="46.09506" lon="6.63165">
        <ele>641</ele>
        <time>2019-06-11T12:22:24Z</time>
      </trkpt>
      <trkpt lat="46.09514" lon="6.63128">
        <ele>640</ele>
        <time>2019-06-11T12:22:29Z</time>
      </trkpt>
      <trkpt lat="46.09519" lon="6.63091">
        <ele>639</ele>
        <time>2019-06-11T12:22:34Z</time>
      </trkpt>
      <trkpt lat="46.0953" lon="6.62996">
        <ele>640</ele>
        <time>2019-06-11T12:22:46Z</time>
      </trkpt>
      <trkpt lat="46.09565" lon="6.62704">
        <ele>641</ele>
        <time>2019-06-11T12:23:22Z</time>
      </trkpt>
      <trkpt lat="46.09566" lon="6.62633">
        <ele>639</ele>
        <time>2019-06-11T12:23:31Z</time>
      </trkpt>
      <trkpt lat="46.09562" lon="6.6219">
        <ele>645</ele>
        <time>2019-06-11T12:24:26Z</time>
      </trkpt>
      <trkpt lat="46.09569" lon="6.62105">
        <ele>643</ele>
        <time>2019-06-11T12:24:36Z</time>
      </trkpt>
      <trkpt lat="46.09588" lon="6.61973">
        <ele>643</ele>
        <time>2019-06-11T12:24:53Z</time>
      </trkpt>
      <trkpt lat="46.09593" lon="6.61927">
        <ele>643</ele>
        <time>2019-06-11T12:24:58Z</time>
      </trkpt>
      <trkpt lat="46.09598" lon="6.61847">
        <ele>645</ele>
        <time>2019-06-11T12:25:08Z</time>
      </trkpt>
      <trkpt lat="46.09577" lon="6.61764">
        <ele>651</ele>
        <time>2019-06-11T12:25:19Z</time>
      </trkpt>
      <trkpt lat="46.09577" lon="6.61706">
        <ele>657</ele>
        <time>2019-06-11T12:25:26Z</time>
      </trkpt>
      <trkpt lat="46.09629" lon="6.61556">
        <ele>653</ele>
        <time>2019-06-11T12:25:47Z</time>
      </trkpt>
      <trkpt lat="46.0967" lon="6.61383">
        <ele>654</ele>
        <time>2019-06-11T12:26:10Z</time>
      </trkpt>
      <trkpt lat="46.09678" lon="6.61308">
        <ele>656</ele>
        <time>2019-06-11T12:26:19Z</time>
      </trkpt>
      <trkpt lat="46.09665" lon="6.61213">
        <ele>658</ele>
        <time>2019-06-11T12:26:31Z</time>
      </trkpt>
      <trkpt lat="46.09592" lon="6.6107">
        <ele>666</ele>
        <time>2019-06-11T12:26:53Z</time>
      </trkpt>
      <trkpt lat="46.0957" lon="6.61006">
        <ele>667</ele>
        <time>2019-06-11T12:27:02Z</time>
      </trkpt>
      <trkpt lat="46.09563" lon="6.60963">
        <ele>667</ele>
        <time>2019-06-11T12:27:07Z</time>
      </trkpt>
      <trkpt lat="46.09556" lon="6.60833">
        <ele>669</ele>
        <time>2019-06-11T12:27:23Z</time>
      </trkpt>
      <trkpt lat="46.09557" lon="6.60782">
        <ele>670</ele>
        <time>2019-06-11T12:27:30Z</time>
      </trkpt>
      <trkpt lat="46.09601" lon="6.60691">
        <ele>664</ele>
        <time>2019-06-11T12:27:43Z</time>
      </trkpt>
      <trkpt lat="46.09612" lon="6.60649">
        <ele>663</ele>
        <time>2019-06-11T12:27:49Z</time>
      </trkpt>
      <trkpt lat="46.0962" lon="6.60595">
        <ele>662</ele>
        <time>2019-06-11T12:27:56Z</time>
      </trkpt>
      <trkpt lat="46.09618" lon="6.60559">
        <ele>663</ele>
        <time>2019-06-11T12:28:00Z</time>
      </trkpt>
      <trkpt lat="46.09603" lon="6.60505">
        <ele>667</ele>
        <time>2019-06-11T12:28:07Z</time>
      </trkpt>
      <trkpt lat="46.09604" lon="6.60467">
        <ele>668</ele>
        <time>2019-06-11T12:28:12Z</time>
      </trkpt>
      <trkpt lat="46.09622" lon="6.60368">
        <ele>668</ele>
        <time>2019-06-11T12:28:25Z</time>
      </trkpt>
      <trkpt lat="46.09616" lon="6.6025">
        <ele>668</ele>
        <time>2019-06-11T12:28:39Z</time>
      </trkpt>
      <trkpt lat="46.09627" lon="6.6008">
        <ele>671</ele>
        <time>2019-06-11T12:29:00Z</time>
      </trkpt>
      <trkpt lat="46.09625" lon="6.60029">
        <ele>671</ele>
        <time>2019-06-11T12:29:07Z</time>
      </trkpt>
      <trkpt lat="46.09613" lon="6.59912">
        <ele>675</ele>
        <time>2019-06-11T12:29:21Z</time>
      </trkpt>
      <trkpt lat="46.09613" lon="6.59897">
        <ele>674</ele>
        <time>2019-06-11T12:29:23Z</time>
      </trkpt>
      <trkpt lat="46.09611" lon="6.59898">
        <ele>675</ele>
        <time>2019-06-11T12:29:23Z</time>
      </trkpt>
      <trkpt lat="46.09616" lon="6.59895">
        <ele>673</ele>
        <time>2019-06-11T12:29:24Z</time>
      </trkpt>
      <trkpt lat="46.09623" lon="6.59886">
        <ele>670</ele>
        <time>2019-06-11T12:29:26Z</time>
      </trkpt>
      <trkpt lat="46.09627" lon="6.59872">
        <ele>668</ele>
        <time>2019-06-11T12:29:28Z</time>
      </trkpt>
      <trkpt lat="46.09642" lon="6.59787">
        <ele>660</ele>
        <time>2019-06-11T12:29:39Z</time>
      </trkpt>
      <trkpt lat="46.09646" lon="6.5975">
        <ele>658</ele>
        <time>2019-06-11T12:29:43Z</time>
      </trkpt>
      <trkpt lat="46.09644" lon="6.59721">
        <ele>656</ele>
        <time>2019-06-11T12:29:47Z</time>
      </trkpt>
      <trkpt lat="46.09627" lon="6.59648">
        <ele>657</ele>
        <time>2019-06-11T12:29:56Z</time>
      </trkpt>
      <trkpt lat="46.09625" lon="6.5962">
        <ele>657</ele>
        <time>2019-06-11T12:30:00Z</time>
      </trkpt>
      <trkpt lat="46.09627" lon="6.59583">
        <ele>655</ele>
        <time>2019-06-11T12:30:04Z</time>
      </trkpt>
      <trkpt lat="46.09638" lon="6.5949">
        <ele>651</ele>
        <time>2019-06-11T12:30:16Z</time>
      </trkpt>
      <trkpt lat="46.09642" lon="6.59431">
        <ele>648</ele>
        <time>2019-06-11T12:30:23Z</time>
      </trkpt>
      <trkpt lat="46.09643" lon="6.59257">
        <ele>642</ele>
        <time>2019-06-11T12:30:45Z</time>
      </trkpt>
      <trkpt lat="46.09645" lon="6.59234">
        <ele>641</ele>
        <time>2019-06-11T12:30:48Z</time>
      </trkpt>
      <trkpt lat="46.09666" lon="6.5914">
        <ele>636</ele>
        <time>2019-06-11T12:31:00Z</time>
      </trkpt>
      <trkpt lat="46.09668" lon="6.59108">
        <ele>636</ele>
        <time>2019-06-11T12:31:04Z</time>
      </trkpt>
      <trkpt lat="46.09662" lon="6.59035">
        <ele>635</ele>
        <time>2019-06-11T12:31:13Z</time>
      </trkpt>
      <trkpt lat="46.09664" lon="6.59021">
        <ele>634</ele>
        <time>2019-06-11T12:31:15Z</time>
      </trkpt>
      <trkpt lat="46.09668" lon="6.59007">
        <ele>633</ele>
        <time>2019-06-11T12:31:17Z</time>
      </trkpt>
      <trkpt lat="46.09675" lon="6.58997">
        <ele>632</ele>
        <time>2019-06-11T12:31:18Z</time>
      </trkpt>
      <trkpt lat="46.09686" lon="6.58987">
        <ele>630</ele>
        <time>2019-06-11T12:31:21Z</time>
      </trkpt>
      <trkpt lat="46.09693" lon="6.58985">
        <ele>629</ele>
        <time>2019-06-11T12:31:22Z</time>
      </trkpt>
      <trkpt lat="46.09877" lon="6.59004">
        <ele>623</ele>
        <time>2019-06-11T12:31:55Z</time>
      </trkpt>
      <trkpt lat="46.10377" lon="6.59062">
        <ele>634</ele>
        <time>2019-06-11T12:33:24Z</time>
      </trkpt>
      <trkpt lat="46.10509" lon="6.59078">
        <ele>638</ele>
        <time>2019-06-11T12:33:48Z</time>
      </trkpt>
      <trkpt lat="46.10531" lon="6.59083">
        <ele>639</ele>
        <time>2019-06-11T12:33:52Z</time>
      </trkpt>
      <trkpt lat="46.10547" lon="6.59082">
        <ele>639</ele>
        <time>2019-06-11T12:33:54Z</time>
      </trkpt>
      <trkpt lat="46.10743" lon="6.59105">
        <ele>644</ele>
        <time>2019-06-11T12:34:29Z</time>
      </trkpt>
      <trkpt lat="46.10768" lon="6.59112">
        <ele>646</ele>
        <time>2019-06-11T12:34:34Z</time>
      </trkpt>
      <trkpt lat="46.10782" lon="6.59122">
        <ele>647</ele>
        <time>2019-06-11T12:34:37Z</time>
      </trkpt>
      <trkpt lat="46.10782" lon="6.59127">
        <ele>647</ele>
        <time>2019-06-11T12:34:37Z</time>
      </trkpt>
      <trkpt lat="46.10784" lon="6.59132">
        <ele>648</ele>
        <time>2019-06-11T12:34:38Z</time>
      </trkpt>
      <trkpt lat="46.10787" lon="6.59134">
        <ele>648</ele>
        <time>2019-06-11T12:34:39Z</time>
      </trkpt>
      <trkpt lat="46.10756" lon="6.59228">
        <ele>647</ele>
        <time>2019-06-11T12:34:51Z</time>
      </trkpt>
      <trkpt lat="46.10742" lon="6.59279">
        <ele>646</ele>
        <time>2019-06-11T12:34:58Z</time>
      </trkpt>
      <trkpt lat="46.10741" lon="6.5929">
        <ele>646</ele>
        <time>2019-06-11T12:35:00Z</time>
      </trkpt>
      <trkpt lat="46.10738" lon="6.59298">
        <ele>645</ele>
        <time>2019-06-11T12:35:01Z</time>
      </trkpt>
      <trkpt lat="46.10727" lon="6.59341">
        <ele>644</ele>
        <time>2019-06-11T12:35:06Z</time>
      </trkpt>
      <trkpt lat="46.10722" lon="6.59374">
        <ele>642</ele>
        <time>2019-06-11T12:35:11Z</time>
      </trkpt>
      <trkpt lat="46.10697" lon="6.59787">
        <ele>633</ele>
        <time>2019-06-11T12:36:02Z</time>
      </trkpt>
      <trkpt lat="46.10688" lon="6.59883">
        <ele>632</ele>
        <time>2019-06-11T12:36:14Z</time>
      </trkpt>
      <trkpt lat="46.10669" lon="6.59997">
        <ele>631</ele>
        <time>2019-06-11T12:36:28Z</time>
      </trkpt>
      <trkpt lat="46.10665" lon="6.60035">
        <ele>631</ele>
        <time>2019-06-11T12:36:33Z</time>
      </trkpt>
      <trkpt lat="46.10654" lon="6.604">
        <ele>631</ele>
        <time>2019-06-11T12:37:18Z</time>
      </trkpt>
      <trkpt lat="46.1065" lon="6.6043">
        <ele>632</ele>
        <time>2019-06-11T12:37:22Z</time>
      </trkpt>
      <trkpt lat="46.10625" lon="6.60544">
        <ele>630</ele>
        <time>2019-06-11T12:37:36Z</time>
      </trkpt>
      <trkpt lat="46.10612" lon="6.60674">
        <ele>630</ele>
        <time>2019-06-11T12:37:53Z</time>
      </trkpt>
      <trkpt lat="46.10607" lon="6.60757">
        <ele>629</ele>
        <time>2019-06-11T12:38:03Z</time>
      </trkpt>
      <trkpt lat="46.10606" lon="6.60787">
        <ele>629</ele>
        <time>2019-06-11T12:38:07Z</time>
      </trkpt>
      <trkpt lat="46.10597" lon="6.61377">
        <ele>634</ele>
        <time>2019-06-11T12:39:19Z</time>
      </trkpt>
      <trkpt lat="46.10594" lon="6.61419">
        <ele>635</ele>
        <time>2019-06-11T12:39:25Z</time>
      </trkpt>
      <trkpt lat="46.10577" lon="6.61524">
        <ele>636</ele>
        <time>2019-06-11T12:39:38Z</time>
      </trkpt>
      <trkpt lat="46.10563" lon="6.61585">
        <ele>637</ele>
        <time>2019-06-11T12:39:46Z</time>
      </trkpt>
      <trkpt lat="46.10558" lon="6.61628">
        <ele>637</ele>
        <time>2019-06-11T12:39:51Z</time>
      </trkpt>
      <trkpt lat="46.10559" lon="6.62002">
        <ele>636</ele>
        <time>2019-06-11T12:40:37Z</time>
      </trkpt>
      <trkpt lat="46.10557" lon="6.6205">
        <ele>638</ele>
        <time>2019-06-11T12:40:43Z</time>
      </trkpt>
      <trkpt lat="46.10554" lon="6.62077">
        <ele>639</ele>
        <time>2019-06-11T12:40:47Z</time>
      </trkpt>
      <trkpt lat="46.10536" lon="6.62192">
        <ele>640</ele>
        <time>2019-06-11T12:41:01Z</time>
      </trkpt>
      <trkpt lat="46.10516" lon="6.62287">
        <ele>642</ele>
        <time>2019-06-11T12:41:13Z</time>
      </trkpt>
      <trkpt lat="46.10424" lon="6.62588">
        <ele>642</ele>
        <time>2019-06-11T12:41:54Z</time>
      </trkpt>
      <trkpt lat="46.10359" lon="6.6277">
        <ele>637</ele>
        <time>2019-06-11T12:42:19Z</time>
      </trkpt>
      <trkpt lat="46.10305" lon="6.62889">
        <ele>639</ele>
        <time>2019-06-11T12:42:37Z</time>
      </trkpt>
      <trkpt lat="46.10259" lon="6.63005">
        <ele>638</ele>
        <time>2019-06-11T12:42:53Z</time>
      </trkpt>
      <trkpt lat="46.10168" lon="6.63268">
        <ele>644</ele>
        <time>2019-06-11T12:43:30Z</time>
      </trkpt>
      <trkpt lat="46.10158" lon="6.63305">
        <ele>646</ele>
        <time>2019-06-11T12:43:34Z</time>
      </trkpt>
      <trkpt lat="46.10151" lon="6.63343">
        <ele>647</ele>
        <time>2019-06-11T12:43:39Z</time>
      </trkpt>
      <trkpt lat="46.10139" lon="6.63565">
        <ele>643</ele>
        <time>2019-06-11T12:44:07Z</time>
      </trkpt>
      <trkpt lat="46.1013" lon="6.63649">
        <ele>643</ele>
        <time>2019-06-11T12:44:17Z</time>
      </trkpt>
      <trkpt lat="46.10123" lon="6.63702">
        <ele>644</ele>
        <time>2019-06-11T12:44:24Z</time>
      </trkpt>
      <trkpt lat="46.10108" lon="6.63781">
        <ele>644</ele>
        <time>2019-06-11T12:44:34Z</time>
      </trkpt>
      <trkpt lat="46.10034" lon="6.64151">
        <ele>644</ele>
        <time>2019-06-11T12:45:22Z</time>
      </trkpt>
      <trkpt lat="46.09871" lon="6.65141">
        <ele>653</ele>
        <time>2019-06-11T12:47:27Z</time>
      </trkpt>
      <trkpt lat="46.09859" lon="6.65198">
        <ele>653</ele>
        <time>2019-06-11T12:47:34Z</time>
      </trkpt>
      <trkpt lat="46.09695" lon="6.65788">
        <ele>654</ele>
        <time>2019-06-11T12:48:53Z</time>
      </trkpt>
      <trkpt lat="46.09665" lon="6.65893">
        <ele>654</ele>
        <time>2019-06-11T12:49:07Z</time>
      </trkpt>
      <trkpt lat="46.096" lon="6.66098">
        <ele>656</ele>
        <time>2019-06-11T12:49:35Z</time>
      </trkpt>
      <trkpt lat="46.09511" lon="6.66415">
        <ele>665</ele>
        <time>2019-06-11T12:50:17Z</time>
      </trkpt>
      <trkpt lat="46.095" lon="6.66449">
        <ele>663</ele>
        <time>2019-06-11T12:50:22Z</time>
      </trkpt>
      <trkpt lat="46.09485" lon="6.6649">
        <ele>661</ele>
        <time>2019-06-11T12:50:27Z</time>
      </trkpt>
      <trkpt lat="46.09467" lon="6.66527">
        <ele>661</ele>
        <time>2019-06-11T12:50:33Z</time>
      </trkpt>
      <trkpt lat="46.09438" lon="6.66577">
        <ele>660</ele>
        <time>2019-06-11T12:50:41Z</time>
      </trkpt>
      <trkpt lat="46.09345" lon="6.66728">
        <ele>661</ele>
        <time>2019-06-11T12:51:06Z</time>
      </trkpt>
      <trkpt lat="46.09324" lon="6.66778">
        <ele>659</ele>
        <time>2019-06-11T12:51:13Z</time>
      </trkpt>
      <trkpt lat="46.09146" lon="6.67234">
        <ele>664</ele>
        <time>2019-06-11T12:52:18Z</time>
      </trkpt>
      <trkpt lat="46.09128" lon="6.67286">
        <ele>666</ele>
        <time>2019-06-11T12:52:25Z</time>
      </trkpt>
      <trkpt lat="46.09025" lon="6.67605">
        <ele>665</ele>
        <time>2019-06-11T12:53:08Z</time>
      </trkpt>
      <trkpt lat="46.08951" lon="6.67845">
        <ele>668</ele>
        <time>2019-06-11T12:53:41Z</time>
      </trkpt>
      <trkpt lat="46.08929" lon="6.67924">
        <ele>671</ele>
        <time>2019-06-11T12:53:51Z</time>
      </trkpt>
      <trkpt lat="46.08924" lon="6.67926">
        <ele>671</ele>
        <time>2019-06-11T12:53:52Z</time>
      </trkpt>
      <trkpt lat="46.08921" lon="6.67933">
        <ele>671</ele>
        <time>2019-06-11T12:53:53Z</time>
      </trkpt>
      <trkpt lat="46.0892" lon="6.67942">
        <ele>672</ele>
        <time>2019-06-11T12:53:54Z</time>
      </trkpt>
      <trkpt lat="46.08924" lon="6.67949">
        <ele>672</ele>
        <time>2019-06-11T12:53:55Z</time>
      </trkpt>
      <trkpt lat="46.08927" lon="6.6795">
        <ele>672</ele>
        <time>2019-06-11T12:53:56Z</time>
      </trkpt>
      <trkpt lat="46.08926" lon="6.6797">
        <ele>673</ele>
        <time>2019-06-11T12:53:58Z</time>
      </trkpt>
      <trkpt lat="46.08882" lon="6.68453">
        <ele>685</ele>
        <time>2019-06-11T12:54:58Z</time>
      </trkpt>
      <trkpt lat="46.0885" lon="6.68788">
        <ele>681</ele>
        <time>2019-06-11T12:55:40Z</time>
      </trkpt>
      <trkpt lat="46.08843" lon="6.68843">
        <ele>681</ele>
        <time>2019-06-11T12:55:47Z</time>
      </trkpt>
      <trkpt lat="46.08837" lon="6.68877">
        <ele>681</ele>
        <time>2019-06-11T12:55:51Z</time>
      </trkpt>
      <trkpt lat="46.08794" lon="6.69032">
        <ele>681</ele>
        <time>2019-06-11T12:56:12Z</time>
      </trkpt>
      <trkpt lat="46.08776" lon="6.69102">
        <ele>681</ele>
        <time>2019-06-11T12:56:21Z</time>
      </trkpt>
      <trkpt lat="46.08725" lon="6.69396">
        <ele>685</ele>
        <time>2019-06-11T12:56:59Z</time>
      </trkpt>
      <trkpt lat="46.08585" lon="6.70218">
        <ele>685</ele>
        <time>2019-06-11T12:58:43Z</time>
      </trkpt>
      <trkpt lat="46.08519" lon="6.70578">
        <ele>684</ele>
        <time>2019-06-11T12:59:29Z</time>
      </trkpt>
      <trkpt lat="46.085" lon="6.70673">
        <ele>684</ele>
        <time>2019-06-11T12:59:41Z</time>
      </trkpt>
      <trkpt lat="46.08468" lon="6.70847">
        <ele>688</ele>
        <time>2019-06-11T13:00:03Z</time>
      </trkpt>
      <trkpt lat="46.08455" lon="6.70942">
        <ele>688</ele>
        <time>2019-06-11T13:00:15Z</time>
      </trkpt>
      <trkpt lat="46.08448" lon="6.7101">
        <ele>689</ele>
        <time>2019-06-11T13:00:24Z</time>
      </trkpt>
      <trkpt lat="46.08443" lon="6.7111">
        <ele>691</ele>
        <time>2019-06-11T13:00:36Z</time>
      </trkpt>
      <trkpt lat="46.08441" lon="6.71196">
        <ele>695</ele>
        <time>2019-06-11T13:00:47Z</time>
      </trkpt>
      <trkpt lat="46.08442" lon="6.71266">
        <ele>697</ele>
        <time>2019-06-11T13:00:55Z</time>
      </trkpt>
      <trkpt lat="46.08445" lon="6.71331">
        <ele>699</ele>
        <time>2019-06-11T13:01:03Z</time>
      </trkpt>
      <trkpt lat="46.08452" lon="6.71425">
        <ele>700</ele>
        <time>2019-06-11T13:01:15Z</time>
      </trkpt>
      <trkpt lat="46.0846" lon="6.71504">
        <ele>697</ele>
        <time>2019-06-11T13:01:25Z</time>
      </trkpt>
      <trkpt lat="46.08465" lon="6.71528">
        <ele>698</ele>
        <time>2019-06-11T13:01:28Z</time>
      </trkpt>
      <trkpt lat="46.08474" lon="6.71553">
        <ele>698</ele>
        <time>2019-06-11T13:01:32Z</time>
      </trkpt>
      <trkpt lat="46.08522" lon="6.71645">
        <ele>701</ele>
        <time>2019-06-11T13:01:46Z</time>
      </trkpt>
      <trkpt lat="46.08533" lon="6.7167">
        <ele>701</ele>
        <time>2019-06-11T13:01:49Z</time>
      </trkpt>
      <trkpt lat="46.08538" lon="6.71688">
        <ele>701</ele>
        <time>2019-06-11T13:01:52Z</time>
      </trkpt>
      <trkpt lat="46.08541" lon="6.71724">
        <ele>700</ele>
        <time>2019-06-11T13:01:56Z</time>
      </trkpt>
      <trkpt lat="46.08539" lon="6.71745">
        <ele>700</ele>
        <time>2019-06-11T13:01:59Z</time>
      </trkpt>
      <trkpt lat="46.08475" lon="6.72012">
        <ele>695</ele>
        <time>2019-06-11T13:02:34Z</time>
      </trkpt>
      <trkpt lat="46.08435" lon="6.72188">
        <ele>701</ele>
        <time>2019-06-11T13:02:57Z</time>
      </trkpt>
      <trkpt lat="46.08429" lon="6.72241">
        <ele>702</ele>
        <time>2019-06-11T13:03:03Z</time>
      </trkpt>
      <trkpt lat="46.08428" lon="6.72244">
        <ele>702</ele>
        <time>2019-06-11T13:03:04Z</time>
      </trkpt>
      <trkpt lat="46.08417" lon="6.7225">
        <ele>701</ele>
        <time>2019-06-11T13:03:06Z</time>
      </trkpt>
      <trkpt lat="46.08415" lon="6.72249">
        <ele>701</ele>
        <time>2019-06-11T13:03:06Z</time>
      </trkpt>
      <trkpt lat="46.08339" lon="6.72191">
        <ele>698</ele>
        <time>2019-06-11T13:03:21Z</time>
      </trkpt>
      <trkpt lat="46.08228" lon="6.72384">
        <ele>700</ele>
        <time>2019-06-11T13:03:52Z</time>
      </trkpt>
      <trkpt lat="46.08227" lon="6.72393">
        <ele>700</ele>
        <time>2019-06-11T13:03:54Z</time>
      </trkpt>
      <trkpt lat="46.08228" lon="6.72401">
        <ele>700</ele>
        <time>2019-06-11T13:03:55Z</time>
      </trkpt>
      <trkpt lat="46.08226" lon="6.72404">
        <ele>701</ele>
        <time>2019-06-11T13:03:55Z</time>
      </trkpt>
      <trkpt lat="46.08065" lon="6.72698">
        <ele>705</ele>
        <time>2019-06-11T13:04:41Z</time>
      </trkpt>
      <trkpt lat="46.08055" lon="6.72696">
        <ele>705</ele>
        <time>2019-06-11T13:04:43Z</time>
      </trkpt>
      <trkpt lat="46.08051" lon="6.72698">
        <ele>706</ele>
        <time>2019-06-11T13:04:44Z</time>
      </trkpt>
      <trkpt lat="46.08047" lon="6.72705">
        <ele>706</ele>
        <time>2019-06-11T13:04:45Z</time>
      </trkpt>
      <trkpt lat="46.08044" lon="6.72721">
        <ele>706</ele>
        <time>2019-06-11T13:04:47Z</time>
      </trkpt>
      <trkpt lat="46.08035" lon="6.72754">
        <ele>708</ele>
        <time>2019-06-11T13:04:51Z</time>
      </trkpt>
      <trkpt lat="46.07989" lon="6.72861">
        <ele>710</ele>
        <time>2019-06-11T13:05:07Z</time>
      </trkpt>
      <trkpt lat="46.07986" lon="6.72874">
        <ele>711</ele>
        <time>2019-06-11T13:05:09Z</time>
      </trkpt>
      <trkpt lat="46.07985" lon="6.72907">
        <ele>711</ele>
        <time>2019-06-11T13:05:13Z</time>
      </trkpt>
      <trkpt lat="46.08005" lon="6.73013">
        <ele>712</ele>
        <time>2019-06-11T13:05:26Z</time>
      </trkpt>
      <trkpt lat="46.08016" lon="6.73054">
        <ele>712</ele>
        <time>2019-06-11T13:05:32Z</time>
      </trkpt>
      <trkpt lat="46.08027" lon="6.73078">
        <ele>713</ele>
        <time>2019-06-11T13:05:35Z</time>
      </trkpt>
      <trkpt lat="46.08051" lon="6.73113">
        <ele>714</ele>
        <time>2019-06-11T13:05:41Z</time>
      </trkpt>
      <trkpt lat="46.08062" lon="6.73142">
        <ele>714</ele>
        <time>2019-06-11T13:05:45Z</time>
      </trkpt>
      <trkpt lat="46.08063" lon="6.73149">
        <ele>714</ele>
        <time>2019-06-11T13:05:46Z</time>
      </trkpt>
      <trkpt lat="46.0777" lon="6.7344">
        <ele>706</ele>
        <time>2019-06-11T13:06:50Z</time>
      </trkpt>
      <trkpt lat="46.07718" lon="6.73486">
        <ele>705</ele>
        <time>2019-06-11T13:07:00Z</time>
      </trkpt>
      <trkpt lat="46.07724" lon="6.7349">
        <ele>705</ele>
        <time>2019-06-11T13:07:02Z</time>
      </trkpt>
      <trkpt lat="46.07727" lon="6.735">
        <ele>705</ele>
        <time>2019-06-11T13:07:03Z</time>
      </trkpt>
      <trkpt lat="46.07728" lon="6.73509">
        <ele>705</ele>
        <time>2019-06-11T13:07:04Z</time>
      </trkpt>
      <trkpt lat="46.07725" lon="6.73515">
        <ele>705</ele>
        <time>2019-06-11T13:07:05Z</time>
      </trkpt>
      <trkpt lat="46.07718" lon="6.7352">
        <ele>705</ele>
        <time>2019-06-11T13:07:06Z</time>
      </trkpt>
      <trkpt lat="46.07707" lon="6.73519">
        <ele>705</ele>
        <time>2019-06-11T13:07:08Z</time>
      </trkpt>
      <trkpt lat="46.077" lon="6.73523">
        <ele>706</ele>
        <time>2019-06-11T13:07:10Z</time>
      </trkpt>
      <trkpt lat="46.07658" lon="6.73603">
        <ele>708</ele>
        <time>2019-06-11T13:07:22Z</time>
      </trkpt>
      <trkpt lat="46.07646" lon="6.73635">
        <ele>708</ele>
        <time>2019-06-11T13:07:27Z</time>
      </trkpt>
      <trkpt lat="46.07641" lon="6.73658">
        <ele>708</ele>
        <time>2019-06-11T13:07:29Z</time>
      </trkpt>
      <trkpt lat="46.07639" lon="6.73684">
        <ele>708</ele>
        <time>2019-06-11T13:07:33Z</time>
      </trkpt>
      <trkpt lat="46.07644" lon="6.73795">
        <ele>710</ele>
        <time>2019-06-11T13:07:46Z</time>
      </trkpt>
      <trkpt lat="46.07643" lon="6.73807">
        <ele>710</ele>
        <time>2019-06-11T13:07:48Z</time>
      </trkpt>
      <trkpt lat="46.07612" lon="6.73933">
        <ele>711</ele>
        <time>2019-06-11T13:08:04Z</time>
      </trkpt>
      <trkpt lat="46.07604" lon="6.73958">
        <ele>711</ele>
        <time>2019-06-11T13:08:08Z</time>
      </trkpt>
      <trkpt lat="46.07563" lon="6.74034">
        <ele>712</ele>
        <time>2019-06-11T13:08:20Z</time>
      </trkpt>
      <trkpt lat="46.07558" lon="6.74055">
        <ele>712</ele>
        <time>2019-06-11T13:08:22Z</time>
      </trkpt>
      <trkpt lat="46.07548" lon="6.74131">
        <ele>713</ele>
        <time>2019-06-11T13:08:32Z</time>
      </trkpt>
      <trkpt lat="46.07534" lon="6.74179">
        <ele>713</ele>
        <time>2019-06-11T13:08:38Z</time>
      </trkpt>
      <trkpt lat="46.07533" lon="6.74231">
        <ele>714</ele>
        <time>2019-06-11T13:08:45Z</time>
      </trkpt>
      <trkpt lat="46.07525" lon="6.74254">
        <ele>714</ele>
        <time>2019-06-11T13:08:48Z</time>
      </trkpt>
      <trkpt lat="46.0751" lon="6.74277">
        <ele>714</ele>
        <time>2019-06-11T13:08:52Z</time>
      </trkpt>
      <trkpt lat="46.07486" lon="6.74305">
        <ele>714</ele>
        <time>2019-06-11T13:08:57Z</time>
      </trkpt>
      <trkpt lat="46.07405" lon="6.74453">
        <ele>718</ele>
        <time>2019-06-11T13:09:21Z</time>
      </trkpt>
      <trkpt lat="46.07373" lon="6.74497">
        <ele>720</ele>
        <time>2019-06-11T13:09:29Z</time>
      </trkpt>
      <trkpt lat="46.07356" lon="6.74513">
        <ele>719</ele>
        <time>2019-06-11T13:09:32Z</time>
      </trkpt>
      <trkpt lat="46.07327" lon="6.74537">
        <ele>717</ele>
        <time>2019-06-11T13:09:38Z</time>
      </trkpt>
      <trkpt lat="46.0721" lon="6.74616">
        <ele>716</ele>
        <time>2019-06-11T13:10:01Z</time>
      </trkpt>
      <trkpt lat="46.07177" lon="6.74642">
        <ele>715</ele>
        <time>2019-06-11T13:10:08Z</time>
      </trkpt>
      <trkpt lat="46.07155" lon="6.74672">
        <ele>717</ele>
        <time>2019-06-11T13:10:13Z</time>
      </trkpt>
      <trkpt lat="46.0713" lon="6.7472">
        <ele>720</ele>
        <time>2019-06-11T13:10:21Z</time>
      </trkpt>
      <trkpt lat="46.07122" lon="6.7473">
        <ele>720</ele>
        <time>2019-06-11T13:10:22Z</time>
      </trkpt>
      <trkpt lat="46.07118" lon="6.74733">
        <ele>721</ele>
        <time>2019-06-11T13:10:23Z</time>
      </trkpt>
      <trkpt lat="46.07108" lon="6.74736">
        <ele>721</ele>
        <time>2019-06-11T13:10:25Z</time>
      </trkpt>
      <trkpt lat="46.07065" lon="6.74735">
        <ele>721</ele>
        <time>2019-06-11T13:10:33Z</time>
      </trkpt>
      <trkpt lat="46.07048" lon="6.7474">
        <ele>720</ele>
        <time>2019-06-11T13:10:36Z</time>
      </trkpt>
      <trkpt lat="46.07023" lon="6.74752">
        <ele>719</ele>
        <time>2019-06-11T13:10:41Z</time>
      </trkpt>
      <trkpt lat="46.07005" lon="6.74755">
        <ele>718</ele>
        <time>2019-06-11T13:10:44Z</time>
      </trkpt>
      <trkpt lat="46.06983" lon="6.74749">
        <ele>718</ele>
        <time>2019-06-11T13:10:48Z</time>
      </trkpt>
      <trkpt lat="46.0697" lon="6.74742">
        <ele>718</ele>
        <time>2019-06-11T13:10:50Z</time>
      </trkpt>
      <trkpt lat="46.06937" lon="6.74708">
        <ele>719</ele>
        <time>2019-06-11T13:10:57Z</time>
      </trkpt>
      <trkpt lat="46.06877" lon="6.74683">
        <ele>719</ele>
        <time>2019-06-11T13:11:09Z</time>
      </trkpt>
      <trkpt lat="46.06756" lon="6.74629">
        <ele>716</ele>
        <time>2019-06-11T13:11:31Z</time>
      </trkpt>
      <trkpt lat="46.06351" lon="6.74461">
        <ele>724</ele>
        <time>2019-06-11T13:12:46Z</time>
      </trkpt>
      <trkpt lat="46.06344" lon="6.74455">
        <ele>724</ele>
        <time>2019-06-11T13:12:48Z</time>
      </trkpt>
      <trkpt lat="46.06342" lon="6.7445">
        <ele>724</ele>
        <time>2019-06-11T13:12:48Z</time>
      </trkpt>
      <trkpt lat="46.0634" lon="6.74431">
        <ele>724</ele>
        <time>2019-06-11T13:12:51Z</time>
      </trkpt>
      <trkpt lat="46.06297" lon="6.74438">
        <ele>725</ele>
        <time>2019-06-11T13:12:58Z</time>
      </trkpt>
      <trkpt lat="46.06248" lon="6.74442">
        <ele>725</ele>
        <time>2019-06-11T13:13:07Z</time>
      </trkpt>
      <trkpt lat="46.06125" lon="6.74448">
        <ele>725</ele>
        <time>2019-06-11T13:13:29Z</time>
      </trkpt>
      <trkpt lat="46.06042" lon="6.74454">
        <ele>727</ele>
        <time>2019-06-11T13:13:44Z</time>
      </trkpt>
      <trkpt lat="46.06023" lon="6.74459">
        <ele>727</ele>
        <time>2019-06-11T13:13:47Z</time>
      </trkpt>
      <trkpt lat="46.06003" lon="6.74468">
        <ele>727</ele>
        <time>2019-06-11T13:13:51Z</time>
      </trkpt>
      <trkpt lat="46.05987" lon="6.74481">
        <ele>728</ele>
        <time>2019-06-11T13:13:54Z</time>
      </trkpt>
      <trkpt lat="46.05974" lon="6.74496">
        <ele>728</ele>
        <time>2019-06-11T13:13:57Z</time>
      </trkpt>
      <trkpt lat="46.0588" lon="6.74662">
        <ele>739</ele>
        <time>2019-06-11T13:14:24Z</time>
      </trkpt>
      <trkpt lat="46.05811" lon="6.74792">
        <ele>753</ele>
        <time>2019-06-11T13:14:44Z</time>
      </trkpt>
      <trkpt lat="46.05802" lon="6.74806">
        <ele>753</ele>
        <time>2019-06-11T13:14:46Z</time>
      </trkpt>
      <trkpt lat="46.05757" lon="6.74866">
        <ele>746</ele>
        <time>2019-06-11T13:14:57Z</time>
      </trkpt>
      <trkpt lat="46.05744" lon="6.74888">
        <ele>747</ele>
        <time>2019-06-11T13:15:01Z</time>
      </trkpt>
      <trkpt lat="46.05741" lon="6.749">
        <ele>748</ele>
        <time>2019-06-11T13:15:02Z</time>
      </trkpt>
      <trkpt lat="46.0574" lon="6.74914">
        <ele>749</ele>
        <time>2019-06-11T13:15:04Z</time>
      </trkpt>
      <trkpt lat="46.05744" lon="6.74981">
        <ele>748</ele>
        <time>2019-06-11T13:15:12Z</time>
      </trkpt>
      <trkpt lat="46.05749" lon="6.75003">
        <ele>749</ele>
        <time>2019-06-11T13:15:15Z</time>
      </trkpt>
      <trkpt lat="46.05764" lon="6.75038">
        <ele>750</ele>
        <time>2019-06-11T13:15:20Z</time>
      </trkpt>
      <trkpt lat="46.05783" lon="6.75071">
        <ele>752</ele>
        <time>2019-06-11T13:15:25Z</time>
      </trkpt>
      <trkpt lat="46.05798" lon="6.75087">
        <ele>753</ele>
        <time>2019-06-11T13:15:29Z</time>
      </trkpt>
      <trkpt lat="46.05834" lon="6.75116">
        <ele>757</ele>
        <time>2019-06-11T13:15:36Z</time>
      </trkpt>
      <trkpt lat="46.05845" lon="6.75131">
        <ele>760</ele>
        <time>2019-06-11T13:15:39Z</time>
      </trkpt>
      <trkpt lat="46.05851" lon="6.75144">
        <ele>761</ele>
        <time>2019-06-11T13:15:41Z</time>
      </trkpt>
      <trkpt lat="46.05861" lon="6.7518">
        <ele>762</ele>
        <time>2019-06-11T13:15:46Z</time>
      </trkpt>
      <trkpt lat="46.05884" lon="6.75313">
        <ele>763</ele>
        <time>2019-06-11T13:16:02Z</time>
      </trkpt>
      <trkpt lat="46.05887" lon="6.75336">
        <ele>763</ele>
        <time>2019-06-11T13:16:05Z</time>
      </trkpt>
      <trkpt lat="46.05886" lon="6.75372">
        <ele>768</ele>
        <time>2019-06-11T13:16:10Z</time>
      </trkpt>
      <trkpt lat="46.05878" lon="6.75426">
        <ele>772</ele>
        <time>2019-06-11T13:16:17Z</time>
      </trkpt>
      <trkpt lat="46.05832" lon="6.75546">
        <ele>782</ele>
        <time>2019-06-11T13:16:34Z</time>
      </trkpt>
      <trkpt lat="46.05818" lon="6.75567">
        <ele>784</ele>
        <time>2019-06-11T13:16:37Z</time>
      </trkpt>
      <trkpt lat="46.05813" lon="6.75573">
        <ele>784</ele>
        <time>2019-06-11T13:16:38Z</time>
      </trkpt>
      <trkpt lat="46.05738" lon="6.75632">
        <ele>783</ele>
        <time>2019-06-11T13:16:53Z</time>
      </trkpt>
      <trkpt lat="46.05671" lon="6.75692">
        <ele>783</ele>
        <time>2019-06-11T13:17:08Z</time>
      </trkpt>
      <trkpt lat="46.05651" lon="6.75713">
        <ele>786</ele>
        <time>2019-06-11T13:17:12Z</time>
      </trkpt>
      <trkpt lat="46.05637" lon="6.75736">
        <ele>791</ele>
        <time>2019-06-11T13:17:16Z</time>
      </trkpt>
      <trkpt lat="46.056" lon="6.75809">
        <ele>792</ele>
        <time>2019-06-11T13:17:27Z</time>
      </trkpt>
      <trkpt lat="46.05557" lon="6.75904">
        <ele>787</ele>
        <time>2019-06-11T13:17:41Z</time>
      </trkpt>
      <trkpt lat="46.05551" lon="6.75928">
        <ele>785</ele>
        <time>2019-06-11T13:17:44Z</time>
      </trkpt>
      <trkpt lat="46.05551" lon="6.75953">
        <ele>782</ele>
        <time>2019-06-11T13:17:47Z</time>
      </trkpt>
      <trkpt lat="46.05559" lon="6.75979">
        <ele>778</ele>
        <time>2019-06-11T13:17:51Z</time>
      </trkpt>
      <trkpt lat="46.05565" lon="6.7599">
        <ele>776</ele>
        <time>2019-06-11T13:17:52Z</time>
      </trkpt>
      <trkpt lat="46.05608" lon="6.76048">
        <ele>778</ele>
        <time>2019-06-11T13:18:03Z</time>
      </trkpt>
      <trkpt lat="46.05619" lon="6.76068">
        <ele>782</ele>
        <time>2019-06-11T13:18:06Z</time>
      </trkpt>
      <trkpt lat="46.05623" lon="6.76082">
        <ele>783</ele>
        <time>2019-06-11T13:18:08Z</time>
      </trkpt>
      <trkpt lat="46.05626" lon="6.76102">
        <ele>783</ele>
        <time>2019-06-11T13:18:10Z</time>
      </trkpt>
      <trkpt lat="46.05626" lon="6.76125">
        <ele>782</ele>
        <time>2019-06-11T13:18:13Z</time>
      </trkpt>
      <trkpt lat="46.05623" lon="6.76146">
        <ele>779</ele>
        <time>2019-06-11T13:18:16Z</time>
      </trkpt>
      <trkpt lat="46.05612" lon="6.76203">
        <ele>777</ele>
        <time>2019-06-11T13:18:23Z</time>
      </trkpt>
      <trkpt lat="46.05605" lon="6.76222">
        <ele>776</ele>
        <time>2019-06-11T13:18:26Z</time>
      </trkpt>
      <trkpt lat="46.05602" lon="6.76228">
        <ele>776</ele>
        <time>2019-06-11T13:18:27Z</time>
      </trkpt>
      <trkpt lat="46.05565" lon="6.76276">
        <ele>770</ele>
        <time>2019-06-11T13:18:36Z</time>
      </trkpt>
      <trkpt lat="46.05549" lon="6.76308">
        <ele>769</ele>
        <time>2019-06-11T13:18:40Z</time>
      </trkpt>
      <trkpt lat="46.05542" lon="6.76334">
        <ele>770</ele>
        <time>2019-06-11T13:18:44Z</time>
      </trkpt>
      <trkpt lat="46.05536" lon="6.76368">
        <ele>770</ele>
        <time>2019-06-11T13:18:48Z</time>
      </trkpt>
      <trkpt lat="46.05535" lon="6.76387">
        <ele>771</ele>
        <time>2019-06-11T13:18:51Z</time>
      </trkpt>
      <trkpt lat="46.05537" lon="6.76419">
        <ele>774</ele>
        <time>2019-06-11T13:18:55Z</time>
      </trkpt>
      <trkpt lat="46.05544" lon="6.76475">
        <ele>776</ele>
        <time>2019-06-11T13:19:02Z</time>
      </trkpt>
      <trkpt lat="46.05542" lon="6.76519">
        <ele>778</ele>
        <time>2019-06-11T13:19:07Z</time>
      </trkpt>
      <trkpt lat="46.05513" lon="6.76651">
        <ele>777</ele>
        <time>2019-06-11T13:19:24Z</time>
      </trkpt>
      <trkpt lat="46.05506" lon="6.76704">
        <ele>773</ele>
        <time>2019-06-11T13:19:31Z</time>
      </trkpt>
      <trkpt lat="46.05506" lon="6.7681">
        <ele>770</ele>
        <time>2019-06-11T13:19:44Z</time>
      </trkpt>
      <trkpt lat="46.05507" lon="6.76846">
        <ele>769</ele>
        <time>2019-06-11T13:19:48Z</time>
      </trkpt>
      <trkpt lat="46.05518" lon="6.76946">
        <ele>779</ele>
        <time>2019-06-11T13:20:01Z</time>
      </trkpt>
      <trkpt lat="46.0552" lon="6.7698">
        <ele>783</ele>
        <time>2019-06-11T13:20:05Z</time>
      </trkpt>
      <trkpt lat="46.05519" lon="6.76998">
        <ele>783</ele>
        <time>2019-06-11T13:20:07Z</time>
      </trkpt>
      <trkpt lat="46.05509" lon="6.77096">
        <ele>775</ele>
        <time>2019-06-11T13:20:19Z</time>
      </trkpt>
      <trkpt lat="46.05489" lon="6.77217">
        <ele>766</ele>
        <time>2019-06-11T13:20:35Z</time>
      </trkpt>
      <trkpt lat="46.05485" lon="6.7726">
        <ele>765</ele>
        <time>2019-06-11T13:20:40Z</time>
      </trkpt>
      <trkpt lat="46.05486" lon="6.77294">
        <ele>765</ele>
        <time>2019-06-11T13:20:44Z</time>
      </trkpt>
      <trkpt lat="46.05494" lon="6.77367">
        <ele>764</ele>
        <time>2019-06-11T13:20:54Z</time>
      </trkpt>
      <trkpt lat="46.05508" lon="6.77454">
        <ele>766</ele>
        <time>2019-06-11T13:21:05Z</time>
      </trkpt>
      <trkpt lat="46.05478" lon="6.77461">
        <ele>763</ele>
        <time>2019-06-11T13:21:10Z</time>
      </trkpt>
      <trkpt lat="46.0543" lon="6.77311">
        <ele>760</ele>
        <time>2019-06-11T13:21:30Z</time>
      </trkpt>
      <trkpt lat="46.05425" lon="6.77288">
        <ele>760</ele>
        <time>2019-06-11T13:21:33Z</time>
      </trkpt>
      <trkpt lat="46.05383" lon="6.77168">
        <ele>756</ele>
        <time>2019-06-11T13:21:50Z</time>
      </trkpt>
      <trkpt lat="46.05297" lon="6.76932">
        <ele>755</ele>
        <time>2019-06-11T13:22:23Z</time>
      </trkpt>
      <trkpt lat="46.05293" lon="6.76925">
        <ele>755</ele>
        <time>2019-06-11T13:22:24Z</time>
      </trkpt>
      <trkpt lat="46.05282" lon="6.76918">
        <ele>757</ele>
        <time>2019-06-11T13:22:26Z</time>
      </trkpt>
      <trkpt lat="46.0526" lon="6.76911">
        <ele>760</ele>
        <time>2019-06-11T13:22:30Z</time>
      </trkpt>
      <trkpt lat="46.05251" lon="6.76905">
        <ele>761</ele>
        <time>2019-06-11T13:22:32Z</time>
      </trkpt>
      <trkpt lat="46.05242" lon="6.76896">
        <ele>762</ele>
        <time>2019-06-11T13:22:34Z</time>
      </trkpt>
      <trkpt lat="46.05235" lon="6.76884">
        <ele>762</ele>
        <time>2019-06-11T13:22:36Z</time>
      </trkpt>
      <trkpt lat="46.05233" lon="6.76878">
        <ele>761</ele>
        <time>2019-06-11T13:22:37Z</time>
      </trkpt>
      <trkpt lat="46.05229" lon="6.76846">
        <ele>759</ele>
        <time>2019-06-11T13:22:41Z</time>
      </trkpt>
      <trkpt lat="46.05221" lon="6.76829">
        <ele>758</ele>
        <time>2019-06-11T13:22:43Z</time>
      </trkpt>
      <trkpt lat="46.05175" lon="6.76767">
        <ele>757</ele>
        <time>2019-06-11T13:22:54Z</time>
      </trkpt>
      <trkpt lat="46.05148" lon="6.76737">
        <ele>758</ele>
        <time>2019-06-11T13:23:00Z</time>
      </trkpt>
      <trkpt lat="46.05111" lon="6.76699">
        <ele>762</ele>
        <time>2019-06-11T13:23:09Z</time>
      </trkpt>
      <trkpt lat="46.05043" lon="6.76635">
        <ele>763</ele>
        <time>2019-06-11T13:23:23Z</time>
      </trkpt>
      <trkpt lat="46.05017" lon="6.76615">
        <ele>764</ele>
        <time>2019-06-11T13:23:28Z</time>
      </trkpt>
      <trkpt lat="46.04995" lon="6.76605">
        <ele>764</ele>
        <time>2019-06-11T13:23:32Z</time>
      </trkpt>
      <trkpt lat="46.04953" lon="6.76599">
        <ele>766</ele>
        <time>2019-06-11T13:23:40Z</time>
      </trkpt>
      <trkpt lat="46.04921" lon="6.76586">
        <ele>766</ele>
        <time>2019-06-11T13:23:46Z</time>
      </trkpt>
      <trkpt lat="46.04877" lon="6.76548">
        <ele>767</ele>
        <time>2019-06-11T13:23:55Z</time>
      </trkpt>
      <trkpt lat="46.04852" lon="6.76538">
        <ele>767</ele>
        <time>2019-06-11T13:23:59Z</time>
      </trkpt>
      <trkpt lat="46.04811" lon="6.76514">
        <ele>767</ele>
        <time>2019-06-11T13:24:07Z</time>
      </trkpt>
      <trkpt lat="46.04801" lon="6.76505">
        <ele>767</ele>
        <time>2019-06-11T13:24:09Z</time>
      </trkpt>
      <trkpt lat="46.04768" lon="6.76465">
        <ele>768</ele>
        <time>2019-06-11T13:24:17Z</time>
      </trkpt>
      <trkpt lat="46.04788" lon="6.76508">
        <ele>769</ele>
        <time>2019-06-11T13:24:24Z</time>
      </trkpt>
      <trkpt lat="46.04787" lon="6.76516">
        <ele>770</ele>
        <time>2019-06-11T13:24:25Z</time>
      </trkpt>
      <trkpt lat="46.04771" lon="6.7656">
        <ele>778</ele>
        <time>2019-06-11T13:24:31Z</time>
      </trkpt>
      <trkpt lat="46.04743" lon="6.76602">
        <ele>786</ele>
        <time>2019-06-11T13:24:38Z</time>
      </trkpt>
      <trkpt lat="46.04738" lon="6.76614">
        <ele>787</ele>
        <time>2019-06-11T13:24:40Z</time>
      </trkpt>
      <trkpt lat="46.04735" lon="6.76624">
        <ele>788</ele>
        <time>2019-06-11T13:24:41Z</time>
      </trkpt>
      <trkpt lat="46.0471" lon="6.76626">
        <ele>789</ele>
        <time>2019-06-11T13:24:45Z</time>
      </trkpt>
      <trkpt lat="46.04705" lon="6.76628">
        <ele>789</ele>
        <time>2019-06-11T13:24:46Z</time>
      </trkpt>
      <trkpt lat="46.04701" lon="6.76634">
        <ele>790</ele>
        <time>2019-06-11T13:24:47Z</time>
      </trkpt>
      <trkpt lat="46.04694" lon="6.76662">
        <ele>794</ele>
        <time>2019-06-11T13:24:51Z</time>
      </trkpt>
      <trkpt lat="46.04684" lon="6.76686">
        <ele>797</ele>
        <time>2019-06-11T13:24:54Z</time>
      </trkpt>
      <trkpt lat="46.0468" lon="6.76711">
        <ele>800</ele>
        <time>2019-06-11T13:24:58Z</time>
      </trkpt>
      <trkpt lat="46.04676" lon="6.76769">
        <ele>807</ele>
        <time>2019-06-11T13:25:05Z</time>
      </trkpt>
      <trkpt lat="46.04677" lon="6.76825">
        <ele>814</ele>
        <time>2019-06-11T13:25:12Z</time>
      </trkpt>
      <trkpt lat="46.04672" lon="6.76949">
        <ele>827</ele>
        <time>2019-06-11T13:25:27Z</time>
      </trkpt>
      <trkpt lat="46.04634" lon="6.76954">
        <ele>830</ele>
        <time>2019-06-11T13:25:34Z</time>
      </trkpt>
      <trkpt lat="46.04594" lon="6.76964">
        <ele>833</ele>
        <time>2019-06-11T13:25:41Z</time>
      </trkpt>
      <trkpt lat="46.04556" lon="6.76977">
        <ele>837</ele>
        <time>2019-06-11T13:25:48Z</time>
      </trkpt>
      <trkpt lat="46.04451" lon="6.77019">
        <ele>845</ele>
        <time>2019-06-11T13:26:07Z</time>
      </trkpt>
      <trkpt lat="46.04392" lon="6.77037">
        <ele>849</ele>
        <time>2019-06-11T13:26:18Z</time>
      </trkpt>
      <trkpt lat="46.04329" lon="6.77048">
        <ele>852</ele>
        <time>2019-06-11T13:26:29Z</time>
      </trkpt>
      <trkpt lat="46.04291" lon="6.77048">
        <ele>853</ele>
        <time>2019-06-11T13:26:36Z</time>
      </trkpt>
      <trkpt lat="46.04222" lon="6.77059">
        <ele>855</ele>
        <time>2019-06-11T13:26:49Z</time>
      </trkpt>
      <trkpt lat="46.04187" lon="6.7707">
        <ele>856</ele>
        <time>2019-06-11T13:26:55Z</time>
      </trkpt>
      <trkpt lat="46.04159" lon="6.77085">
        <ele>857</ele>
        <time>2019-06-11T13:27:00Z</time>
      </trkpt>
      <trkpt lat="46.04095" lon="6.77129">
        <ele>860</ele>
        <time>2019-06-11T13:27:13Z</time>
      </trkpt>
      <trkpt lat="46.0405" lon="6.77177">
        <ele>861</ele>
        <time>2019-06-11T13:27:23Z</time>
      </trkpt>
      <trkpt lat="46.04008" lon="6.77234">
        <ele>862</ele>
        <time>2019-06-11T13:27:33Z</time>
      </trkpt>
      <trkpt lat="46.03987" lon="6.77251">
        <ele>861</ele>
        <time>2019-06-11T13:27:37Z</time>
      </trkpt>
      <trkpt lat="46.03913" lon="6.77298">
        <ele>858</ele>
        <time>2019-06-11T13:27:52Z</time>
      </trkpt>
      <trkpt lat="46.03885" lon="6.77311">
        <ele>860</ele>
        <time>2019-06-11T13:27:57Z</time>
      </trkpt>
      <trkpt lat="46.03873" lon="6.77315">
        <ele>861</ele>
        <time>2019-06-11T13:27:59Z</time>
      </trkpt>
      <trkpt lat="46.03849" lon="6.77315">
        <ele>861</ele>
        <time>2019-06-11T13:28:03Z</time>
      </trkpt>
      <trkpt lat="46.03808" lon="6.77306">
        <ele>858</ele>
        <time>2019-06-11T13:28:11Z</time>
      </trkpt>
      <trkpt lat="46.03792" lon="6.77307">
        <ele>857</ele>
        <time>2019-06-11T13:28:14Z</time>
      </trkpt>
      <trkpt lat="46.03779" lon="6.77311">
        <ele>857</ele>
        <time>2019-06-11T13:28:16Z</time>
      </trkpt>
      <trkpt lat="46.03743" lon="6.77338">
        <ele>860</ele>
        <time>2019-06-11T13:28:23Z</time>
      </trkpt>
      <trkpt lat="46.03728" lon="6.77345">
        <ele>862</ele>
        <time>2019-06-11T13:28:26Z</time>
      </trkpt>
      <trkpt lat="46.03665" lon="6.77367">
        <ele>868</ele>
        <time>2019-06-11T13:28:38Z</time>
      </trkpt>
      <trkpt lat="46.03653" lon="6.77369">
        <ele>871</ele>
        <time>2019-06-11T13:28:40Z</time>
      </trkpt>
      <trkpt lat="46.03641" lon="6.77367">
        <ele>872</ele>
        <time>2019-06-11T13:28:42Z</time>
      </trkpt>
      <trkpt lat="46.03517" lon="6.77303">
        <ele>870</ele>
        <time>2019-06-11T13:29:05Z</time>
      </trkpt>
      <trkpt lat="46.03495" lon="6.77294">
        <ele>870</ele>
        <time>2019-06-11T13:29:09Z</time>
      </trkpt>
      <trkpt lat="46.0348" lon="6.77282">
        <ele>867</ele>
        <time>2019-06-11T13:29:12Z</time>
      </trkpt>
      <trkpt lat="46.03476" lon="6.77276">
        <ele>866</ele>
        <time>2019-06-11T13:29:14Z</time>
      </trkpt>
      <trkpt lat="46.0345" lon="6.77211">
        <ele>854</ele>
        <time>2019-06-11T13:29:23Z</time>
      </trkpt>
      <trkpt lat="46.03442" lon="6.77201">
        <ele>853</ele>
        <time>2019-06-11T13:29:25Z</time>
      </trkpt>
      <trkpt lat="46.03426" lon="6.77193">
        <ele>852</ele>
        <time>2019-06-11T13:29:28Z</time>
      </trkpt>
      <trkpt lat="46.03419" lon="6.77191">
        <ele>852</ele>
        <time>2019-06-11T13:29:29Z</time>
      </trkpt>
      <trkpt lat="46.03377" lon="6.77193">
        <ele>856</ele>
        <time>2019-06-11T13:29:36Z</time>
      </trkpt>
      <trkpt lat="46.03362" lon="6.77199">
        <ele>859</ele>
        <time>2019-06-11T13:29:39Z</time>
      </trkpt>
      <trkpt lat="46.03307" lon="6.77229">
        <ele>869</ele>
        <time>2019-06-11T13:29:50Z</time>
      </trkpt>
      <trkpt lat="46.03298" lon="6.77229">
        <ele>871</ele>
        <time>2019-06-11T13:29:51Z</time>
      </trkpt>
      <trkpt lat="46.03295" lon="6.77227">
        <ele>871</ele>
        <time>2019-06-11T13:29:52Z</time>
      </trkpt>
      <trkpt lat="46.03292" lon="6.77222">
        <ele>871</ele>
        <time>2019-06-11T13:29:53Z</time>
      </trkpt>
      <trkpt lat="46.03281" lon="6.7719">
        <ele>870</ele>
        <time>2019-06-11T13:29:57Z</time>
      </trkpt>
      <trkpt lat="46.03281" lon="6.77185">
        <ele>869</ele>
        <time>2019-06-11T13:29:58Z</time>
      </trkpt>
      <trkpt lat="46.03323" lon="6.77115">
        <ele>866</ele>
        <time>2019-06-11T13:30:09Z</time>
      </trkpt>
      <trkpt lat="46.03326" lon="6.77101">
        <ele>868</ele>
        <time>2019-06-11T13:30:11Z</time>
      </trkpt>
      <trkpt lat="46.03329" lon="6.76984">
        <ele>890</ele>
        <time>2019-06-11T13:30:25Z</time>
      </trkpt>
      <trkpt lat="46.0333" lon="6.76977">
        <ele>891</ele>
        <time>2019-06-11T13:30:26Z</time>
      </trkpt>
      <trkpt lat="46.03335" lon="6.76967">
        <ele>892</ele>
        <time>2019-06-11T13:30:28Z</time>
      </trkpt>
      <trkpt lat="46.03359" lon="6.76946">
        <ele>890</ele>
        <time>2019-06-11T13:30:33Z</time>
      </trkpt>
      <trkpt lat="46.03425" lon="6.76832">
        <ele>888</ele>
        <time>2019-06-11T13:30:51Z</time>
      </trkpt>
      <trkpt lat="46.03429" lon="6.7682">
        <ele>889</ele>
        <time>2019-06-11T13:30:53Z</time>
      </trkpt>
      <trkpt lat="46.03428" lon="6.76815">
        <ele>890</ele>
        <time>2019-06-11T13:30:53Z</time>
      </trkpt>
      <trkpt lat="46.03424" lon="6.76806">
        <ele>893</ele>
        <time>2019-06-11T13:30:55Z</time>
      </trkpt>
      <trkpt lat="46.03417" lon="6.76802">
        <ele>895</ele>
        <time>2019-06-11T13:30:56Z</time>
      </trkpt>
      <trkpt lat="46.03411" lon="6.76806">
        <ele>897</ele>
        <time>2019-06-11T13:30:57Z</time>
      </trkpt>
      <trkpt lat="46.03332" lon="6.76915">
        <ele>904</ele>
        <time>2019-06-11T13:31:17Z</time>
      </trkpt>
      <trkpt lat="46.03303" lon="6.7694">
        <ele>912</ele>
        <time>2019-06-11T13:31:23Z</time>
      </trkpt>
      <trkpt lat="46.03293" lon="6.76941">
        <ele>916</ele>
        <time>2019-06-11T13:31:25Z</time>
      </trkpt>
      <trkpt lat="46.03278" lon="6.76935">
        <ele>925</ele>
        <time>2019-06-11T13:31:27Z</time>
      </trkpt>
      <trkpt lat="46.03271" lon="6.76937">
        <ele>927</ele>
        <time>2019-06-11T13:31:29Z</time>
      </trkpt>
      <trkpt lat="46.03264" lon="6.76944">
        <ele>928</ele>
        <time>2019-06-11T13:31:30Z</time>
      </trkpt>
      <trkpt lat="46.0324" lon="6.76988">
        <ele>921</ele>
        <time>2019-06-11T13:31:37Z</time>
      </trkpt>
      <trkpt lat="46.03227" lon="6.77001">
        <ele>921</ele>
        <time>2019-06-11T13:31:40Z</time>
      </trkpt>
      <trkpt lat="46.03208" lon="6.77011">
        <ele>923</ele>
        <time>2019-06-11T13:31:43Z</time>
      </trkpt>
      <trkpt lat="46.03197" lon="6.77015">
        <ele>925</ele>
        <time>2019-06-11T13:31:45Z</time>
      </trkpt>
      <trkpt lat="46.03135" lon="6.77017">
        <ele>936</ele>
        <time>2019-06-11T13:31:56Z</time>
      </trkpt>
      <trkpt lat="46.03125" lon="6.77015">
        <ele>937</ele>
        <time>2019-06-11T13:31:58Z</time>
      </trkpt>
      <trkpt lat="46.03097" lon="6.77003">
        <ele>944</ele>
        <time>2019-06-11T13:32:03Z</time>
      </trkpt>
      <trkpt lat="46.03076" lon="6.76999">
        <ele>947</ele>
        <time>2019-06-11T13:32:07Z</time>
      </trkpt>
      <trkpt lat="46.03072" lon="6.77">
        <ele>947</ele>
        <time>2019-06-11T13:32:08Z</time>
      </trkpt>
      <trkpt lat="46.03039" lon="6.77023">
        <ele>945</ele>
        <time>2019-06-11T13:32:14Z</time>
      </trkpt>
      <trkpt lat="46.0299" lon="6.77032">
        <ele>951</ele>
        <time>2019-06-11T13:32:23Z</time>
      </trkpt>
      <trkpt lat="46.02972" lon="6.77038">
        <ele>955</ele>
        <time>2019-06-11T13:32:27Z</time>
      </trkpt>
      <trkpt lat="46.02926" lon="6.77074">
        <ele>957</ele>
        <time>2019-06-11T13:32:36Z</time>
      </trkpt>
      <trkpt lat="46.02896" lon="6.77093">
        <ele>961</ele>
        <time>2019-06-11T13:32:42Z</time>
      </trkpt>
      <trkpt lat="46.02869" lon="6.77104">
        <ele>968</ele>
        <time>2019-06-11T13:32:47Z</time>
      </trkpt>
      <trkpt lat="46.02866" lon="6.77108">
        <ele>968</ele>
        <time>2019-06-11T13:32:47Z</time>
      </trkpt>
      <trkpt lat="46.02863" lon="6.77114">
        <ele>968</ele>
        <time>2019-06-11T13:32:48Z</time>
      </trkpt>
      <trkpt lat="46.02866" lon="6.77153">
        <ele>961</ele>
        <time>2019-06-11T13:32:53Z</time>
      </trkpt>
      <trkpt lat="46.02861" lon="6.77175">
        <ele>961</ele>
        <time>2019-06-11T13:32:56Z</time>
      </trkpt>
      <trkpt lat="46.02851" lon="6.77189">
        <ele>965</ele>
        <time>2019-06-11T13:32:58Z</time>
      </trkpt>
      <trkpt lat="46.02838" lon="6.77206">
        <ele>969</ele>
        <time>2019-06-11T13:33:02Z</time>
      </trkpt>
      <trkpt lat="46.02809" lon="6.77235">
        <ele>980</ele>
        <time>2019-06-11T13:33:08Z</time>
      </trkpt>
      <trkpt lat="46.02799" lon="6.77247">
        <ele>982</ele>
        <time>2019-06-11T13:33:10Z</time>
      </trkpt>
      <trkpt lat="46.02794" lon="6.77259">
        <ele>983</ele>
        <time>2019-06-11T13:33:12Z</time>
      </trkpt>
      <trkpt lat="46.02792" lon="6.77269">
        <ele>984</ele>
        <time>2019-06-11T13:33:13Z</time>
      </trkpt>
      <trkpt lat="46.02792" lon="6.77285">
        <ele>984</ele>
        <time>2019-06-11T13:33:15Z</time>
      </trkpt>
      <trkpt lat="46.02796" lon="6.77304">
        <ele>983</ele>
        <time>2019-06-11T13:33:18Z</time>
      </trkpt>
      <trkpt lat="46.02801" lon="6.7731">
        <ele>982</ele>
        <time>2019-06-11T13:33:19Z</time>
      </trkpt>
      <trkpt lat="46.02822" lon="6.77324">
        <ele>978</ele>
        <time>2019-06-11T13:33:23Z</time>
      </trkpt>
      <trkpt lat="46.02824" lon="6.77331">
        <ele>978</ele>
        <time>2019-06-11T13:33:24Z</time>
      </trkpt>
      <trkpt lat="46.02824" lon="6.77339">
        <ele>977</ele>
        <time>2019-06-11T13:33:25Z</time>
      </trkpt>
      <trkpt lat="46.02821" lon="6.77351">
        <ele>977</ele>
        <time>2019-06-11T13:33:26Z</time>
      </trkpt>
      <trkpt lat="46.02815" lon="6.77365">
        <ele>977</ele>
        <time>2019-06-11T13:33:28Z</time>
      </trkpt>
      <trkpt lat="46.02787" lon="6.7741">
        <ele>980</ele>
        <time>2019-06-11T13:33:36Z</time>
      </trkpt>
      <trkpt lat="46.02782" lon="6.77414">
        <ele>982</ele>
        <time>2019-06-11T13:33:37Z</time>
      </trkpt>
      <trkpt lat="46.02778" lon="6.77415">
        <ele>983</ele>
        <time>2019-06-11T13:33:38Z</time>
      </trkpt>
      <trkpt lat="46.02773" lon="6.77413">
        <ele>984</ele>
        <time>2019-06-11T13:33:39Z</time>
      </trkpt>
      <trkpt lat="46.0277" lon="6.77408">
        <ele>985</ele>
        <time>2019-06-11T13:33:39Z</time>
      </trkpt>
      <trkpt lat="46.02771" lon="6.77391">
        <ele>986</ele>
        <time>2019-06-11T13:33:42Z</time>
      </trkpt>
      <trkpt lat="46.0278" lon="6.77371">
        <ele>985</ele>
        <time>2019-06-11T13:33:44Z</time>
      </trkpt>
      <trkpt lat="46.02782" lon="6.77357">
        <ele>985</ele>
        <time>2019-06-11T13:33:46Z</time>
      </trkpt>
      <trkpt lat="46.02781" lon="6.77349">
        <ele>986</ele>
        <time>2019-06-11T13:33:47Z</time>
      </trkpt>
      <trkpt lat="46.02775" lon="6.77339">
        <ele>988</ele>
        <time>2019-06-11T13:33:49Z</time>
      </trkpt>
      <trkpt lat="46.02771" lon="6.77337">
        <ele>989</ele>
        <time>2019-06-11T13:33:50Z</time>
      </trkpt>
      <trkpt lat="46.02766" lon="6.77338">
        <ele>990</ele>
        <time>2019-06-11T13:33:51Z</time>
      </trkpt>
      <trkpt lat="46.02762" lon="6.77344">
        <ele>990</ele>
        <time>2019-06-11T13:33:52Z</time>
      </trkpt>
      <trkpt lat="46.02754" lon="6.77384">
        <ele>991</ele>
        <time>2019-06-11T13:33:57Z</time>
      </trkpt>
      <trkpt lat="46.02747" lon="6.77396">
        <ele>992</ele>
        <time>2019-06-11T13:33:59Z</time>
      </trkpt>
      <trkpt lat="46.02744" lon="6.77398">
        <ele>993</ele>
        <time>2019-06-11T13:33:59Z</time>
      </trkpt>
      <trkpt lat="46.02736" lon="6.77399">
        <ele>996</ele>
        <time>2019-06-11T13:34:01Z</time>
      </trkpt>
      <trkpt lat="46.02727" lon="6.77396">
        <ele>999</ele>
        <time>2019-06-11T13:34:02Z</time>
      </trkpt>
      <trkpt lat="46.0272" lon="6.77389">
        <ele>1002</ele>
        <time>2019-06-11T13:34:04Z</time>
      </trkpt>
      <trkpt lat="46.02713" lon="6.77379">
        <ele>1005</ele>
        <time>2019-06-11T13:34:06Z</time>
      </trkpt>
      <trkpt lat="46.02703" lon="6.77348">
        <ele>1013</ele>
        <time>2019-06-11T13:34:10Z</time>
      </trkpt>
      <trkpt lat="46.02694" lon="6.7734">
        <ele>1018</ele>
        <time>2019-06-11T13:34:12Z</time>
      </trkpt>
      <trkpt lat="46.02691" lon="6.7734">
        <ele>1019</ele>
        <time>2019-06-11T13:34:12Z</time>
      </trkpt>
      <trkpt lat="46.02685" lon="6.77343">
        <ele>1021</ele>
        <time>2019-06-11T13:34:13Z</time>
      </trkpt>
      <trkpt lat="46.02681" lon="6.77352">
        <ele>1021</ele>
        <time>2019-06-11T13:34:15Z</time>
      </trkpt>
      <trkpt lat="46.02676" lon="6.77385">
        <ele>1018</ele>
        <time>2019-06-11T13:34:19Z</time>
      </trkpt>
      <trkpt lat="46.02676" lon="6.77427">
        <ele>1012</ele>
        <time>2019-06-11T13:34:24Z</time>
      </trkpt>
      <trkpt lat="46.02667" lon="6.77478">
        <ele>1015</ele>
        <time>2019-06-11T13:34:31Z</time>
      </trkpt>
      <trkpt lat="46.02653" lon="6.77524">
        <ele>1017</ele>
        <time>2019-06-11T13:34:37Z</time>
      </trkpt>
      <trkpt lat="46.02648" lon="6.77534">
        <ele>1017</ele>
        <time>2019-06-11T13:34:38Z</time>
      </trkpt>
      <trkpt lat="46.02611" lon="6.77587">
        <ele>1024</ele>
        <time>2019-06-11T13:34:48Z</time>
      </trkpt>
      <trkpt lat="46.02599" lon="6.77595">
        <ele>1027</ele>
        <time>2019-06-11T13:34:50Z</time>
      </trkpt>
      <trkpt lat="46.02569" lon="6.7759">
        <ele>1034</ele>
        <time>2019-06-11T13:34:55Z</time>
      </trkpt>
      <trkpt lat="46.02563" lon="6.77585">
        <ele>1034</ele>
        <time>2019-06-11T13:34:56Z</time>
      </trkpt>
      <trkpt lat="46.0256" lon="6.77575">
        <ele>1035</ele>
        <time>2019-06-11T13:34:58Z</time>
      </trkpt>
      <trkpt lat="46.02561" lon="6.77566">
        <ele>1035</ele>
        <time>2019-06-11T13:34:59Z</time>
      </trkpt>
      <trkpt lat="46.02566" lon="6.7756">
        <ele>1034</ele>
        <time>2019-06-11T13:35:00Z</time>
      </trkpt>
      <trkpt lat="46.02574" lon="6.77557">
        <ele>1033</ele>
        <time>2019-06-11T13:35:02Z</time>
      </trkpt>
      <trkpt lat="46.02586" lon="6.77558">
        <ele>1030</ele>
        <time>2019-06-11T13:35:04Z</time>
      </trkpt>
      <trkpt lat="46.02592" lon="6.77554">
        <ele>1029</ele>
        <time>2019-06-11T13:35:05Z</time>
      </trkpt>
      <trkpt lat="46.02597" lon="6.77541">
        <ele>1028</ele>
        <time>2019-06-11T13:35:07Z</time>
      </trkpt>
      <trkpt lat="46.02607" lon="6.77483">
        <ele>1029</ele>
        <time>2019-06-11T13:35:14Z</time>
      </trkpt>
      <trkpt lat="46.02605" lon="6.7747">
        <ele>1030</ele>
        <time>2019-06-11T13:35:16Z</time>
      </trkpt>
      <trkpt lat="46.02601" lon="6.77463">
        <ele>1031</ele>
        <time>2019-06-11T13:35:17Z</time>
      </trkpt>
      <trkpt lat="46.02595" lon="6.77459">
        <ele>1033</ele>
        <time>2019-06-11T13:35:18Z</time>
      </trkpt>
      <trkpt lat="46.02587" lon="6.77461">
        <ele>1035</ele>
        <time>2019-06-11T13:35:20Z</time>
      </trkpt>
      <trkpt lat="46.02583" lon="6.77464">
        <ele>1036</ele>
        <time>2019-06-11T13:35:20Z</time>
      </trkpt>
      <trkpt lat="46.02562" lon="6.77499">
        <ele>1035</ele>
        <time>2019-06-11T13:35:26Z</time>
      </trkpt>
      <trkpt lat="46.02553" lon="6.77507">
        <ele>1036</ele>
        <time>2019-06-11T13:35:28Z</time>
      </trkpt>
      <trkpt lat="46.02482" lon="6.77548">
        <ele>1045</ele>
        <time>2019-06-11T13:35:42Z</time>
      </trkpt>
      <trkpt lat="46.02463" lon="6.77554">
        <ele>1047</ele>
        <time>2019-06-11T13:35:45Z</time>
      </trkpt>
      <trkpt lat="46.02391" lon="6.77563">
        <ele>1053</ele>
        <time>2019-06-11T13:35:58Z</time>
      </trkpt>
      <trkpt lat="46.02382" lon="6.77569">
        <ele>1054</ele>
        <time>2019-06-11T13:36:00Z</time>
      </trkpt>
      <trkpt lat="46.02368" lon="6.77595">
        <ele>1056</ele>
        <time>2019-06-11T13:36:04Z</time>
      </trkpt>
      <trkpt lat="46.02361" lon="6.77603">
        <ele>1056</ele>
        <time>2019-06-11T13:36:05Z</time>
      </trkpt>
      <trkpt lat="46.02352" lon="6.77605">
        <ele>1057</ele>
        <time>2019-06-11T13:36:07Z</time>
      </trkpt>
      <trkpt lat="46.02347" lon="6.77603">
        <ele>1058</ele>
        <time>2019-06-11T13:36:08Z</time>
      </trkpt>
      <trkpt lat="46.02341" lon="6.77593">
        <ele>1059</ele>
        <time>2019-06-11T13:36:09Z</time>
      </trkpt>
      <trkpt lat="46.02339" lon="6.7758">
        <ele>1060</ele>
        <time>2019-06-11T13:36:11Z</time>
      </trkpt>
      <trkpt lat="46.02356" lon="6.77505">
        <ele>1061</ele>
        <time>2019-06-11T13:36:21Z</time>
      </trkpt>
      <trkpt lat="46.02361" lon="6.77456">
        <ele>1069</ele>
        <time>2019-06-11T13:36:27Z</time>
      </trkpt>
      <trkpt lat="46.02367" lon="6.77429">
        <ele>1073</ele>
        <time>2019-06-11T13:36:30Z</time>
      </trkpt>
      <trkpt lat="46.0237" lon="6.77422">
        <ele>1074</ele>
        <time>2019-06-11T13:36:31Z</time>
      </trkpt>
      <trkpt lat="46.02374" lon="6.77418">
        <ele>1074</ele>
        <time>2019-06-11T13:36:32Z</time>
      </trkpt>
      <trkpt lat="46.02408" lon="6.77408">
        <ele>1073</ele>
        <time>2019-06-11T13:36:39Z</time>
      </trkpt>
      <trkpt lat="46.02413" lon="6.77404">
        <ele>1074</ele>
        <time>2019-06-11T13:36:40Z</time>
      </trkpt>
      <trkpt lat="46.02434" lon="6.77381">
        <ele>1078</ele>
        <time>2019-06-11T13:36:44Z</time>
      </trkpt>
      <trkpt lat="46.02437" lon="6.77371">
        <ele>1081</ele>
        <time>2019-06-11T13:36:46Z</time>
      </trkpt>
      <trkpt lat="46.02434" lon="6.77362">
        <ele>1085</ele>
        <time>2019-06-11T13:36:47Z</time>
      </trkpt>
      <trkpt lat="46.02428" lon="6.77361">
        <ele>1087</ele>
        <time>2019-06-11T13:36:48Z</time>
      </trkpt>
      <trkpt lat="46.02402" lon="6.77385">
        <ele>1082</ele>
        <time>2019-06-11T13:36:53Z</time>
      </trkpt>
      <trkpt lat="46.02389" lon="6.7739">
        <ele>1082</ele>
        <time>2019-06-11T13:36:56Z</time>
      </trkpt>
      <trkpt lat="46.0238" lon="6.77388">
        <ele>1083</ele>
        <time>2019-06-11T13:36:57Z</time>
      </trkpt>
      <trkpt lat="46.02339" lon="6.77362">
        <ele>1094</ele>
        <time>2019-06-11T13:37:05Z</time>
      </trkpt>
      <trkpt lat="46.02329" lon="6.77359">
        <ele>1096</ele>
        <time>2019-06-11T13:37:07Z</time>
      </trkpt>
      <trkpt lat="46.02323" lon="6.7736">
        <ele>1098</ele>
        <time>2019-06-11T13:37:08Z</time>
      </trkpt>
      <trkpt lat="46.02313" lon="6.77367">
        <ele>1098</ele>
        <time>2019-06-11T13:37:10Z</time>
      </trkpt>
      <trkpt lat="46.02303" lon="6.77377">
        <ele>1098</ele>
        <time>2019-06-11T13:37:12Z</time>
      </trkpt>
      <trkpt lat="46.02295" lon="6.77391">
        <ele>1097</ele>
        <time>2019-06-11T13:37:15Z</time>
      </trkpt>
      <trkpt lat="46.02278" lon="6.77417">
        <ele>1095</ele>
        <time>2019-06-11T13:37:19Z</time>
      </trkpt>
      <trkpt lat="46.02272" lon="6.77431">
        <ele>1095</ele>
        <time>2019-06-11T13:37:21Z</time>
      </trkpt>
      <trkpt lat="46.02264" lon="6.77455">
        <ele>1095</ele>
        <time>2019-06-11T13:37:24Z</time>
      </trkpt>
      <trkpt lat="46.02252" lon="6.77524">
        <ele>1093</ele>
        <time>2019-06-11T13:37:33Z</time>
      </trkpt>
      <trkpt lat="46.02249" lon="6.77535">
        <ele>1093</ele>
        <time>2019-06-11T13:37:35Z</time>
      </trkpt>
      <trkpt lat="46.02245" lon="6.77539">
        <ele>1095</ele>
        <time>2019-06-11T13:37:35Z</time>
      </trkpt>
      <trkpt lat="46.02241" lon="6.7754">
        <ele>1097</ele>
        <time>2019-06-11T13:37:36Z</time>
      </trkpt>
      <trkpt lat="46.02238" lon="6.7754">
        <ele>1099</ele>
        <time>2019-06-11T13:37:37Z</time>
      </trkpt>
      <trkpt lat="46.02234" lon="6.77536">
        <ele>1101</ele>
        <time>2019-06-11T13:37:38Z</time>
      </trkpt>
      <trkpt lat="46.0223" lon="6.77525">
        <ele>1104</ele>
        <time>2019-06-11T13:37:39Z</time>
      </trkpt>
      <trkpt lat="46.02229" lon="6.77504">
        <ele>1106</ele>
        <time>2019-06-11T13:37:42Z</time>
      </trkpt>
      <trkpt lat="46.02233" lon="6.77438">
        <ele>1110</ele>
        <time>2019-06-11T13:37:50Z</time>
      </trkpt>
      <trkpt lat="46.0224" lon="6.77411">
        <ele>1109</ele>
        <time>2019-06-11T13:37:53Z</time>
      </trkpt>
      <trkpt lat="46.02257" lon="6.77373">
        <ele>1109</ele>
        <time>2019-06-11T13:37:59Z</time>
      </trkpt>
      <trkpt lat="46.02265" lon="6.77346">
        <ele>1113</ele>
        <time>2019-06-11T13:38:03Z</time>
      </trkpt>
      <trkpt lat="46.02269" lon="6.77328">
        <ele>1116</ele>
        <time>2019-06-11T13:38:05Z</time>
      </trkpt>
      <trkpt lat="46.02276" lon="6.7723">
        <ele>1124</ele>
        <time>2019-06-11T13:38:17Z</time>
      </trkpt>
      <trkpt lat="46.02281" lon="6.77213">
        <ele>1124</ele>
        <time>2019-06-11T13:38:19Z</time>
      </trkpt>
      <trkpt lat="46.02305" lon="6.77186">
        <ele>1124</ele>
        <time>2019-06-11T13:38:25Z</time>
      </trkpt>
      <trkpt lat="46.02317" lon="6.77169">
        <ele>1124</ele>
        <time>2019-06-11T13:38:28Z</time>
      </trkpt>
      <trkpt lat="46.02367" lon="6.77119">
        <ele>1125</ele>
        <time>2019-06-11T13:38:39Z</time>
      </trkpt>
      <trkpt lat="46.02376" lon="6.77106">
        <ele>1125</ele>
        <time>2019-06-11T13:38:41Z</time>
      </trkpt>
      <trkpt lat="46.02381" lon="6.77092">
        <ele>1125</ele>
        <time>2019-06-11T13:38:43Z</time>
      </trkpt>
      <trkpt lat="46.0238" lon="6.77074">
        <ele>1125</ele>
        <time>2019-06-11T13:38:45Z</time>
      </trkpt>
      <trkpt lat="46.02375" lon="6.77055">
        <ele>1125</ele>
        <time>2019-06-11T13:38:48Z</time>
      </trkpt>
      <trkpt lat="46.02361" lon="6.77017">
        <ele>1125</ele>
        <time>2019-06-11T13:38:53Z</time>
      </trkpt>
      <trkpt lat="46.02355" lon="6.77009">
        <ele>1125</ele>
        <time>2019-06-11T13:38:54Z</time>
      </trkpt>
      <trkpt lat="46.02342" lon="6.77004">
        <ele>1126</ele>
        <time>2019-06-11T13:38:57Z</time>
      </trkpt>
      <trkpt lat="46.02323" lon="6.77014">
        <ele>1126</ele>
        <time>2019-06-11T13:39:00Z</time>
      </trkpt>
      <trkpt lat="46.02307" lon="6.77014">
        <ele>1128</ele>
        <time>2019-06-11T13:39:03Z</time>
      </trkpt>
      <trkpt lat="46.02257" lon="6.77001">
        <ele>1134</ele>
        <time>2019-06-11T13:39:12Z</time>
      </trkpt>
      <trkpt lat="46.02247" lon="6.76996">
        <ele>1136</ele>
        <time>2019-06-11T13:39:14Z</time>
      </trkpt>
      <trkpt lat="46.02239" lon="6.76996">
        <ele>1138</ele>
        <time>2019-06-11T13:39:16Z</time>
      </trkpt>
      <trkpt lat="46.02226" lon="6.77002">
        <ele>1140</ele>
        <time>2019-06-11T13:39:18Z</time>
      </trkpt>
      <trkpt lat="46.02206" lon="6.77022">
        <ele>1145</ele>
        <time>2019-06-11T13:39:22Z</time>
      </trkpt>
      <trkpt lat="46.02193" lon="6.77044">
        <ele>1147</ele>
        <time>2019-06-11T13:39:26Z</time>
      </trkpt>
      <trkpt lat="46.02177" lon="6.77081">
        <ele>1150</ele>
        <time>2019-06-11T13:39:31Z</time>
      </trkpt>
      <trkpt lat="46.02173" lon="6.77087">
        <ele>1152</ele>
        <time>2019-06-11T13:39:32Z</time>
      </trkpt>
      <trkpt lat="46.02166" lon="6.77092">
        <ele>1154</ele>
        <time>2019-06-11T13:39:34Z</time>
      </trkpt>
      <trkpt lat="46.02158" lon="6.77088">
        <ele>1158</ele>
        <time>2019-06-11T13:39:35Z</time>
      </trkpt>
      <trkpt lat="46.02155" lon="6.77084">
        <ele>1159</ele>
        <time>2019-06-11T13:39:36Z</time>
      </trkpt>
      <trkpt lat="46.02153" lon="6.77075">
        <ele>1160</ele>
        <time>2019-06-11T13:39:37Z</time>
      </trkpt>
      <trkpt lat="46.02153" lon="6.77063">
        <ele>1160</ele>
        <time>2019-06-11T13:39:39Z</time>
      </trkpt>
      <trkpt lat="46.02165" lon="6.77018">
        <ele>1154</ele>
        <time>2019-06-11T13:39:45Z</time>
      </trkpt>
      <trkpt lat="46.02171" lon="6.76937">
        <ele>1159</ele>
        <time>2019-06-11T13:39:55Z</time>
      </trkpt>
      <trkpt lat="46.02177" lon="6.76915">
        <ele>1159</ele>
        <time>2019-06-11T13:39:58Z</time>
      </trkpt>
      <trkpt lat="46.02192" lon="6.76892">
        <ele>1157</ele>
        <time>2019-06-11T13:40:01Z</time>
      </trkpt>
      <trkpt lat="46.02193" lon="6.76879">
        <ele>1158</ele>
        <time>2019-06-11T13:40:03Z</time>
      </trkpt>
      <trkpt lat="46.0219" lon="6.76873">
        <ele>1159</ele>
        <time>2019-06-11T13:40:04Z</time>
      </trkpt>
      <trkpt lat="46.02183" lon="6.76867">
        <ele>1161</ele>
        <time>2019-06-11T13:40:05Z</time>
      </trkpt>
      <trkpt lat="46.02175" lon="6.76866">
        <ele>1163</ele>
        <time>2019-06-11T13:40:07Z</time>
      </trkpt>
      <trkpt lat="46.0217" lon="6.76869">
        <ele>1164</ele>
        <time>2019-06-11T13:40:08Z</time>
      </trkpt>
      <trkpt lat="46.02159" lon="6.76884">
        <ele>1167</ele>
        <time>2019-06-11T13:40:11Z</time>
      </trkpt>
      <trkpt lat="46.02152" lon="6.769">
        <ele>1168</ele>
        <time>2019-06-11T13:40:13Z</time>
      </trkpt>
      <trkpt lat="46.02147" lon="6.76917">
        <ele>1169</ele>
        <time>2019-06-11T13:40:15Z</time>
      </trkpt>
      <trkpt lat="46.02139" lon="6.76953">
        <ele>1169</ele>
        <time>2019-06-11T13:40:20Z</time>
      </trkpt>
      <trkpt lat="46.02133" lon="6.76963">
        <ele>1170</ele>
        <time>2019-06-11T13:40:21Z</time>
      </trkpt>
      <trkpt lat="46.0213" lon="6.76966">
        <ele>1171</ele>
        <time>2019-06-11T13:40:22Z</time>
      </trkpt>
      <trkpt lat="46.02118" lon="6.76968">
        <ele>1176</ele>
        <time>2019-06-11T13:40:24Z</time>
      </trkpt>
      <trkpt lat="46.02112" lon="6.7696">
        <ele>1179</ele>
        <time>2019-06-11T13:40:26Z</time>
      </trkpt>
      <trkpt lat="46.02111" lon="6.76945">
        <ele>1180</ele>
        <time>2019-06-11T13:40:28Z</time>
      </trkpt>
      <trkpt lat="46.02114" lon="6.7692">
        <ele>1181</ele>
        <time>2019-06-11T13:40:31Z</time>
      </trkpt>
      <trkpt lat="46.02123" lon="6.76887">
        <ele>1179</ele>
        <time>2019-06-11T13:40:35Z</time>
      </trkpt>
      <trkpt lat="46.0213" lon="6.76846">
        <ele>1178</ele>
        <time>2019-06-11T13:40:40Z</time>
      </trkpt>
      <trkpt lat="46.02132" lon="6.76825">
        <ele>1178</ele>
        <time>2019-06-11T13:40:43Z</time>
      </trkpt>
      <trkpt lat="46.0213" lon="6.76805">
        <ele>1180</ele>
        <time>2019-06-11T13:40:45Z</time>
      </trkpt>
      <trkpt lat="46.02125" lon="6.768">
        <ele>1181</ele>
        <time>2019-06-11T13:40:47Z</time>
      </trkpt>
      <trkpt lat="46.02119" lon="6.768">
        <ele>1183</ele>
        <time>2019-06-11T13:40:48Z</time>
      </trkpt>
      <trkpt lat="46.02102" lon="6.76816">
        <ele>1188</ele>
        <time>2019-06-11T13:40:51Z</time>
      </trkpt>
      <trkpt lat="46.02119" lon="6.768">
        <ele>1183</ele>
        <time>2019-06-11T13:40:55Z</time>
      </trkpt>
      <trkpt lat="46.02125" lon="6.768">
        <ele>1181</ele>
        <time>2019-06-11T13:40:56Z</time>
      </trkpt>
      <trkpt lat="46.0213" lon="6.76805">
        <ele>1180</ele>
        <time>2019-06-11T13:40:57Z</time>
      </trkpt>
      <trkpt lat="46.02131" lon="6.76809">
        <ele>1179</ele>
        <time>2019-06-11T13:40:57Z</time>
      </trkpt>
      <trkpt lat="46.02132" lon="6.76825">
        <ele>1178</ele>
        <time>2019-06-11T13:40:59Z</time>
      </trkpt>
      <trkpt lat="46.0213" lon="6.76846">
        <ele>1178</ele>
        <time>2019-06-11T13:41:02Z</time>
      </trkpt>
      <trkpt lat="46.02123" lon="6.76887">
        <ele>1179</ele>
        <time>2019-06-11T13:41:07Z</time>
      </trkpt>
      <trkpt lat="46.02114" lon="6.7692">
        <ele>1181</ele>
        <time>2019-06-11T13:41:12Z</time>
      </trkpt>
      <trkpt lat="46.02111" lon="6.76945">
        <ele>1180</ele>
        <time>2019-06-11T13:41:15Z</time>
      </trkpt>
      <trkpt lat="46.02112" lon="6.7696">
        <ele>1179</ele>
        <time>2019-06-11T13:41:17Z</time>
      </trkpt>
      <trkpt lat="46.02118" lon="6.76968">
        <ele>1176</ele>
        <time>2019-06-11T13:41:18Z</time>
      </trkpt>
      <trkpt lat="46.0213" lon="6.76966">
        <ele>1171</ele>
        <time>2019-06-11T13:41:20Z</time>
      </trkpt>
      <trkpt lat="46.02133" lon="6.76963">
        <ele>1170</ele>
        <time>2019-06-11T13:41:21Z</time>
      </trkpt>
      <trkpt lat="46.02139" lon="6.76953">
        <ele>1169</ele>
        <time>2019-06-11T13:41:23Z</time>
      </trkpt>
      <trkpt lat="46.02147" lon="6.76917">
        <ele>1169</ele>
        <time>2019-06-11T13:41:27Z</time>
      </trkpt>
      <trkpt lat="46.02152" lon="6.769">
        <ele>1168</ele>
        <time>2019-06-11T13:41:30Z</time>
      </trkpt>
      <trkpt lat="46.02159" lon="6.76884">
        <ele>1167</ele>
        <time>2019-06-11T13:41:32Z</time>
      </trkpt>
      <trkpt lat="46.0217" lon="6.76869">
        <ele>1164</ele>
        <time>2019-06-11T13:41:35Z</time>
      </trkpt>
      <trkpt lat="46.02175" lon="6.76866">
        <ele>1163</ele>
        <time>2019-06-11T13:41:36Z</time>
      </trkpt>
      <trkpt lat="46.02183" lon="6.76867">
        <ele>1161</ele>
        <time>2019-06-11T13:41:37Z</time>
      </trkpt>
      <trkpt lat="46.0219" lon="6.76873">
        <ele>1159</ele>
        <time>2019-06-11T13:41:38Z</time>
      </trkpt>
      <trkpt lat="46.02193" lon="6.76879">
        <ele>1158</ele>
        <time>2019-06-11T13:41:39Z</time>
      </trkpt>
      <trkpt lat="46.02192" lon="6.76892">
        <ele>1157</ele>
        <time>2019-06-11T13:41:41Z</time>
      </trkpt>
      <trkpt lat="46.02177" lon="6.76915">
        <ele>1159</ele>
        <time>2019-06-11T13:41:45Z</time>
      </trkpt>
      <trkpt lat="46.02171" lon="6.76937">
        <ele>1159</ele>
        <time>2019-06-11T13:41:48Z</time>
      </trkpt>
      <trkpt lat="46.02165" lon="6.77018">
        <ele>1154</ele>
        <time>2019-06-11T13:41:58Z</time>
      </trkpt>
      <trkpt lat="46.02153" lon="6.77063">
        <ele>1160</ele>
        <time>2019-06-11T13:42:04Z</time>
      </trkpt>
      <trkpt lat="46.02153" lon="6.77075">
        <ele>1160</ele>
        <time>2019-06-11T13:42:05Z</time>
      </trkpt>
      <trkpt lat="46.02155" lon="6.77084">
        <ele>1159</ele>
        <time>2019-06-11T13:42:06Z</time>
      </trkpt>
      <trkpt lat="46.02158" lon="6.77088">
        <ele>1158</ele>
        <time>2019-06-11T13:42:07Z</time>
      </trkpt>
      <trkpt lat="46.02166" lon="6.77092">
        <ele>1154</ele>
        <time>2019-06-11T13:42:09Z</time>
      </trkpt>
      <trkpt lat="46.02173" lon="6.77087">
        <ele>1152</ele>
        <time>2019-06-11T13:42:10Z</time>
      </trkpt>
      <trkpt lat="46.02177" lon="6.77081">
        <ele>1150</ele>
        <time>2019-06-11T13:42:11Z</time>
      </trkpt>
      <trkpt lat="46.02193" lon="6.77044">
        <ele>1147</ele>
        <time>2019-06-11T13:42:16Z</time>
      </trkpt>
      <trkpt lat="46.02206" lon="6.77022">
        <ele>1145</ele>
        <time>2019-06-11T13:42:20Z</time>
      </trkpt>
      <trkpt lat="46.02226" lon="6.77002">
        <ele>1140</ele>
        <time>2019-06-11T13:42:24Z</time>
      </trkpt>
      <trkpt lat="46.02239" lon="6.76996">
        <ele>1138</ele>
        <time>2019-06-11T13:42:27Z</time>
      </trkpt>
      <trkpt lat="46.02247" lon="6.76996">
        <ele>1136</ele>
        <time>2019-06-11T13:42:28Z</time>
      </trkpt>
      <trkpt lat="46.02257" lon="6.77001">
        <ele>1134</ele>
        <time>2019-06-11T13:42:30Z</time>
      </trkpt>
      <trkpt lat="46.02307" lon="6.77014">
        <ele>1128</ele>
        <time>2019-06-11T13:42:39Z</time>
      </trkpt>
      <trkpt lat="46.02323" lon="6.77014">
        <ele>1126</ele>
        <time>2019-06-11T13:42:42Z</time>
      </trkpt>
      <trkpt lat="46.02342" lon="6.77004">
        <ele>1126</ele>
        <time>2019-06-11T13:42:46Z</time>
      </trkpt>
      <trkpt lat="46.02355" lon="6.77009">
        <ele>1125</ele>
        <time>2019-06-11T13:42:48Z</time>
      </trkpt>
      <trkpt lat="46.02361" lon="6.77017">
        <ele>1125</ele>
        <time>2019-06-11T13:42:49Z</time>
      </trkpt>
      <trkpt lat="46.02375" lon="6.77055">
        <ele>1125</ele>
        <time>2019-06-11T13:42:55Z</time>
      </trkpt>
      <trkpt lat="46.0238" lon="6.77074">
        <ele>1125</ele>
        <time>2019-06-11T13:42:57Z</time>
      </trkpt>
      <trkpt lat="46.02381" lon="6.77092">
        <ele>1125</ele>
        <time>2019-06-11T13:42:59Z</time>
      </trkpt>
      <trkpt lat="46.02376" lon="6.77106">
        <ele>1125</ele>
        <time>2019-06-11T13:43:01Z</time>
      </trkpt>
      <trkpt lat="46.02367" lon="6.77119">
        <ele>1125</ele>
        <time>2019-06-11T13:43:04Z</time>
      </trkpt>
      <trkpt lat="46.02317" lon="6.77169">
        <ele>1124</ele>
        <time>2019-06-11T13:43:15Z</time>
      </trkpt>
      <trkpt lat="46.02305" lon="6.77186">
        <ele>1124</ele>
        <time>2019-06-11T13:43:18Z</time>
      </trkpt>
      <trkpt lat="46.02281" lon="6.77213">
        <ele>1124</ele>
        <time>2019-06-11T13:43:23Z</time>
      </trkpt>
      <trkpt lat="46.02276" lon="6.7723">
        <ele>1124</ele>
        <time>2019-06-11T13:43:25Z</time>
      </trkpt>
      <trkpt lat="46.02269" lon="6.77328">
        <ele>1116</ele>
        <time>2019-06-11T13:43:37Z</time>
      </trkpt>
      <trkpt lat="46.02265" lon="6.77346">
        <ele>1113</ele>
        <time>2019-06-11T13:43:40Z</time>
      </trkpt>
      <trkpt lat="46.02257" lon="6.77373">
        <ele>1109</ele>
        <time>2019-06-11T13:43:43Z</time>
      </trkpt>
      <trkpt lat="46.0224" lon="6.77411">
        <ele>1109</ele>
        <time>2019-06-11T13:43:49Z</time>
      </trkpt>
      <trkpt lat="46.02233" lon="6.77438">
        <ele>1110</ele>
        <time>2019-06-11T13:43:53Z</time>
      </trkpt>
      <trkpt lat="46.02229" lon="6.77504">
        <ele>1106</ele>
        <time>2019-06-11T13:44:01Z</time>
      </trkpt>
      <trkpt lat="46.0223" lon="6.77525">
        <ele>1104</ele>
        <time>2019-06-11T13:44:03Z</time>
      </trkpt>
      <trkpt lat="46.02234" lon="6.77536">
        <ele>1101</ele>
        <time>2019-06-11T13:44:05Z</time>
      </trkpt>
      <trkpt lat="46.02238" lon="6.7754">
        <ele>1099</ele>
        <time>2019-06-11T13:44:06Z</time>
      </trkpt>
      <trkpt lat="46.02241" lon="6.7754">
        <ele>1097</ele>
        <time>2019-06-11T13:44:06Z</time>
      </trkpt>
      <trkpt lat="46.02245" lon="6.77539">
        <ele>1095</ele>
        <time>2019-06-11T13:44:07Z</time>
      </trkpt>
      <trkpt lat="46.02249" lon="6.77535">
        <ele>1093</ele>
        <time>2019-06-11T13:44:08Z</time>
      </trkpt>
      <trkpt lat="46.02252" lon="6.77524">
        <ele>1093</ele>
        <time>2019-06-11T13:44:09Z</time>
      </trkpt>
      <trkpt lat="46.02264" lon="6.77455">
        <ele>1095</ele>
        <time>2019-06-11T13:44:18Z</time>
      </trkpt>
      <trkpt lat="46.02272" lon="6.77431">
        <ele>1095</ele>
        <time>2019-06-11T13:44:21Z</time>
      </trkpt>
      <trkpt lat="46.02278" lon="6.77417">
        <ele>1095</ele>
        <time>2019-06-11T13:44:23Z</time>
      </trkpt>
      <trkpt lat="46.02295" lon="6.77391">
        <ele>1097</ele>
        <time>2019-06-11T13:44:28Z</time>
      </trkpt>
      <trkpt lat="46.02303" lon="6.77377">
        <ele>1098</ele>
        <time>2019-06-11T13:44:30Z</time>
      </trkpt>
      <trkpt lat="46.02313" lon="6.77367">
        <ele>1098</ele>
        <time>2019-06-11T13:44:32Z</time>
      </trkpt>
      <trkpt lat="46.02323" lon="6.7736">
        <ele>1098</ele>
        <time>2019-06-11T13:44:34Z</time>
      </trkpt>
      <trkpt lat="46.02329" lon="6.77359">
        <ele>1096</ele>
        <time>2019-06-11T13:44:35Z</time>
      </trkpt>
      <trkpt lat="46.02339" lon="6.77362">
        <ele>1094</ele>
        <time>2019-06-11T13:44:37Z</time>
      </trkpt>
      <trkpt lat="46.0238" lon="6.77388">
        <ele>1083</ele>
        <time>2019-06-11T13:44:45Z</time>
      </trkpt>
      <trkpt lat="46.02389" lon="6.7739">
        <ele>1082</ele>
        <time>2019-06-11T13:44:47Z</time>
      </trkpt>
      <trkpt lat="46.02402" lon="6.77385">
        <ele>1082</ele>
        <time>2019-06-11T13:44:49Z</time>
      </trkpt>
      <trkpt lat="46.02428" lon="6.77361">
        <ele>1087</ele>
        <time>2019-06-11T13:44:55Z</time>
      </trkpt>
      <trkpt lat="46.02434" lon="6.77362">
        <ele>1085</ele>
        <time>2019-06-11T13:44:56Z</time>
      </trkpt>
      <trkpt lat="46.02437" lon="6.77371">
        <ele>1081</ele>
        <time>2019-06-11T13:44:57Z</time>
      </trkpt>
      <trkpt lat="46.02434" lon="6.77381">
        <ele>1078</ele>
        <time>2019-06-11T13:44:58Z</time>
      </trkpt>
      <trkpt lat="46.02413" lon="6.77404">
        <ele>1074</ele>
        <time>2019-06-11T13:45:03Z</time>
      </trkpt>
      <trkpt lat="46.02408" lon="6.77408">
        <ele>1073</ele>
        <time>2019-06-11T13:45:04Z</time>
      </trkpt>
      <trkpt lat="46.02374" lon="6.77418">
        <ele>1074</ele>
        <time>2019-06-11T13:45:10Z</time>
      </trkpt>
      <trkpt lat="46.0237" lon="6.77422">
        <ele>1074</ele>
        <time>2019-06-11T13:45:11Z</time>
      </trkpt>
      <trkpt lat="46.02365" lon="6.77435">
        <ele>1072</ele>
        <time>2019-06-11T13:45:13Z</time>
      </trkpt>
      <trkpt lat="46.02356" lon="6.77505">
        <ele>1061</ele>
        <time>2019-06-11T13:45:22Z</time>
      </trkpt>
      <trkpt lat="46.02339" lon="6.7758">
        <ele>1060</ele>
        <time>2019-06-11T13:45:31Z</time>
      </trkpt>
      <trkpt lat="46.02341" lon="6.77593">
        <ele>1059</ele>
        <time>2019-06-11T13:45:33Z</time>
      </trkpt>
      <trkpt lat="46.02347" lon="6.77603">
        <ele>1058</ele>
        <time>2019-06-11T13:45:35Z</time>
      </trkpt>
      <trkpt lat="46.02352" lon="6.77605">
        <ele>1057</ele>
        <time>2019-06-11T13:45:36Z</time>
      </trkpt>
      <trkpt lat="46.02361" lon="6.77603">
        <ele>1056</ele>
        <time>2019-06-11T13:45:37Z</time>
      </trkpt>
      <trkpt lat="46.02368" lon="6.77595">
        <ele>1056</ele>
        <time>2019-06-11T13:45:39Z</time>
      </trkpt>
      <trkpt lat="46.02382" lon="6.77569">
        <ele>1054</ele>
        <time>2019-06-11T13:45:43Z</time>
      </trkpt>
      <trkpt lat="46.02391" lon="6.77563">
        <ele>1053</ele>
        <time>2019-06-11T13:45:45Z</time>
      </trkpt>
      <trkpt lat="46.02463" lon="6.77554">
        <ele>1047</ele>
        <time>2019-06-11T13:45:57Z</time>
      </trkpt>
      <trkpt lat="46.02482" lon="6.77548">
        <ele>1045</ele>
        <time>2019-06-11T13:46:01Z</time>
      </trkpt>
      <trkpt lat="46.02553" lon="6.77507">
        <ele>1036</ele>
        <time>2019-06-11T13:46:15Z</time>
      </trkpt>
      <trkpt lat="46.02562" lon="6.77499">
        <ele>1035</ele>
        <time>2019-06-11T13:46:16Z</time>
      </trkpt>
      <trkpt lat="46.02583" lon="6.77464">
        <ele>1036</ele>
        <time>2019-06-11T13:46:22Z</time>
      </trkpt>
      <trkpt lat="46.02591" lon="6.77459">
        <ele>1034</ele>
        <time>2019-06-11T13:46:24Z</time>
      </trkpt>
      <trkpt lat="46.02595" lon="6.77459">
        <ele>1033</ele>
        <time>2019-06-11T13:46:24Z</time>
      </trkpt>
      <trkpt lat="46.02601" lon="6.77463">
        <ele>1031</ele>
        <time>2019-06-11T13:46:26Z</time>
      </trkpt>
      <trkpt lat="46.02605" lon="6.7747">
        <ele>1030</ele>
        <time>2019-06-11T13:46:27Z</time>
      </trkpt>
      <trkpt lat="46.02607" lon="6.77479">
        <ele>1029</ele>
        <time>2019-06-11T13:46:28Z</time>
      </trkpt>
      <trkpt lat="46.02606" lon="6.77491">
        <ele>1029</ele>
        <time>2019-06-11T13:46:29Z</time>
      </trkpt>
      <trkpt lat="46.02597" lon="6.77541">
        <ele>1028</ele>
        <time>2019-06-11T13:46:36Z</time>
      </trkpt>
      <trkpt lat="46.02592" lon="6.77554">
        <ele>1029</ele>
        <time>2019-06-11T13:46:38Z</time>
      </trkpt>
      <trkpt lat="46.02586" lon="6.77558">
        <ele>1030</ele>
        <time>2019-06-11T13:46:39Z</time>
      </trkpt>
      <trkpt lat="46.02574" lon="6.77557">
        <ele>1033</ele>
        <time>2019-06-11T13:46:41Z</time>
      </trkpt>
      <trkpt lat="46.02566" lon="6.7756">
        <ele>1034</ele>
        <time>2019-06-11T13:46:42Z</time>
      </trkpt>
      <trkpt lat="46.02561" lon="6.77566">
        <ele>1035</ele>
        <time>2019-06-11T13:46:43Z</time>
      </trkpt>
      <trkpt lat="46.0256" lon="6.77575">
        <ele>1035</ele>
        <time>2019-06-11T13:46:45Z</time>
      </trkpt>
      <trkpt lat="46.02563" lon="6.77585">
        <ele>1034</ele>
        <time>2019-06-11T13:46:46Z</time>
      </trkpt>
      <trkpt lat="46.02569" lon="6.7759">
        <ele>1034</ele>
        <time>2019-06-11T13:46:47Z</time>
      </trkpt>
      <trkpt lat="46.02599" lon="6.77595">
        <ele>1027</ele>
        <time>2019-06-11T13:46:53Z</time>
      </trkpt>
      <trkpt lat="46.02611" lon="6.77587">
        <ele>1024</ele>
        <time>2019-06-11T13:46:55Z</time>
      </trkpt>
      <trkpt lat="46.02648" lon="6.77534">
        <ele>1017</ele>
        <time>2019-06-11T13:47:04Z</time>
      </trkpt>
      <trkpt lat="46.02667" lon="6.77478">
        <ele>1015</ele>
        <time>2019-06-11T13:47:12Z</time>
      </trkpt>
      <trkpt lat="46.02676" lon="6.77427">
        <ele>1012</ele>
        <time>2019-06-11T13:47:18Z</time>
      </trkpt>
      <trkpt lat="46.02676" lon="6.77385">
        <ele>1018</ele>
        <time>2019-06-11T13:47:24Z</time>
      </trkpt>
      <trkpt lat="46.02681" lon="6.77352">
        <ele>1021</ele>
        <time>2019-06-11T13:47:28Z</time>
      </trkpt>
      <trkpt lat="46.02685" lon="6.77343">
        <ele>1021</ele>
        <time>2019-06-11T13:47:29Z</time>
      </trkpt>
      <trkpt lat="46.02691" lon="6.7734">
        <ele>1019</ele>
        <time>2019-06-11T13:47:30Z</time>
      </trkpt>
      <trkpt lat="46.02694" lon="6.7734">
        <ele>1018</ele>
        <time>2019-06-11T13:47:31Z</time>
      </trkpt>
      <trkpt lat="46.02703" lon="6.77348">
        <ele>1013</ele>
        <time>2019-06-11T13:47:33Z</time>
      </trkpt>
      <trkpt lat="46.02713" lon="6.77379">
        <ele>1005</ele>
        <time>2019-06-11T13:47:37Z</time>
      </trkpt>
      <trkpt lat="46.0272" lon="6.77389">
        <ele>1002</ele>
        <time>2019-06-11T13:47:39Z</time>
      </trkpt>
      <trkpt lat="46.02727" lon="6.77396">
        <ele>999</ele>
        <time>2019-06-11T13:47:40Z</time>
      </trkpt>
      <trkpt lat="46.02736" lon="6.77399">
        <ele>996</ele>
        <time>2019-06-11T13:47:42Z</time>
      </trkpt>
      <trkpt lat="46.02744" lon="6.77398">
        <ele>993</ele>
        <time>2019-06-11T13:47:43Z</time>
      </trkpt>
      <trkpt lat="46.02747" lon="6.77396">
        <ele>992</ele>
        <time>2019-06-11T13:47:44Z</time>
      </trkpt>
      <trkpt lat="46.02754" lon="6.77384">
        <ele>991</ele>
        <time>2019-06-11T13:47:46Z</time>
      </trkpt>
      <trkpt lat="46.02762" lon="6.77344">
        <ele>990</ele>
        <time>2019-06-11T13:47:51Z</time>
      </trkpt>
      <trkpt lat="46.02766" lon="6.77338">
        <ele>990</ele>
        <time>2019-06-11T13:47:52Z</time>
      </trkpt>
      <trkpt lat="46.02771" lon="6.77337">
        <ele>989</ele>
        <time>2019-06-11T13:47:53Z</time>
      </trkpt>
      <trkpt lat="46.02775" lon="6.77339">
        <ele>988</ele>
        <time>2019-06-11T13:47:54Z</time>
      </trkpt>
      <trkpt lat="46.02781" lon="6.77349">
        <ele>986</ele>
        <time>2019-06-11T13:47:55Z</time>
      </trkpt>
      <trkpt lat="46.02782" lon="6.77357">
        <ele>985</ele>
        <time>2019-06-11T13:47:56Z</time>
      </trkpt>
      <trkpt lat="46.0278" lon="6.77371">
        <ele>985</ele>
        <time>2019-06-11T13:47:58Z</time>
      </trkpt>
      <trkpt lat="46.02771" lon="6.77391">
        <ele>986</ele>
        <time>2019-06-11T13:48:01Z</time>
      </trkpt>
      <trkpt lat="46.0277" lon="6.77408">
        <ele>985</ele>
        <time>2019-06-11T13:48:03Z</time>
      </trkpt>
      <trkpt lat="46.02773" lon="6.77413">
        <ele>984</ele>
        <time>2019-06-11T13:48:04Z</time>
      </trkpt>
      <trkpt lat="46.02778" lon="6.77415">
        <ele>983</ele>
        <time>2019-06-11T13:48:05Z</time>
      </trkpt>
      <trkpt lat="46.02782" lon="6.77414">
        <ele>982</ele>
        <time>2019-06-11T13:48:05Z</time>
      </trkpt>
      <trkpt lat="46.02787" lon="6.7741">
        <ele>980</ele>
        <time>2019-06-11T13:48:06Z</time>
      </trkpt>
      <trkpt lat="46.02815" lon="6.77365">
        <ele>977</ele>
        <time>2019-06-11T13:48:14Z</time>
      </trkpt>
      <trkpt lat="46.02821" lon="6.77351">
        <ele>977</ele>
        <time>2019-06-11T13:48:16Z</time>
      </trkpt>
      <trkpt lat="46.02824" lon="6.77339">
        <ele>977</ele>
        <time>2019-06-11T13:48:18Z</time>
      </trkpt>
      <trkpt lat="46.02824" lon="6.77331">
        <ele>978</ele>
        <time>2019-06-11T13:48:19Z</time>
      </trkpt>
      <trkpt lat="46.02822" lon="6.77324">
        <ele>978</ele>
        <time>2019-06-11T13:48:19Z</time>
      </trkpt>
      <trkpt lat="46.02801" lon="6.7731">
        <ele>982</ele>
        <time>2019-06-11T13:48:24Z</time>
      </trkpt>
      <trkpt lat="46.02796" lon="6.77304">
        <ele>983</ele>
        <time>2019-06-11T13:48:25Z</time>
      </trkpt>
      <trkpt lat="46.02792" lon="6.77285">
        <ele>984</ele>
        <time>2019-06-11T13:48:27Z</time>
      </trkpt>
      <trkpt lat="46.02792" lon="6.77269">
        <ele>984</ele>
        <time>2019-06-11T13:48:29Z</time>
      </trkpt>
      <trkpt lat="46.02794" lon="6.77259">
        <ele>983</ele>
        <time>2019-06-11T13:48:30Z</time>
      </trkpt>
      <trkpt lat="46.02799" lon="6.77247">
        <ele>982</ele>
        <time>2019-06-11T13:48:32Z</time>
      </trkpt>
      <trkpt lat="46.02809" lon="6.77235">
        <ele>980</ele>
        <time>2019-06-11T13:48:35Z</time>
      </trkpt>
      <trkpt lat="46.02838" lon="6.77206">
        <ele>969</ele>
        <time>2019-06-11T13:48:41Z</time>
      </trkpt>
      <trkpt lat="46.02851" lon="6.77189">
        <ele>965</ele>
        <time>2019-06-11T13:48:44Z</time>
      </trkpt>
      <trkpt lat="46.02861" lon="6.77175">
        <ele>961</ele>
        <time>2019-06-11T13:48:46Z</time>
      </trkpt>
      <trkpt lat="46.02866" lon="6.77153">
        <ele>961</ele>
        <time>2019-06-11T13:48:49Z</time>
      </trkpt>
      <trkpt lat="46.02863" lon="6.77114">
        <ele>968</ele>
        <time>2019-06-11T13:48:54Z</time>
      </trkpt>
      <trkpt lat="46.02866" lon="6.77108">
        <ele>968</ele>
        <time>2019-06-11T13:48:55Z</time>
      </trkpt>
      <trkpt lat="46.02869" lon="6.77104">
        <ele>968</ele>
        <time>2019-06-11T13:48:56Z</time>
      </trkpt>
      <trkpt lat="46.02896" lon="6.77093">
        <ele>961</ele>
        <time>2019-06-11T13:49:01Z</time>
      </trkpt>
      <trkpt lat="46.02926" lon="6.77074">
        <ele>957</ele>
        <time>2019-06-11T13:49:07Z</time>
      </trkpt>
      <trkpt lat="46.02972" lon="6.77038">
        <ele>955</ele>
        <time>2019-06-11T13:49:16Z</time>
      </trkpt>
      <trkpt lat="46.0299" lon="6.77032">
        <ele>951</ele>
        <time>2019-06-11T13:49:19Z</time>
      </trkpt>
      <trkpt lat="46.03039" lon="6.77023">
        <ele>945</ele>
        <time>2019-06-11T13:49:28Z</time>
      </trkpt>
      <trkpt lat="46.03072" lon="6.77">
        <ele>947</ele>
        <time>2019-06-11T13:49:34Z</time>
      </trkpt>
      <trkpt lat="46.03076" lon="6.76999">
        <ele>947</ele>
        <time>2019-06-11T13:49:35Z</time>
      </trkpt>
      <trkpt lat="46.03097" lon="6.77003">
        <ele>944</ele>
        <time>2019-06-11T13:49:39Z</time>
      </trkpt>
      <trkpt lat="46.03125" lon="6.77015">
        <ele>937</ele>
        <time>2019-06-11T13:49:44Z</time>
      </trkpt>
      <trkpt lat="46.03135" lon="6.77017">
        <ele>936</ele>
        <time>2019-06-11T13:49:46Z</time>
      </trkpt>
      <trkpt lat="46.03197" lon="6.77015">
        <ele>925</ele>
        <time>2019-06-11T13:49:57Z</time>
      </trkpt>
      <trkpt lat="46.03208" lon="6.77011">
        <ele>923</ele>
        <time>2019-06-11T13:49:59Z</time>
      </trkpt>
      <trkpt lat="46.03227" lon="6.77001">
        <ele>921</ele>
        <time>2019-06-11T13:50:03Z</time>
      </trkpt>
      <trkpt lat="46.0324" lon="6.76988">
        <ele>921</ele>
        <time>2019-06-11T13:50:05Z</time>
      </trkpt>
      <trkpt lat="46.03264" lon="6.76944">
        <ele>928</ele>
        <time>2019-06-11T13:50:12Z</time>
      </trkpt>
      <trkpt lat="46.03271" lon="6.76937">
        <ele>927</ele>
        <time>2019-06-11T13:50:14Z</time>
      </trkpt>
      <trkpt lat="46.03278" lon="6.76935">
        <ele>925</ele>
        <time>2019-06-11T13:50:15Z</time>
      </trkpt>
      <trkpt lat="46.03293" lon="6.76941">
        <ele>916</ele>
        <time>2019-06-11T13:50:18Z</time>
      </trkpt>
      <trkpt lat="46.03303" lon="6.7694">
        <ele>912</ele>
        <time>2019-06-11T13:50:20Z</time>
      </trkpt>
      <trkpt lat="46.03332" lon="6.76915">
        <ele>904</ele>
        <time>2019-06-11T13:50:26Z</time>
      </trkpt>
      <trkpt lat="46.03411" lon="6.76806">
        <ele>897</ele>
        <time>2019-06-11T13:50:45Z</time>
      </trkpt>
      <trkpt lat="46.03417" lon="6.76802">
        <ele>895</ele>
        <time>2019-06-11T13:50:46Z</time>
      </trkpt>
      <trkpt lat="46.03424" lon="6.76806">
        <ele>893</ele>
        <time>2019-06-11T13:50:48Z</time>
      </trkpt>
      <trkpt lat="46.03428" lon="6.76815">
        <ele>890</ele>
        <time>2019-06-11T13:50:49Z</time>
      </trkpt>
      <trkpt lat="46.03429" lon="6.7682">
        <ele>889</ele>
        <time>2019-06-11T13:50:50Z</time>
      </trkpt>
      <trkpt lat="46.03425" lon="6.76832">
        <ele>888</ele>
        <time>2019-06-11T13:50:51Z</time>
      </trkpt>
      <trkpt lat="46.03359" lon="6.76946">
        <ele>890</ele>
        <time>2019-06-11T13:51:10Z</time>
      </trkpt>
      <trkpt lat="46.03335" lon="6.76967">
        <ele>892</ele>
        <time>2019-06-11T13:51:15Z</time>
      </trkpt>
      <trkpt lat="46.0333" lon="6.76977">
        <ele>891</ele>
        <time>2019-06-11T13:51:16Z</time>
      </trkpt>
      <trkpt lat="46.03329" lon="6.76984">
        <ele>890</ele>
        <time>2019-06-11T13:51:17Z</time>
      </trkpt>
      <trkpt lat="46.03326" lon="6.77101">
        <ele>868</ele>
        <time>2019-06-11T13:51:31Z</time>
      </trkpt>
      <trkpt lat="46.03323" lon="6.77115">
        <ele>866</ele>
        <time>2019-06-11T13:51:33Z</time>
      </trkpt>
      <trkpt lat="46.03281" lon="6.77185">
        <ele>869</ele>
        <time>2019-06-11T13:51:45Z</time>
      </trkpt>
      <trkpt lat="46.03281" lon="6.7719">
        <ele>870</ele>
        <time>2019-06-11T13:51:45Z</time>
      </trkpt>
      <trkpt lat="46.03292" lon="6.77222">
        <ele>871</ele>
        <time>2019-06-11T13:51:50Z</time>
      </trkpt>
      <trkpt lat="46.03298" lon="6.77229">
        <ele>871</ele>
        <time>2019-06-11T13:51:51Z</time>
      </trkpt>
      <trkpt lat="46.03307" lon="6.77229">
        <ele>869</ele>
        <time>2019-06-11T13:51:53Z</time>
      </trkpt>
      <trkpt lat="46.03362" lon="6.77199">
        <ele>859</ele>
        <time>2019-06-11T13:52:03Z</time>
      </trkpt>
      <trkpt lat="46.03377" lon="6.77193">
        <ele>856</ele>
        <time>2019-06-11T13:52:06Z</time>
      </trkpt>
      <trkpt lat="46.03419" lon="6.77191">
        <ele>852</ele>
        <time>2019-06-11T13:52:13Z</time>
      </trkpt>
      <trkpt lat="46.03426" lon="6.77193">
        <ele>852</ele>
        <time>2019-06-11T13:52:15Z</time>
      </trkpt>
      <trkpt lat="46.03442" lon="6.77201">
        <ele>853</ele>
        <time>2019-06-11T13:52:18Z</time>
      </trkpt>
      <trkpt lat="46.0345" lon="6.77211">
        <ele>854</ele>
        <time>2019-06-11T13:52:20Z</time>
      </trkpt>
      <trkpt lat="46.03476" lon="6.77276">
        <ele>866</ele>
        <time>2019-06-11T13:52:29Z</time>
      </trkpt>
      <trkpt lat="46.0348" lon="6.77282">
        <ele>867</ele>
        <time>2019-06-11T13:52:30Z</time>
      </trkpt>
      <trkpt lat="46.03495" lon="6.77294">
        <ele>870</ele>
        <time>2019-06-11T13:52:33Z</time>
      </trkpt>
      <trkpt lat="46.03517" lon="6.77303">
        <ele>870</ele>
        <time>2019-06-11T13:52:37Z</time>
      </trkpt>
      <trkpt lat="46.03641" lon="6.77367">
        <ele>872</ele>
        <time>2019-06-11T13:53:00Z</time>
      </trkpt>
      <trkpt lat="46.03653" lon="6.77369">
        <ele>871</ele>
        <time>2019-06-11T13:53:03Z</time>
      </trkpt>
      <trkpt lat="46.03665" lon="6.77367">
        <ele>868</ele>
        <time>2019-06-11T13:53:05Z</time>
      </trkpt>
      <trkpt lat="46.03728" lon="6.77345">
        <ele>862</ele>
        <time>2019-06-11T13:53:16Z</time>
      </trkpt>
      <trkpt lat="46.03743" lon="6.77338">
        <ele>860</ele>
        <time>2019-06-11T13:53:19Z</time>
      </trkpt>
      <trkpt lat="46.03779" lon="6.77311">
        <ele>857</ele>
        <time>2019-06-11T13:53:26Z</time>
      </trkpt>
      <trkpt lat="46.03792" lon="6.77307">
        <ele>857</ele>
        <time>2019-06-11T13:53:29Z</time>
      </trkpt>
      <trkpt lat="46.03808" lon="6.77306">
        <ele>858</ele>
        <time>2019-06-11T13:53:32Z</time>
      </trkpt>
      <trkpt lat="46.03849" lon="6.77315">
        <ele>861</ele>
        <time>2019-06-11T13:53:39Z</time>
      </trkpt>
      <trkpt lat="46.03873" lon="6.77315">
        <ele>861</ele>
        <time>2019-06-11T13:53:43Z</time>
      </trkpt>
      <trkpt lat="46.03885" lon="6.77311">
        <ele>860</ele>
        <time>2019-06-11T13:53:45Z</time>
      </trkpt>
      <trkpt lat="46.03913" lon="6.77298">
        <ele>858</ele>
        <time>2019-06-11T13:53:51Z</time>
      </trkpt>
      <trkpt lat="46.03987" lon="6.77251">
        <ele>861</ele>
        <time>2019-06-11T13:54:05Z</time>
      </trkpt>
      <trkpt lat="46.04008" lon="6.77234">
        <ele>862</ele>
        <time>2019-06-11T13:54:09Z</time>
      </trkpt>
      <trkpt lat="46.0405" lon="6.77177">
        <ele>861</ele>
        <time>2019-06-11T13:54:20Z</time>
      </trkpt>
      <trkpt lat="46.04095" lon="6.77129">
        <ele>860</ele>
        <time>2019-06-11T13:54:30Z</time>
      </trkpt>
      <trkpt lat="46.04159" lon="6.77085">
        <ele>857</ele>
        <time>2019-06-11T13:54:42Z</time>
      </trkpt>
      <trkpt lat="46.04187" lon="6.7707">
        <ele>856</ele>
        <time>2019-06-11T13:54:47Z</time>
      </trkpt>
      <trkpt lat="46.04209" lon="6.77063">
        <ele>855</ele>
        <time>2019-06-11T13:54:51Z</time>
      </trkpt>
      <trkpt lat="46.04222" lon="6.77059">
        <ele>855</ele>
        <time>2019-06-11T13:54:54Z</time>
      </trkpt>
      <trkpt lat="46.04291" lon="6.77048">
        <ele>853</ele>
        <time>2019-06-11T13:55:06Z</time>
      </trkpt>
      <trkpt lat="46.04329" lon="6.77048">
        <ele>852</ele>
        <time>2019-06-11T13:55:13Z</time>
      </trkpt>
      <trkpt lat="46.04392" lon="6.77037">
        <ele>849</ele>
        <time>2019-06-11T13:55:24Z</time>
      </trkpt>
      <trkpt lat="46.04451" lon="6.77019">
        <ele>845</ele>
        <time>2019-06-11T13:55:35Z</time>
      </trkpt>
      <trkpt lat="46.04556" lon="6.76977">
        <ele>837</ele>
        <time>2019-06-11T13:55:54Z</time>
      </trkpt>
      <trkpt lat="46.04594" lon="6.76964">
        <ele>833</ele>
        <time>2019-06-11T13:56:01Z</time>
      </trkpt>
      <trkpt lat="46.04651" lon="6.76951">
        <ele>829</ele>
        <time>2019-06-11T13:56:12Z</time>
      </trkpt>
      <trkpt lat="46.04677" lon="6.76949">
        <ele>827</ele>
        <time>2019-06-11T13:56:16Z</time>
      </trkpt>
      <trkpt lat="46.047" lon="6.76954">
        <ele>825</ele>
        <time>2019-06-11T13:56:20Z</time>
      </trkpt>
      <trkpt lat="46.04781" lon="6.76988">
        <ele>819</ele>
        <time>2019-06-11T13:56:35Z</time>
      </trkpt>
      <trkpt lat="46.04811" lon="6.77004">
        <ele>815</ele>
        <time>2019-06-11T13:56:41Z</time>
      </trkpt>
      <trkpt lat="46.04821" lon="6.77014">
        <ele>814</ele>
        <time>2019-06-11T13:56:43Z</time>
      </trkpt>
      <trkpt lat="46.04831" lon="6.7703">
        <ele>813</ele>
        <time>2019-06-11T13:56:46Z</time>
      </trkpt>
      <trkpt lat="46.04849" lon="6.77074">
        <ele>812</ele>
        <time>2019-06-11T13:56:52Z</time>
      </trkpt>
      <trkpt lat="46.04856" lon="6.77086">
        <ele>811</ele>
        <time>2019-06-11T13:56:54Z</time>
      </trkpt>
      <trkpt lat="46.04924" lon="6.77144">
        <ele>806</ele>
        <time>2019-06-11T13:57:08Z</time>
      </trkpt>
      <trkpt lat="46.05019" lon="6.77233">
        <ele>804</ele>
        <time>2019-06-11T13:57:28Z</time>
      </trkpt>
      <trkpt lat="46.05033" lon="6.77244">
        <ele>803</ele>
        <time>2019-06-11T13:57:31Z</time>
      </trkpt>
      <trkpt lat="46.05065" lon="6.77258">
        <ele>800</ele>
        <time>2019-06-11T13:57:37Z</time>
      </trkpt>
      <trkpt lat="46.05177" lon="6.77283">
        <ele>787</ele>
        <time>2019-06-11T13:57:57Z</time>
      </trkpt>
      <trkpt lat="46.05189" lon="6.77287">
        <ele>785</ele>
        <time>2019-06-11T13:57:59Z</time>
      </trkpt>
      <trkpt lat="46.05199" lon="6.77293">
        <ele>784</ele>
        <time>2019-06-11T13:58:01Z</time>
      </trkpt>
      <trkpt lat="46.05222" lon="6.77315">
        <ele>782</ele>
        <time>2019-06-11T13:58:06Z</time>
      </trkpt>
      <trkpt lat="46.05233" lon="6.7733">
        <ele>782</ele>
        <time>2019-06-11T13:58:09Z</time>
      </trkpt>
      <trkpt lat="46.05246" lon="6.77355">
        <ele>785</ele>
        <time>2019-06-11T13:58:13Z</time>
      </trkpt>
      <trkpt lat="46.053" lon="6.77477">
        <ele>787</ele>
        <time>2019-06-11T13:58:31Z</time>
      </trkpt>
      <trkpt lat="46.05305" lon="6.77484">
        <ele>786</ele>
        <time>2019-06-11T13:58:32Z</time>
      </trkpt>
      <trkpt lat="46.05316" lon="6.77494">
        <ele>782</ele>
        <time>2019-06-11T13:58:34Z</time>
      </trkpt>
      <trkpt lat="46.05332" lon="6.775">
        <ele>775</ele>
        <time>2019-06-11T13:58:37Z</time>
      </trkpt>
      <trkpt lat="46.05369" lon="6.77503">
        <ele>771</ele>
        <time>2019-06-11T13:58:44Z</time>
      </trkpt>
      <trkpt lat="46.0538" lon="6.77508">
        <ele>770</ele>
        <time>2019-06-11T13:58:46Z</time>
      </trkpt>
      <trkpt lat="46.05393" lon="6.77515">
        <ele>769</ele>
        <time>2019-06-11T13:58:48Z</time>
      </trkpt>
      <trkpt lat="46.05451" lon="6.77578">
        <ele>767</ele>
        <time>2019-06-11T13:59:01Z</time>
      </trkpt>
      <trkpt lat="46.05458" lon="6.77582">
        <ele>767</ele>
        <time>2019-06-11T13:59:03Z</time>
      </trkpt>
      <trkpt lat="46.05469" lon="6.77582">
        <ele>766</ele>
        <time>2019-06-11T13:59:05Z</time>
      </trkpt>
      <trkpt lat="46.05528" lon="6.77564">
        <ele>769</ele>
        <time>2019-06-11T13:59:15Z</time>
      </trkpt>
      <trkpt lat="46.05533" lon="6.77609">
        <ele>769</ele>
        <time>2019-06-11T13:59:21Z</time>
      </trkpt>
      <trkpt lat="46.05546" lon="6.77677">
        <ele>770</ele>
        <time>2019-06-11T13:59:30Z</time>
      </trkpt>
      <trkpt lat="46.05553" lon="6.77694">
        <ele>770</ele>
        <time>2019-06-11T13:59:32Z</time>
      </trkpt>
      <trkpt lat="46.05591" lon="6.77743">
        <ele>769</ele>
        <time>2019-06-11T13:59:41Z</time>
      </trkpt>
      <trkpt lat="46.05571" lon="6.77779">
        <ele>771</ele>
        <time>2019-06-11T13:59:47Z</time>
      </trkpt>
      <trkpt lat="46.05573" lon="6.77786">
        <ele>772</ele>
        <time>2019-06-11T13:59:48Z</time>
      </trkpt>
      <trkpt lat="46.05584" lon="6.77802">
        <ele>772</ele>
        <time>2019-06-11T13:59:51Z</time>
      </trkpt>
      <trkpt lat="46.05589" lon="6.77815">
        <ele>774</ele>
        <time>2019-06-11T13:59:52Z</time>
      </trkpt>
      <trkpt lat="46.05597" lon="6.77865">
        <ele>778</ele>
        <time>2019-06-11T13:59:59Z</time>
      </trkpt>
      <trkpt lat="46.05596" lon="6.77877">
        <ele>778</ele>
        <time>2019-06-11T14:00:00Z</time>
      </trkpt>
      <trkpt lat="46.05594" lon="6.77888">
        <ele>779</ele>
        <time>2019-06-11T14:00:02Z</time>
      </trkpt>
      <trkpt lat="46.05582" lon="6.77915">
        <ele>779</ele>
        <time>2019-06-11T14:00:06Z</time>
      </trkpt>
      <trkpt lat="46.05577" lon="6.77941">
        <ele>782</ele>
        <time>2019-06-11T14:00:09Z</time>
      </trkpt>
      <trkpt lat="46.05572" lon="6.77995">
        <ele>785</ele>
        <time>2019-06-11T14:00:16Z</time>
      </trkpt>
      <trkpt lat="46.05568" lon="6.78032">
        <ele>787</ele>
        <time>2019-06-11T14:00:20Z</time>
      </trkpt>
      <trkpt lat="46.0557" lon="6.78046">
        <ele>786</ele>
        <time>2019-06-11T14:00:22Z</time>
      </trkpt>
      <trkpt lat="46.05582" lon="6.78082">
        <ele>783</ele>
        <time>2019-06-11T14:00:27Z</time>
      </trkpt>
      <trkpt lat="46.0559" lon="6.7812">
        <ele>781</ele>
        <time>2019-06-11T14:00:32Z</time>
      </trkpt>
      <trkpt lat="46.05592" lon="6.78185">
        <ele>780</ele>
        <time>2019-06-11T14:00:40Z</time>
      </trkpt>
      <trkpt lat="46.05618" lon="6.78277">
        <ele>782</ele>
        <time>2019-06-11T14:00:52Z</time>
      </trkpt>
      <trkpt lat="46.05623" lon="6.78289">
        <ele>783</ele>
        <time>2019-06-11T14:00:54Z</time>
      </trkpt>
      <trkpt lat="46.05651" lon="6.78325">
        <ele>779</ele>
        <time>2019-06-11T14:01:01Z</time>
      </trkpt>
      <trkpt lat="46.05659" lon="6.7833">
        <ele>776</ele>
        <time>2019-06-11T14:01:02Z</time>
      </trkpt>
      <trkpt lat="46.05668" lon="6.78331">
        <ele>774</ele>
        <time>2019-06-11T14:01:04Z</time>
      </trkpt>
      <trkpt lat="46.05703" lon="6.78318">
        <ele>775</ele>
        <time>2019-06-11T14:01:10Z</time>
      </trkpt>
      <trkpt lat="46.05788" lon="6.78296">
        <ele>784</ele>
        <time>2019-06-11T14:01:26Z</time>
      </trkpt>
      <trkpt lat="46.05812" lon="6.78283">
        <ele>791</ele>
        <time>2019-06-11T14:01:30Z</time>
      </trkpt>
      <trkpt lat="46.05806" lon="6.78259">
        <ele>794</ele>
        <time>2019-06-11T14:01:33Z</time>
      </trkpt>
      <trkpt lat="46.05794" lon="6.78232">
        <ele>795</ele>
        <time>2019-06-11T14:01:37Z</time>
      </trkpt>
      <trkpt lat="46.0576" lon="6.7818">
        <ele>787</ele>
        <time>2019-06-11T14:01:46Z</time>
      </trkpt>
      <trkpt lat="46.05745" lon="6.78152">
        <ele>785</ele>
        <time>2019-06-11T14:01:50Z</time>
      </trkpt>
      <trkpt lat="46.05724" lon="6.78106">
        <ele>789</ele>
        <time>2019-06-11T14:01:57Z</time>
      </trkpt>
      <trkpt lat="46.05745" lon="6.78152">
        <ele>785</ele>
        <time>2019-06-11T14:02:04Z</time>
      </trkpt>
      <trkpt lat="46.0576" lon="6.7818">
        <ele>787</ele>
        <time>2019-06-11T14:02:08Z</time>
      </trkpt>
      <trkpt lat="46.05794" lon="6.78232">
        <ele>795</ele>
        <time>2019-06-11T14:02:17Z</time>
      </trkpt>
      <trkpt lat="46.05806" lon="6.78259">
        <ele>794</ele>
        <time>2019-06-11T14:02:21Z</time>
      </trkpt>
      <trkpt lat="46.05812" lon="6.78283">
        <ele>791</ele>
        <time>2019-06-11T14:02:24Z</time>
      </trkpt>
      <trkpt lat="46.0585" lon="6.78477">
        <ele>782</ele>
        <time>2019-06-11T14:02:49Z</time>
      </trkpt>
      <trkpt lat="46.05852" lon="6.78511">
        <ele>783</ele>
        <time>2019-06-11T14:02:53Z</time>
      </trkpt>
      <trkpt lat="46.05852" lon="6.78536">
        <ele>785</ele>
        <time>2019-06-11T14:02:56Z</time>
      </trkpt>
      <trkpt lat="46.05841" lon="6.78589">
        <ele>787</ele>
        <time>2019-06-11T14:03:03Z</time>
      </trkpt>
      <trkpt lat="46.05812" lon="6.78649">
        <ele>792</ele>
        <time>2019-06-11T14:03:12Z</time>
      </trkpt>
      <trkpt lat="46.05805" lon="6.78669">
        <ele>795</ele>
        <time>2019-06-11T14:03:15Z</time>
      </trkpt>
      <trkpt lat="46.05801" lon="6.78688">
        <ele>797</ele>
        <time>2019-06-11T14:03:18Z</time>
      </trkpt>
      <trkpt lat="46.05801" lon="6.78712">
        <ele>800</ele>
        <time>2019-06-11T14:03:21Z</time>
      </trkpt>
      <trkpt lat="46.05814" lon="6.78808">
        <ele>807</ele>
        <time>2019-06-11T14:03:33Z</time>
      </trkpt>
      <trkpt lat="46.05826" lon="6.78849">
        <ele>805</ele>
        <time>2019-06-11T14:03:38Z</time>
      </trkpt>
      <trkpt lat="46.0586" lon="6.78902">
        <ele>806</ele>
        <time>2019-06-11T14:03:47Z</time>
      </trkpt>
      <trkpt lat="46.05878" lon="6.78972">
        <ele>810</ele>
        <time>2019-06-11T14:03:56Z</time>
      </trkpt>
      <trkpt lat="46.05885" lon="6.78991">
        <ele>811</ele>
        <time>2019-06-11T14:03:59Z</time>
      </trkpt>
      <trkpt lat="46.05904" lon="6.79025">
        <ele>811</ele>
        <time>2019-06-11T14:04:04Z</time>
      </trkpt>
      <trkpt lat="46.05909" lon="6.7904">
        <ele>811</ele>
        <time>2019-06-11T14:04:06Z</time>
      </trkpt>
      <trkpt lat="46.05912" lon="6.79056">
        <ele>810</ele>
        <time>2019-06-11T14:04:08Z</time>
      </trkpt>
      <trkpt lat="46.05914" lon="6.79135">
        <ele>815</ele>
        <time>2019-06-11T14:04:18Z</time>
      </trkpt>
      <trkpt lat="46.0592" lon="6.79162">
        <ele>817</ele>
        <time>2019-06-11T14:04:22Z</time>
      </trkpt>
      <trkpt lat="46.05933" lon="6.79194">
        <ele>820</ele>
        <time>2019-06-11T14:04:26Z</time>
      </trkpt>
      <trkpt lat="46.05946" lon="6.79211">
        <ele>821</ele>
        <time>2019-06-11T14:04:29Z</time>
      </trkpt>
      <trkpt lat="46.05968" lon="6.79228">
        <ele>820</ele>
        <time>2019-06-11T14:04:34Z</time>
      </trkpt>
      <trkpt lat="46.06103" lon="6.79315">
        <ele>818</ele>
        <time>2019-06-11T14:05:00Z</time>
      </trkpt>
      <trkpt lat="46.0612" lon="6.79327">
        <ele>817</ele>
        <time>2019-06-11T14:05:03Z</time>
      </trkpt>
      <trkpt lat="46.06151" lon="6.79354">
        <ele>817</ele>
        <time>2019-06-11T14:05:10Z</time>
      </trkpt>
      <trkpt lat="46.06167" lon="6.79363">
        <ele>817</ele>
        <time>2019-06-11T14:05:13Z</time>
      </trkpt>
      <trkpt lat="46.06179" lon="6.79365">
        <ele>818</ele>
        <time>2019-06-11T14:05:15Z</time>
      </trkpt>
      <trkpt lat="46.06224" lon="6.79359">
        <ele>825</ele>
        <time>2019-06-11T14:05:23Z</time>
      </trkpt>
      <trkpt lat="46.06237" lon="6.7936">
        <ele>827</ele>
        <time>2019-06-11T14:05:25Z</time>
      </trkpt>
      <trkpt lat="46.06255" lon="6.79365">
        <ele>829</ele>
        <time>2019-06-11T14:05:29Z</time>
      </trkpt>
      <trkpt lat="46.06278" lon="6.79379">
        <ele>831</ele>
        <time>2019-06-11T14:05:33Z</time>
      </trkpt>
      <trkpt lat="46.06327" lon="6.79431">
        <ele>832</ele>
        <time>2019-06-11T14:05:44Z</time>
      </trkpt>
      <trkpt lat="46.06395" lon="6.79472">
        <ele>841</ele>
        <time>2019-06-11T14:05:57Z</time>
      </trkpt>
      <trkpt lat="46.06407" lon="6.79482">
        <ele>841</ele>
        <time>2019-06-11T14:06:00Z</time>
      </trkpt>
      <trkpt lat="46.06416" lon="6.79495">
        <ele>838</ele>
        <time>2019-06-11T14:06:02Z</time>
      </trkpt>
      <trkpt lat="46.06426" lon="6.79525">
        <ele>837</ele>
        <time>2019-06-11T14:06:06Z</time>
      </trkpt>
      <trkpt lat="46.06433" lon="6.79563">
        <ele>835</ele>
        <time>2019-06-11T14:06:11Z</time>
      </trkpt>
      <trkpt lat="46.06435" lon="6.79592">
        <ele>834</ele>
        <time>2019-06-11T14:06:14Z</time>
      </trkpt>
      <trkpt lat="46.06437" lon="6.79666">
        <ele>828</ele>
        <time>2019-06-11T14:06:24Z</time>
      </trkpt>
      <trkpt lat="46.06439" lon="6.79684">
        <ele>828</ele>
        <time>2019-06-11T14:06:26Z</time>
      </trkpt>
      <trkpt lat="46.06448" lon="6.79707">
        <ele>829</ele>
        <time>2019-06-11T14:06:29Z</time>
      </trkpt>
      <trkpt lat="46.0646" lon="6.79722">
        <ele>829</ele>
        <time>2019-06-11T14:06:32Z</time>
      </trkpt>
      <trkpt lat="46.06507" lon="6.79766">
        <ele>829</ele>
        <time>2019-06-11T14:06:42Z</time>
      </trkpt>
      <trkpt lat="46.06525" lon="6.79791">
        <ele>830</ele>
        <time>2019-06-11T14:06:46Z</time>
      </trkpt>
      <trkpt lat="46.06532" lon="6.79809">
        <ele>829</ele>
        <time>2019-06-11T14:06:49Z</time>
      </trkpt>
      <trkpt lat="46.06548" lon="6.79859">
        <ele>828</ele>
        <time>2019-06-11T14:06:56Z</time>
      </trkpt>
      <trkpt lat="46.06563" lon="6.79916">
        <ele>826</ele>
        <time>2019-06-11T14:07:03Z</time>
      </trkpt>
      <trkpt lat="46.06583" lon="6.79982">
        <ele>828</ele>
        <time>2019-06-11T14:07:12Z</time>
      </trkpt>
      <trkpt lat="46.06608" lon="6.80045">
        <ele>832</ele>
        <time>2019-06-11T14:07:21Z</time>
      </trkpt>
      <trkpt lat="46.0663" lon="6.80085">
        <ele>833</ele>
        <time>2019-06-11T14:07:27Z</time>
      </trkpt>
      <trkpt lat="46.06674" lon="6.80153">
        <ele>836</ele>
        <time>2019-06-11T14:07:39Z</time>
      </trkpt>
      <trkpt lat="46.06705" lon="6.80213">
        <ele>838</ele>
        <time>2019-06-11T14:07:48Z</time>
      </trkpt>
      <trkpt lat="46.06721" lon="6.80249">
        <ele>837</ele>
        <time>2019-06-11T14:07:53Z</time>
      </trkpt>
      <trkpt lat="46.06764" lon="6.80384">
        <ele>837</ele>
        <time>2019-06-11T14:08:12Z</time>
      </trkpt>
      <trkpt lat="46.06806" lon="6.80538">
        <ele>837</ele>
        <time>2019-06-11T14:08:32Z</time>
      </trkpt>
      <trkpt lat="46.06816" lon="6.80557">
        <ele>836</ele>
        <time>2019-06-11T14:08:35Z</time>
      </trkpt>
      <trkpt lat="46.06825" lon="6.80571">
        <ele>835</ele>
        <time>2019-06-11T14:08:37Z</time>
      </trkpt>
      <trkpt lat="46.06911" lon="6.80654">
        <ele>844</ele>
        <time>2019-06-11T14:08:56Z</time>
      </trkpt>
      <trkpt lat="46.06916" lon="6.80662">
        <ele>843</ele>
        <time>2019-06-11T14:08:57Z</time>
      </trkpt>
      <trkpt lat="46.06954" lon="6.80742">
        <ele>854</ele>
        <time>2019-06-11T14:09:09Z</time>
      </trkpt>
      <trkpt lat="46.06988" lon="6.80795">
        <ele>853</ele>
        <time>2019-06-11T14:09:18Z</time>
      </trkpt>
      <trkpt lat="46.06994" lon="6.80808">
        <ele>850</ele>
        <time>2019-06-11T14:09:20Z</time>
      </trkpt>
      <trkpt lat="46.07004" lon="6.80834">
        <ele>845</ele>
        <time>2019-06-11T14:09:24Z</time>
      </trkpt>
      <trkpt lat="46.07018" lon="6.80884">
        <ele>848</ele>
        <time>2019-06-11T14:09:30Z</time>
      </trkpt>
      <trkpt lat="46.07028" lon="6.80948">
        <ele>848</ele>
        <time>2019-06-11T14:09:38Z</time>
      </trkpt>
      <trkpt lat="46.07038" lon="6.8104">
        <ele>848</ele>
        <time>2019-06-11T14:09:50Z</time>
      </trkpt>
      <trkpt lat="46.07054" lon="6.81232">
        <ele>851</ele>
        <time>2019-06-11T14:10:14Z</time>
      </trkpt>
      <trkpt lat="46.0706" lon="6.8126">
        <ele>851</ele>
        <time>2019-06-11T14:10:17Z</time>
      </trkpt>
      <trkpt lat="46.07132" lon="6.81475">
        <ele>855</ele>
        <time>2019-06-11T14:10:47Z</time>
      </trkpt>
      <trkpt lat="46.07171" lon="6.8157">
        <ele>860</ele>
        <time>2019-06-11T14:11:00Z</time>
      </trkpt>
      <trkpt lat="46.07186" lon="6.81616">
        <ele>862</ele>
        <time>2019-06-11T14:11:07Z</time>
      </trkpt>
      <trkpt lat="46.07189" lon="6.8163">
        <ele>862</ele>
        <time>2019-06-11T14:11:09Z</time>
      </trkpt>
      <trkpt lat="46.07188" lon="6.8165">
        <ele>862</ele>
        <time>2019-06-11T14:11:11Z</time>
      </trkpt>
      <trkpt lat="46.07183" lon="6.81683">
        <ele>862</ele>
        <time>2019-06-11T14:11:15Z</time>
      </trkpt>
      <trkpt lat="46.07183" lon="6.81692">
        <ele>862</ele>
        <time>2019-06-11T14:11:16Z</time>
      </trkpt>
      <trkpt lat="46.07185" lon="6.81701">
        <ele>862</ele>
        <time>2019-06-11T14:11:17Z</time>
      </trkpt>
      <trkpt lat="46.072" lon="6.81735">
        <ele>863</ele>
        <time>2019-06-11T14:11:22Z</time>
      </trkpt>
      <trkpt lat="46.07229" lon="6.81775">
        <ele>863</ele>
        <time>2019-06-11T14:11:30Z</time>
      </trkpt>
      <trkpt lat="46.07257" lon="6.81855">
        <ele>867</ele>
        <time>2019-06-11T14:11:41Z</time>
      </trkpt>
      <trkpt lat="46.07365" lon="6.82117">
        <ele>876</ele>
        <time>2019-06-11T14:12:18Z</time>
      </trkpt>
      <trkpt lat="46.07372" lon="6.8214">
        <ele>876</ele>
        <time>2019-06-11T14:12:21Z</time>
      </trkpt>
      <trkpt lat="46.07375" lon="6.8216">
        <ele>876</ele>
        <time>2019-06-11T14:12:24Z</time>
      </trkpt>
      <trkpt lat="46.07375" lon="6.82174">
        <ele>876</ele>
        <time>2019-06-11T14:12:26Z</time>
      </trkpt>
      <trkpt lat="46.07372" lon="6.82195">
        <ele>875</ele>
        <time>2019-06-11T14:12:28Z</time>
      </trkpt>
      <trkpt lat="46.07359" lon="6.82241">
        <ele>874</ele>
        <time>2019-06-11T14:12:34Z</time>
      </trkpt>
      <trkpt lat="46.07357" lon="6.82266">
        <ele>875</ele>
        <time>2019-06-11T14:12:37Z</time>
      </trkpt>
      <trkpt lat="46.07356" lon="6.82389">
        <ele>882</ele>
        <time>2019-06-11T14:12:53Z</time>
      </trkpt>
      <trkpt lat="46.07359" lon="6.82416">
        <ele>884</ele>
        <time>2019-06-11T14:12:56Z</time>
      </trkpt>
      <trkpt lat="46.07364" lon="6.82431">
        <ele>886</ele>
        <time>2019-06-11T14:12:58Z</time>
      </trkpt>
      <trkpt lat="46.07371" lon="6.82444">
        <ele>887</ele>
        <time>2019-06-11T14:13:00Z</time>
      </trkpt>
      <trkpt lat="46.0738" lon="6.82454">
        <ele>888</ele>
        <time>2019-06-11T14:13:02Z</time>
      </trkpt>
      <trkpt lat="46.07409" lon="6.82473">
        <ele>889</ele>
        <time>2019-06-11T14:13:08Z</time>
      </trkpt>
      <trkpt lat="46.07424" lon="6.82486">
        <ele>889</ele>
        <time>2019-06-11T14:13:11Z</time>
      </trkpt>
      <trkpt lat="46.07432" lon="6.82499">
        <ele>889</ele>
        <time>2019-06-11T14:13:13Z</time>
      </trkpt>
      <trkpt lat="46.07442" lon="6.82523">
        <ele>889</ele>
        <time>2019-06-11T14:13:17Z</time>
      </trkpt>
      <trkpt lat="46.07448" lon="6.82548">
        <ele>891</ele>
        <time>2019-06-11T14:13:20Z</time>
      </trkpt>
      <trkpt lat="46.075" lon="6.82823">
        <ele>903</ele>
        <time>2019-06-11T14:13:55Z</time>
      </trkpt>
      <trkpt lat="46.07533" lon="6.82914">
        <ele>910</ele>
        <time>2019-06-11T14:14:08Z</time>
      </trkpt>
      <trkpt lat="46.07537" lon="6.82931">
        <ele>911</ele>
        <time>2019-06-11T14:14:10Z</time>
      </trkpt>
      <trkpt lat="46.0755" lon="6.83071">
        <ele>920</ele>
        <time>2019-06-11T14:14:27Z</time>
      </trkpt>
      <trkpt lat="46.07548" lon="6.83092">
        <ele>921</ele>
        <time>2019-06-11T14:14:30Z</time>
      </trkpt>
      <trkpt lat="46.07537" lon="6.8318">
        <ele>923</ele>
        <time>2019-06-11T14:14:41Z</time>
      </trkpt>
      <trkpt lat="46.07536" lon="6.83219">
        <ele>924</ele>
        <time>2019-06-11T14:14:46Z</time>
      </trkpt>
      <trkpt lat="46.07549" lon="6.8331">
        <ele>925</ele>
        <time>2019-06-11T14:14:57Z</time>
      </trkpt>
      <trkpt lat="46.0756" lon="6.83365">
        <ele>925</ele>
        <time>2019-06-11T14:15:04Z</time>
      </trkpt>
      <trkpt lat="46.07594" lon="6.83454">
        <ele>926</ele>
        <time>2019-06-11T14:15:17Z</time>
      </trkpt>
      <trkpt lat="46.07602" lon="6.83492">
        <ele>930</ele>
        <time>2019-06-11T14:15:22Z</time>
      </trkpt>
      <trkpt lat="46.07613" lon="6.83606">
        <ele>935</ele>
        <time>2019-06-11T14:15:36Z</time>
      </trkpt>
      <trkpt lat="46.07614" lon="6.83637">
        <ele>937</ele>
        <time>2019-06-11T14:15:40Z</time>
      </trkpt>
      <trkpt lat="46.0761" lon="6.83815">
        <ele>946</ele>
        <time>2019-06-11T14:16:02Z</time>
      </trkpt>
      <trkpt lat="46.07613" lon="6.83854">
        <ele>949</ele>
        <time>2019-06-11T14:16:07Z</time>
      </trkpt>
      <trkpt lat="46.07641" lon="6.84014">
        <ele>959</ele>
        <time>2019-06-11T14:16:27Z</time>
      </trkpt>
      <trkpt lat="46.0765" lon="6.84041">
        <ele>960</ele>
        <time>2019-06-11T14:16:31Z</time>
      </trkpt>
      <trkpt lat="46.07655" lon="6.8405">
        <ele>961</ele>
        <time>2019-06-11T14:16:32Z</time>
      </trkpt>
      <trkpt lat="46.07683" lon="6.84094">
        <ele>961</ele>
        <time>2019-06-11T14:16:39Z</time>
      </trkpt>
      <trkpt lat="46.07693" lon="6.84102">
        <ele>961</ele>
        <time>2019-06-11T14:16:41Z</time>
      </trkpt>
      <trkpt lat="46.07703" lon="6.84103">
        <ele>961</ele>
        <time>2019-06-11T14:16:43Z</time>
      </trkpt>
      <trkpt lat="46.0772" lon="6.84099">
        <ele>961</ele>
        <time>2019-06-11T14:16:46Z</time>
      </trkpt>
      <trkpt lat="46.07738" lon="6.84084">
        <ele>960</ele>
        <time>2019-06-11T14:16:50Z</time>
      </trkpt>
      <trkpt lat="46.0776" lon="6.8406">
        <ele>962</ele>
        <time>2019-06-11T14:16:55Z</time>
      </trkpt>
      <trkpt lat="46.07775" lon="6.84051">
        <ele>963</ele>
        <time>2019-06-11T14:16:58Z</time>
      </trkpt>
      <trkpt lat="46.07792" lon="6.84049">
        <ele>965</ele>
        <time>2019-06-11T14:17:01Z</time>
      </trkpt>
      <trkpt lat="46.07775" lon="6.84051">
        <ele>963</ele>
        <time>2019-06-11T14:17:04Z</time>
      </trkpt>
      <trkpt lat="46.0776" lon="6.8406">
        <ele>962</ele>
        <time>2019-06-11T14:17:07Z</time>
      </trkpt>
      <trkpt lat="46.07738" lon="6.84084">
        <ele>960</ele>
        <time>2019-06-11T14:17:12Z</time>
      </trkpt>
      <trkpt lat="46.0772" lon="6.84099">
        <ele>961</ele>
        <time>2019-06-11T14:17:15Z</time>
      </trkpt>
      <trkpt lat="46.07703" lon="6.84103">
        <ele>961</ele>
        <time>2019-06-11T14:17:18Z</time>
      </trkpt>
      <trkpt lat="46.07693" lon="6.84102">
        <ele>961</ele>
        <time>2019-06-11T14:17:20Z</time>
      </trkpt>
      <trkpt lat="46.07683" lon="6.84094">
        <ele>961</ele>
        <time>2019-06-11T14:17:22Z</time>
      </trkpt>
      <trkpt lat="46.07655" lon="6.8405">
        <ele>961</ele>
        <time>2019-06-11T14:17:30Z</time>
      </trkpt>
      <trkpt lat="46.0765" lon="6.84041">
        <ele>960</ele>
        <time>2019-06-11T14:17:31Z</time>
      </trkpt>
      <trkpt lat="46.07641" lon="6.84014">
        <ele>959</ele>
        <time>2019-06-11T14:17:35Z</time>
      </trkpt>
      <trkpt lat="46.07613" lon="6.83854">
        <ele>949</ele>
        <time>2019-06-11T14:17:55Z</time>
      </trkpt>
      <trkpt lat="46.0761" lon="6.83815">
        <ele>946</ele>
        <time>2019-06-11T14:18:00Z</time>
      </trkpt>
      <trkpt lat="46.07614" lon="6.83637">
        <ele>937</ele>
        <time>2019-06-11T14:18:22Z</time>
      </trkpt>
      <trkpt lat="46.07613" lon="6.83606">
        <ele>935</ele>
        <time>2019-06-11T14:18:26Z</time>
      </trkpt>
      <trkpt lat="46.07602" lon="6.83492">
        <ele>930</ele>
        <time>2019-06-11T14:18:40Z</time>
      </trkpt>
      <trkpt lat="46.07594" lon="6.83454">
        <ele>926</ele>
        <time>2019-06-11T14:18:45Z</time>
      </trkpt>
      <trkpt lat="46.0756" lon="6.83365">
        <ele>925</ele>
        <time>2019-06-11T14:18:57Z</time>
      </trkpt>
      <trkpt lat="46.07549" lon="6.8331">
        <ele>925</ele>
        <time>2019-06-11T14:19:05Z</time>
      </trkpt>
      <trkpt lat="46.07536" lon="6.83219">
        <ele>924</ele>
        <time>2019-06-11T14:19:16Z</time>
      </trkpt>
      <trkpt lat="46.07537" lon="6.8318">
        <ele>923</ele>
        <time>2019-06-11T14:19:21Z</time>
      </trkpt>
      <trkpt lat="46.07548" lon="6.83092">
        <ele>921</ele>
        <time>2019-06-11T14:19:32Z</time>
      </trkpt>
      <trkpt lat="46.0755" lon="6.83071">
        <ele>920</ele>
        <time>2019-06-11T14:19:34Z</time>
      </trkpt>
      <trkpt lat="46.07537" lon="6.82931">
        <ele>911</ele>
        <time>2019-06-11T14:19:52Z</time>
      </trkpt>
      <trkpt lat="46.07533" lon="6.82914">
        <ele>910</ele>
        <time>2019-06-11T14:19:54Z</time>
      </trkpt>
      <trkpt lat="46.075" lon="6.82823">
        <ele>903</ele>
        <time>2019-06-11T14:20:07Z</time>
      </trkpt>
      <trkpt lat="46.07448" lon="6.82548">
        <ele>891</ele>
        <time>2019-06-11T14:20:42Z</time>
      </trkpt>
      <trkpt lat="46.07442" lon="6.82523">
        <ele>889</ele>
        <time>2019-06-11T14:20:45Z</time>
      </trkpt>
      <trkpt lat="46.07432" lon="6.82499">
        <ele>889</ele>
        <time>2019-06-11T14:20:49Z</time>
      </trkpt>
      <trkpt lat="46.07424" lon="6.82486">
        <ele>889</ele>
        <time>2019-06-11T14:20:51Z</time>
      </trkpt>
      <trkpt lat="46.07409" lon="6.82473">
        <ele>889</ele>
        <time>2019-06-11T14:20:54Z</time>
      </trkpt>
      <trkpt lat="46.0738" lon="6.82454">
        <ele>888</ele>
        <time>2019-06-11T14:21:00Z</time>
      </trkpt>
      <trkpt lat="46.07371" lon="6.82444">
        <ele>887</ele>
        <time>2019-06-11T14:21:02Z</time>
      </trkpt>
      <trkpt lat="46.07364" lon="6.82431">
        <ele>886</ele>
        <time>2019-06-11T14:21:04Z</time>
      </trkpt>
      <trkpt lat="46.07359" lon="6.82416">
        <ele>884</ele>
        <time>2019-06-11T14:21:06Z</time>
      </trkpt>
      <trkpt lat="46.07356" lon="6.82389">
        <ele>882</ele>
        <time>2019-06-11T14:21:09Z</time>
      </trkpt>
      <trkpt lat="46.07357" lon="6.82266">
        <ele>875</ele>
        <time>2019-06-11T14:21:24Z</time>
      </trkpt>
      <trkpt lat="46.07359" lon="6.82241">
        <ele>874</ele>
        <time>2019-06-11T14:21:27Z</time>
      </trkpt>
      <trkpt lat="46.07372" lon="6.82195">
        <ele>875</ele>
        <time>2019-06-11T14:21:34Z</time>
      </trkpt>
      <trkpt lat="46.07375" lon="6.82174">
        <ele>876</ele>
        <time>2019-06-11T14:21:36Z</time>
      </trkpt>
      <trkpt lat="46.07375" lon="6.8216">
        <ele>876</ele>
        <time>2019-06-11T14:21:38Z</time>
      </trkpt>
      <trkpt lat="46.07372" lon="6.8214">
        <ele>876</ele>
        <time>2019-06-11T14:21:40Z</time>
      </trkpt>
      <trkpt lat="46.07365" lon="6.82117">
        <ele>876</ele>
        <time>2019-06-11T14:21:44Z</time>
      </trkpt>
      <trkpt lat="46.07257" lon="6.81855">
        <ele>867</ele>
        <time>2019-06-11T14:22:21Z</time>
      </trkpt>
      <trkpt lat="46.07224" lon="6.81759">
        <ele>863</ele>
        <time>2019-06-11T14:22:34Z</time>
      </trkpt>
      <trkpt lat="46.07186" lon="6.81616">
        <ele>862</ele>
        <time>2019-06-11T14:22:53Z</time>
      </trkpt>
      <trkpt lat="46.07174" lon="6.81579">
        <ele>860</ele>
        <time>2019-06-11T14:22:58Z</time>
      </trkpt>
      <trkpt lat="46.07132" lon="6.81475">
        <ele>855</ele>
        <time>2019-06-11T14:23:13Z</time>
      </trkpt>
      <trkpt lat="46.0706" lon="6.8126">
        <ele>851</ele>
        <time>2019-06-11T14:23:43Z</time>
      </trkpt>
      <trkpt lat="46.07054" lon="6.81232">
        <ele>851</ele>
        <time>2019-06-11T14:23:46Z</time>
      </trkpt>
      <trkpt lat="46.07038" lon="6.8104">
        <ele>848</ele>
        <time>2019-06-11T14:24:10Z</time>
      </trkpt>
      <trkpt lat="46.07028" lon="6.80948">
        <ele>848</ele>
        <time>2019-06-11T14:24:22Z</time>
      </trkpt>
      <trkpt lat="46.07018" lon="6.80884">
        <ele>848</ele>
        <time>2019-06-11T14:24:30Z</time>
      </trkpt>
      <trkpt lat="46.07004" lon="6.80834">
        <ele>845</ele>
        <time>2019-06-11T14:24:36Z</time>
      </trkpt>
      <trkpt lat="46.06994" lon="6.80808">
        <ele>850</ele>
        <time>2019-06-11T14:24:40Z</time>
      </trkpt>
      <trkpt lat="46.06988" lon="6.80795">
        <ele>853</ele>
        <time>2019-06-11T14:24:42Z</time>
      </trkpt>
      <trkpt lat="46.06954" lon="6.80742">
        <ele>854</ele>
        <time>2019-06-11T14:24:51Z</time>
      </trkpt>
      <trkpt lat="46.06916" lon="6.80662">
        <ele>843</ele>
        <time>2019-06-11T14:25:03Z</time>
      </trkpt>
      <trkpt lat="46.06911" lon="6.80654">
        <ele>844</ele>
        <time>2019-06-11T14:25:04Z</time>
      </trkpt>
      <trkpt lat="46.06825" lon="6.80571">
        <ele>835</ele>
        <time>2019-06-11T14:25:23Z</time>
      </trkpt>
      <trkpt lat="46.06816" lon="6.80557">
        <ele>836</ele>
        <time>2019-06-11T14:25:25Z</time>
      </trkpt>
      <trkpt lat="46.06806" lon="6.80538">
        <ele>837</ele>
        <time>2019-06-11T14:25:28Z</time>
      </trkpt>
      <trkpt lat="46.06764" lon="6.80384">
        <ele>837</ele>
        <time>2019-06-11T14:25:48Z</time>
      </trkpt>
      <trkpt lat="46.06721" lon="6.80249">
        <ele>837</ele>
        <time>2019-06-11T14:26:07Z</time>
      </trkpt>
      <trkpt lat="46.06705" lon="6.80213">
        <ele>838</ele>
        <time>2019-06-11T14:26:12Z</time>
      </trkpt>
      <trkpt lat="46.06674" lon="6.80153">
        <ele>836</ele>
        <time>2019-06-11T14:26:21Z</time>
      </trkpt>
      <trkpt lat="46.0663" lon="6.80085">
        <ele>833</ele>
        <time>2019-06-11T14:26:33Z</time>
      </trkpt>
      <trkpt lat="46.06608" lon="6.80045">
        <ele>832</ele>
        <time>2019-06-11T14:26:39Z</time>
      </trkpt>
      <trkpt lat="46.06583" lon="6.79982">
        <ele>828</ele>
        <time>2019-06-11T14:26:48Z</time>
      </trkpt>
      <trkpt lat="46.06563" lon="6.79916">
        <ele>826</ele>
        <time>2019-06-11T14:26:57Z</time>
      </trkpt>
      <trkpt lat="46.06548" lon="6.79859">
        <ele>828</ele>
        <time>2019-06-11T14:27:04Z</time>
      </trkpt>
      <trkpt lat="46.06532" lon="6.79809">
        <ele>829</ele>
        <time>2019-06-11T14:27:11Z</time>
      </trkpt>
      <trkpt lat="46.06525" lon="6.79791">
        <ele>830</ele>
        <time>2019-06-11T14:27:14Z</time>
      </trkpt>
      <trkpt lat="46.06507" lon="6.79766">
        <ele>829</ele>
        <time>2019-06-11T14:27:18Z</time>
      </trkpt>
      <trkpt lat="46.0646" lon="6.79722">
        <ele>829</ele>
        <time>2019-06-11T14:27:28Z</time>
      </trkpt>
      <trkpt lat="46.06448" lon="6.79707">
        <ele>829</ele>
        <time>2019-06-11T14:27:31Z</time>
      </trkpt>
      <trkpt lat="46.06439" lon="6.79684">
        <ele>828</ele>
        <time>2019-06-11T14:27:34Z</time>
      </trkpt>
      <trkpt lat="46.06437" lon="6.79666">
        <ele>828</ele>
        <time>2019-06-11T14:27:36Z</time>
      </trkpt>
      <trkpt lat="46.06435" lon="6.79592">
        <ele>834</ele>
        <time>2019-06-11T14:27:46Z</time>
      </trkpt>
      <trkpt lat="46.06433" lon="6.79563">
        <ele>835</ele>
        <time>2019-06-11T14:27:49Z</time>
      </trkpt>
      <trkpt lat="46.06426" lon="6.79525">
        <ele>837</ele>
        <time>2019-06-11T14:27:54Z</time>
      </trkpt>
      <trkpt lat="46.06416" lon="6.79495">
        <ele>838</ele>
        <time>2019-06-11T14:27:58Z</time>
      </trkpt>
      <trkpt lat="46.06407" lon="6.79482">
        <ele>841</ele>
        <time>2019-06-11T14:28:00Z</time>
      </trkpt>
      <trkpt lat="46.06395" lon="6.79472">
        <ele>841</ele>
        <time>2019-06-11T14:28:03Z</time>
      </trkpt>
      <trkpt lat="46.06327" lon="6.79431">
        <ele>832</ele>
        <time>2019-06-11T14:28:16Z</time>
      </trkpt>
      <trkpt lat="46.06278" lon="6.79379">
        <ele>831</ele>
        <time>2019-06-11T14:28:27Z</time>
      </trkpt>
      <trkpt lat="46.06255" lon="6.79365">
        <ele>829</ele>
        <time>2019-06-11T14:28:31Z</time>
      </trkpt>
      <trkpt lat="46.06237" lon="6.7936">
        <ele>827</ele>
        <time>2019-06-11T14:28:34Z</time>
      </trkpt>
      <trkpt lat="46.06224" lon="6.79359">
        <ele>825</ele>
        <time>2019-06-11T14:28:37Z</time>
      </trkpt>
      <trkpt lat="46.06179" lon="6.79365">
        <ele>818</ele>
        <time>2019-06-11T14:28:45Z</time>
      </trkpt>
      <trkpt lat="46.06167" lon="6.79363">
        <ele>817</ele>
        <time>2019-06-11T14:28:47Z</time>
      </trkpt>
      <trkpt lat="46.06151" lon="6.79354">
        <ele>817</ele>
        <time>2019-06-11T14:28:50Z</time>
      </trkpt>
      <trkpt lat="46.06103" lon="6.79315">
        <ele>818</ele>
        <time>2019-06-11T14:29:00Z</time>
      </trkpt>
      <trkpt lat="46.05968" lon="6.79228">
        <ele>820</ele>
        <time>2019-06-11T14:29:26Z</time>
      </trkpt>
      <trkpt lat="46.05946" lon="6.79211">
        <ele>821</ele>
        <time>2019-06-11T14:29:31Z</time>
      </trkpt>
      <trkpt lat="46.05933" lon="6.79194">
        <ele>820</ele>
        <time>2019-06-11T14:29:34Z</time>
      </trkpt>
      <trkpt lat="46.0592" lon="6.79162">
        <ele>817</ele>
        <time>2019-06-11T14:29:38Z</time>
      </trkpt>
      <trkpt lat="46.05914" lon="6.79135">
        <ele>815</ele>
        <time>2019-06-11T14:29:42Z</time>
      </trkpt>
      <trkpt lat="46.05913" lon="6.79074">
        <ele>811</ele>
        <time>2019-06-11T14:29:49Z</time>
      </trkpt>
      <trkpt lat="46.0591" lon="6.79047">
        <ele>811</ele>
        <time>2019-06-11T14:29:53Z</time>
      </trkpt>
      <trkpt lat="46.05914" lon="6.79034">
        <ele>810</ele>
        <time>2019-06-11T14:29:54Z</time>
      </trkpt>
      <trkpt lat="46.05917" lon="6.79018">
        <ele>809</ele>
        <time>2019-06-11T14:29:57Z</time>
      </trkpt>
      <trkpt lat="46.05914" lon="6.78983">
        <ele>810</ele>
        <time>2019-06-11T14:30:01Z</time>
      </trkpt>
      <trkpt lat="46.05908" lon="6.78954">
        <ele>810</ele>
        <time>2019-06-11T14:30:05Z</time>
      </trkpt>
      <trkpt lat="46.05889" lon="6.78885">
        <ele>810</ele>
        <time>2019-06-11T14:30:14Z</time>
      </trkpt>
      <trkpt lat="46.05881" lon="6.78863">
        <ele>809</ele>
        <time>2019-06-11T14:30:17Z</time>
      </trkpt>
      <trkpt lat="46.05856" lon="6.78819">
        <ele>805</ele>
        <time>2019-06-11T14:30:24Z</time>
      </trkpt>
      <trkpt lat="46.05847" lon="6.78799">
        <ele>803</ele>
        <time>2019-06-11T14:30:27Z</time>
      </trkpt>
      <trkpt lat="46.05841" lon="6.78782">
        <ele>802</ele>
        <time>2019-06-11T14:30:29Z</time>
      </trkpt>
      <trkpt lat="46.05836" lon="6.78705">
        <ele>797</ele>
        <time>2019-06-11T14:30:39Z</time>
      </trkpt>
      <trkpt lat="46.05842" lon="6.78611">
        <ele>789</ele>
        <time>2019-06-11T14:30:50Z</time>
      </trkpt>
      <trkpt lat="46.0584" lon="6.78598">
        <ele>788</ele>
        <time>2019-06-11T14:30:52Z</time>
      </trkpt>
      <trkpt lat="46.05839" lon="6.78596">
        <ele>787</ele>
        <time>2019-06-11T14:30:52Z</time>
      </trkpt>
      <trkpt lat="46.05852" lon="6.78536">
        <ele>785</ele>
        <time>2019-06-11T14:31:00Z</time>
      </trkpt>
      <trkpt lat="46.05852" lon="6.78511">
        <ele>783</ele>
        <time>2019-06-11T14:31:03Z</time>
      </trkpt>
      <trkpt lat="46.05848" lon="6.78464">
        <ele>782</ele>
        <time>2019-06-11T14:31:09Z</time>
      </trkpt>
      <trkpt lat="46.05812" lon="6.78283">
        <ele>791</ele>
        <time>2019-06-11T14:31:32Z</time>
      </trkpt>
      <trkpt lat="46.05806" lon="6.78259">
        <ele>794</ele>
        <time>2019-06-11T14:31:35Z</time>
      </trkpt>
      <trkpt lat="46.05794" lon="6.78232">
        <ele>795</ele>
        <time>2019-06-11T14:31:39Z</time>
      </trkpt>
      <trkpt lat="46.0576" lon="6.7818">
        <ele>787</ele>
        <time>2019-06-11T14:31:48Z</time>
      </trkpt>
      <trkpt lat="46.05745" lon="6.78152">
        <ele>785</ele>
        <time>2019-06-11T14:31:53Z</time>
      </trkpt>
      <trkpt lat="46.05723" lon="6.78103">
        <ele>789</ele>
        <time>2019-06-11T14:32:00Z</time>
      </trkpt>
      <trkpt lat="46.05661" lon="6.77945">
        <ele>783</ele>
        <time>2019-06-11T14:32:22Z</time>
      </trkpt>
      <trkpt lat="46.05644" lon="6.77855">
        <ele>783</ele>
        <time>2019-06-11T14:32:34Z</time>
      </trkpt>
      <trkpt lat="46.05636" lon="6.77829">
        <ele>782</ele>
        <time>2019-06-11T14:32:37Z</time>
      </trkpt>
      <trkpt lat="46.05614" lon="6.7778">
        <ele>777</ele>
        <time>2019-06-11T14:32:44Z</time>
      </trkpt>
      <trkpt lat="46.05605" lon="6.77763">
        <ele>773</ele>
        <time>2019-06-11T14:32:47Z</time>
      </trkpt>
      <trkpt lat="46.05553" lon="6.77694">
        <ele>770</ele>
        <time>2019-06-11T14:33:00Z</time>
      </trkpt>
      <trkpt lat="46.05546" lon="6.77677">
        <ele>770</ele>
        <time>2019-06-11T14:33:02Z</time>
      </trkpt>
      <trkpt lat="46.05533" lon="6.77609">
        <ele>769</ele>
        <time>2019-06-11T14:33:11Z</time>
      </trkpt>
      <trkpt lat="46.05528" lon="6.77564">
        <ele>769</ele>
        <time>2019-06-11T14:33:16Z</time>
      </trkpt>
      <trkpt lat="46.05494" lon="6.77367">
        <ele>764</ele>
        <time>2019-06-11T14:33:41Z</time>
      </trkpt>
      <trkpt lat="46.05486" lon="6.77294">
        <ele>765</ele>
        <time>2019-06-11T14:33:51Z</time>
      </trkpt>
      <trkpt lat="46.05485" lon="6.7726">
        <ele>765</ele>
        <time>2019-06-11T14:33:55Z</time>
      </trkpt>
      <trkpt lat="46.05489" lon="6.77217">
        <ele>766</ele>
        <time>2019-06-11T14:34:00Z</time>
      </trkpt>
      <trkpt lat="46.05509" lon="6.77096">
        <ele>775</ele>
        <time>2019-06-11T14:34:16Z</time>
      </trkpt>
      <trkpt lat="46.05519" lon="6.76998">
        <ele>783</ele>
        <time>2019-06-11T14:34:28Z</time>
      </trkpt>
      <trkpt lat="46.0552" lon="6.7698">
        <ele>783</ele>
        <time>2019-06-11T14:34:30Z</time>
      </trkpt>
      <trkpt lat="46.05518" lon="6.76946">
        <ele>779</ele>
        <time>2019-06-11T14:34:34Z</time>
      </trkpt>
      <trkpt lat="46.05507" lon="6.76846">
        <ele>769</ele>
        <time>2019-06-11T14:34:47Z</time>
      </trkpt>
      <trkpt lat="46.05506" lon="6.7681">
        <ele>770</ele>
        <time>2019-06-11T14:34:51Z</time>
      </trkpt>
      <trkpt lat="46.05506" lon="6.76704">
        <ele>773</ele>
        <time>2019-06-11T14:35:04Z</time>
      </trkpt>
      <trkpt lat="46.05513" lon="6.76651">
        <ele>777</ele>
        <time>2019-06-11T14:35:11Z</time>
      </trkpt>
      <trkpt lat="46.05542" lon="6.76519">
        <ele>778</ele>
        <time>2019-06-11T14:35:28Z</time>
      </trkpt>
      <trkpt lat="46.05544" lon="6.76475">
        <ele>776</ele>
        <time>2019-06-11T14:35:33Z</time>
      </trkpt>
      <trkpt lat="46.05537" lon="6.76419">
        <ele>774</ele>
        <time>2019-06-11T14:35:40Z</time>
      </trkpt>
      <trkpt lat="46.05535" lon="6.76387">
        <ele>771</ele>
        <time>2019-06-11T14:35:44Z</time>
      </trkpt>
      <trkpt lat="46.05536" lon="6.76368">
        <ele>770</ele>
        <time>2019-06-11T14:35:47Z</time>
      </trkpt>
      <trkpt lat="46.05542" lon="6.76334">
        <ele>770</ele>
        <time>2019-06-11T14:35:51Z</time>
      </trkpt>
      <trkpt lat="46.05549" lon="6.76308">
        <ele>769</ele>
        <time>2019-06-11T14:35:55Z</time>
      </trkpt>
      <trkpt lat="46.05565" lon="6.76276">
        <ele>770</ele>
        <time>2019-06-11T14:35:59Z</time>
      </trkpt>
      <trkpt lat="46.05602" lon="6.76228">
        <ele>776</ele>
        <time>2019-06-11T14:36:08Z</time>
      </trkpt>
      <trkpt lat="46.05605" lon="6.76222">
        <ele>776</ele>
        <time>2019-06-11T14:36:09Z</time>
      </trkpt>
      <trkpt lat="46.05612" lon="6.76203">
        <ele>777</ele>
        <time>2019-06-11T14:36:12Z</time>
      </trkpt>
      <trkpt lat="46.05623" lon="6.76146">
        <ele>779</ele>
        <time>2019-06-11T14:36:19Z</time>
      </trkpt>
      <trkpt lat="46.05626" lon="6.76125">
        <ele>782</ele>
        <time>2019-06-11T14:36:22Z</time>
      </trkpt>
      <trkpt lat="46.05626" lon="6.76102">
        <ele>783</ele>
        <time>2019-06-11T14:36:25Z</time>
      </trkpt>
      <trkpt lat="46.05623" lon="6.76082">
        <ele>783</ele>
        <time>2019-06-11T14:36:27Z</time>
      </trkpt>
      <trkpt lat="46.05619" lon="6.76068">
        <ele>782</ele>
        <time>2019-06-11T14:36:29Z</time>
      </trkpt>
      <trkpt lat="46.05608" lon="6.76048">
        <ele>778</ele>
        <time>2019-06-11T14:36:32Z</time>
      </trkpt>
      <trkpt lat="46.05565" lon="6.7599">
        <ele>776</ele>
        <time>2019-06-11T14:36:43Z</time>
      </trkpt>
      <trkpt lat="46.05559" lon="6.75979">
        <ele>778</ele>
        <time>2019-06-11T14:36:44Z</time>
      </trkpt>
      <trkpt lat="46.05551" lon="6.75953">
        <ele>782</ele>
        <time>2019-06-11T14:36:48Z</time>
      </trkpt>
      <trkpt lat="46.05551" lon="6.75928">
        <ele>785</ele>
        <time>2019-06-11T14:36:51Z</time>
      </trkpt>
      <trkpt lat="46.05557" lon="6.75904">
        <ele>787</ele>
        <time>2019-06-11T14:36:54Z</time>
      </trkpt>
      <trkpt lat="46.056" lon="6.75809">
        <ele>792</ele>
        <time>2019-06-11T14:37:08Z</time>
      </trkpt>
      <trkpt lat="46.05637" lon="6.75736">
        <ele>791</ele>
        <time>2019-06-11T14:37:19Z</time>
      </trkpt>
      <trkpt lat="46.05651" lon="6.75713">
        <ele>786</ele>
        <time>2019-06-11T14:37:23Z</time>
      </trkpt>
      <trkpt lat="46.05671" lon="6.75692">
        <ele>783</ele>
        <time>2019-06-11T14:37:27Z</time>
      </trkpt>
      <trkpt lat="46.05738" lon="6.75632">
        <ele>783</ele>
        <time>2019-06-11T14:37:42Z</time>
      </trkpt>
      <trkpt lat="46.05813" lon="6.75573">
        <ele>784</ele>
        <time>2019-06-11T14:37:57Z</time>
      </trkpt>
      <trkpt lat="46.05818" lon="6.75567">
        <ele>784</ele>
        <time>2019-06-11T14:37:58Z</time>
      </trkpt>
      <trkpt lat="46.05832" lon="6.75546">
        <ele>782</ele>
        <time>2019-06-11T14:38:01Z</time>
      </trkpt>
      <trkpt lat="46.05878" lon="6.75426">
        <ele>772</ele>
        <time>2019-06-11T14:38:18Z</time>
      </trkpt>
      <trkpt lat="46.05886" lon="6.75372">
        <ele>768</ele>
        <time>2019-06-11T14:38:25Z</time>
      </trkpt>
      <trkpt lat="46.05887" lon="6.75336">
        <ele>763</ele>
        <time>2019-06-11T14:38:30Z</time>
      </trkpt>
      <trkpt lat="46.05884" lon="6.75313">
        <ele>763</ele>
        <time>2019-06-11T14:38:33Z</time>
      </trkpt>
      <trkpt lat="46.05861" lon="6.7518">
        <ele>762</ele>
        <time>2019-06-11T14:38:49Z</time>
      </trkpt>
      <trkpt lat="46.05851" lon="6.75144">
        <ele>761</ele>
        <time>2019-06-11T14:38:54Z</time>
      </trkpt>
      <trkpt lat="46.05845" lon="6.75131">
        <ele>760</ele>
        <time>2019-06-11T14:38:56Z</time>
      </trkpt>
      <trkpt lat="46.05834" lon="6.75116">
        <ele>757</ele>
        <time>2019-06-11T14:38:59Z</time>
      </trkpt>
      <trkpt lat="46.05798" lon="6.75087">
        <ele>753</ele>
        <time>2019-06-11T14:39:06Z</time>
      </trkpt>
      <trkpt lat="46.05783" lon="6.75071">
        <ele>752</ele>
        <time>2019-06-11T14:39:10Z</time>
      </trkpt>
      <trkpt lat="46.05764" lon="6.75038">
        <ele>750</ele>
        <time>2019-06-11T14:39:15Z</time>
      </trkpt>
      <trkpt lat="46.05749" lon="6.75003">
        <ele>749</ele>
        <time>2019-06-11T14:39:20Z</time>
      </trkpt>
      <trkpt lat="46.05744" lon="6.74981">
        <ele>748</ele>
        <time>2019-06-11T14:39:23Z</time>
      </trkpt>
      <trkpt lat="46.0574" lon="6.74914">
        <ele>749</ele>
        <time>2019-06-11T14:39:31Z</time>
      </trkpt>
      <trkpt lat="46.05741" lon="6.749">
        <ele>748</ele>
        <time>2019-06-11T14:39:33Z</time>
      </trkpt>
      <trkpt lat="46.05744" lon="6.74888">
        <ele>747</ele>
        <time>2019-06-11T14:39:34Z</time>
      </trkpt>
      <trkpt lat="46.05757" lon="6.74866">
        <ele>746</ele>
        <time>2019-06-11T14:39:38Z</time>
      </trkpt>
      <trkpt lat="46.05802" lon="6.74806">
        <ele>753</ele>
        <time>2019-06-11T14:39:49Z</time>
      </trkpt>
      <trkpt lat="46.05811" lon="6.74792">
        <ele>753</ele>
        <time>2019-06-11T14:39:51Z</time>
      </trkpt>
      <trkpt lat="46.05847" lon="6.74722">
        <ele>746</ele>
        <time>2019-06-11T14:40:02Z</time>
      </trkpt>
      <trkpt lat="46.05928" lon="6.7458">
        <ele>729</ele>
        <time>2019-06-11T14:40:25Z</time>
      </trkpt>
      <trkpt lat="46.05969" lon="6.74504">
        <ele>728</ele>
        <time>2019-06-11T14:40:37Z</time>
      </trkpt>
      <trkpt lat="46.05987" lon="6.74481">
        <ele>728</ele>
        <time>2019-06-11T14:40:41Z</time>
      </trkpt>
      <trkpt lat="46.05997" lon="6.74471">
        <ele>728</ele>
        <time>2019-06-11T14:40:43Z</time>
      </trkpt>
      <trkpt lat="46.06023" lon="6.74459">
        <ele>727</ele>
        <time>2019-06-11T14:40:48Z</time>
      </trkpt>
      <trkpt lat="46.06042" lon="6.74454">
        <ele>727</ele>
        <time>2019-06-11T14:40:51Z</time>
      </trkpt>
      <trkpt lat="46.06125" lon="6.74448">
        <ele>725</ele>
        <time>2019-06-11T14:41:06Z</time>
      </trkpt>
      <trkpt lat="46.06248" lon="6.74442">
        <ele>725</ele>
        <time>2019-06-11T14:41:28Z</time>
      </trkpt>
      <trkpt lat="46.06327" lon="6.74434">
        <ele>725</ele>
        <time>2019-06-11T14:41:42Z</time>
      </trkpt>
      <trkpt lat="46.06358" lon="6.74427">
        <ele>724</ele>
        <time>2019-06-11T14:41:48Z</time>
      </trkpt>
      <trkpt lat="46.06393" lon="6.74415">
        <ele>723</ele>
        <time>2019-06-11T14:41:54Z</time>
      </trkpt>
      <trkpt lat="46.06428" lon="6.74399">
        <ele>722</ele>
        <time>2019-06-11T14:42:01Z</time>
      </trkpt>
      <trkpt lat="46.06461" lon="6.7438">
        <ele>720</ele>
        <time>2019-06-11T14:42:07Z</time>
      </trkpt>
      <trkpt lat="46.06485" lon="6.74364">
        <ele>720</ele>
        <time>2019-06-11T14:42:12Z</time>
      </trkpt>
      <trkpt lat="46.06731" lon="6.74186">
        <ele>716</ele>
        <time>2019-06-11T14:43:01Z</time>
      </trkpt>
      <trkpt lat="46.06841" lon="6.74102">
        <ele>714</ele>
        <time>2019-06-11T14:43:23Z</time>
      </trkpt>
      <trkpt lat="46.07491" lon="6.73624">
        <ele>708</ele>
        <time>2019-06-11T14:45:33Z</time>
      </trkpt>
      <trkpt lat="46.07541" lon="6.73591">
        <ele>708</ele>
        <time>2019-06-11T14:45:42Z</time>
      </trkpt>
      <trkpt lat="46.07702" lon="6.73497">
        <ele>705</ele>
        <time>2019-06-11T14:46:13Z</time>
      </trkpt>
      <trkpt lat="46.07739" lon="6.73469">
        <ele>705</ele>
        <time>2019-06-11T14:46:21Z</time>
      </trkpt>
      <trkpt lat="46.0778" lon="6.73429">
        <ele>706</ele>
        <time>2019-06-11T14:46:30Z</time>
      </trkpt>
      <trkpt lat="46.07784" lon="6.73404">
        <ele>707</ele>
        <time>2019-06-11T14:46:33Z</time>
      </trkpt>
      <trkpt lat="46.07803" lon="6.73337">
        <ele>709</ele>
        <time>2019-06-11T14:46:42Z</time>
      </trkpt>
      <trkpt lat="46.07807" lon="6.73318">
        <ele>710</ele>
        <time>2019-06-11T14:46:44Z</time>
      </trkpt>
      <trkpt lat="46.07815" lon="6.73266">
        <ele>710</ele>
        <time>2019-06-11T14:46:51Z</time>
      </trkpt>
      <trkpt lat="46.07802" lon="6.73257">
        <ele>710</ele>
        <time>2019-06-11T14:46:53Z</time>
      </trkpt>
      <trkpt lat="46.07794" lon="6.73244">
        <ele>710</ele>
        <time>2019-06-11T14:46:55Z</time>
      </trkpt>
      <trkpt lat="46.07789" lon="6.73228">
        <ele>709</ele>
        <time>2019-06-11T14:46:58Z</time>
      </trkpt>
      <trkpt lat="46.07788" lon="6.73214">
        <ele>709</ele>
        <time>2019-06-11T14:46:59Z</time>
      </trkpt>
      <trkpt lat="46.07787" lon="6.73187">
        <ele>709</ele>
        <time>2019-06-11T14:47:03Z</time>
      </trkpt>
      <trkpt lat="46.07793" lon="6.73186">
        <ele>709</ele>
        <time>2019-06-11T14:47:04Z</time>
      </trkpt>
      <trkpt lat="46.078" lon="6.73182">
        <ele>709</ele>
        <time>2019-06-11T14:47:05Z</time>
      </trkpt>
      <trkpt lat="46.07806" lon="6.73173">
        <ele>709</ele>
        <time>2019-06-11T14:47:07Z</time>
      </trkpt>
      <trkpt lat="46.07908" lon="6.72985">
        <ele>714</ele>
        <time>2019-06-11T14:47:36Z</time>
      </trkpt>
      <trkpt lat="46.0791" lon="6.72987">
        <ele>714</ele>
        <time>2019-06-11T14:47:36Z</time>
      </trkpt>
      <trkpt lat="46.07908" lon="6.72985">
        <ele>714</ele>
        <time>2019-06-11T14:47:37Z</time>
      </trkpt>
      <trkpt lat="46.0792" lon="6.72963">
        <ele>714</ele>
        <time>2019-06-11T14:47:40Z</time>
      </trkpt>
      <trkpt lat="46.0802" lon="6.72787">
        <ele>708</ele>
        <time>2019-06-11T14:48:08Z</time>
      </trkpt>
      <trkpt lat="46.08035" lon="6.72754">
        <ele>708</ele>
        <time>2019-06-11T14:48:13Z</time>
      </trkpt>
      <trkpt lat="46.08065" lon="6.72725">
        <ele>706</ele>
        <time>2019-06-11T14:48:20Z</time>
      </trkpt>
      <trkpt lat="46.08068" lon="6.72721">
        <ele>706</ele>
        <time>2019-06-11T14:48:20Z</time>
      </trkpt>
      <trkpt lat="46.0807" lon="6.72712">
        <ele>706</ele>
        <time>2019-06-11T14:48:22Z</time>
      </trkpt>
      <trkpt lat="46.08069" lon="6.72705">
        <ele>706</ele>
        <time>2019-06-11T14:48:23Z</time>
      </trkpt>
      <trkpt lat="46.08065" lon="6.72698">
        <ele>705</ele>
        <time>2019-06-11T14:48:24Z</time>
      </trkpt>
      <trkpt lat="46.08062" lon="6.72696">
        <ele>705</ele>
        <time>2019-06-11T14:48:24Z</time>
      </trkpt>
      <trkpt lat="46.08053" lon="6.72697">
        <ele>705</ele>
        <time>2019-06-11T14:48:26Z</time>
      </trkpt>
      <trkpt lat="46.08046" lon="6.72683">
        <ele>705</ele>
        <time>2019-06-11T14:48:28Z</time>
      </trkpt>
      <trkpt lat="46.08031" lon="6.72661">
        <ele>704</ele>
        <time>2019-06-11T14:48:32Z</time>
      </trkpt>
      <trkpt lat="46.08016" lon="6.72647">
        <ele>704</ele>
        <time>2019-06-11T14:48:35Z</time>
      </trkpt>
      <trkpt lat="46.07907" lon="6.72566">
        <ele>703</ele>
        <time>2019-06-11T14:48:57Z</time>
      </trkpt>
      <trkpt lat="46.0788" lon="6.72552">
        <ele>703</ele>
        <time>2019-06-11T14:49:02Z</time>
      </trkpt>
      <trkpt lat="46.07863" lon="6.72539">
        <ele>703</ele>
        <time>2019-06-11T14:49:05Z</time>
      </trkpt>
      <trkpt lat="46.07835" lon="6.72612">
        <ele>705</ele>
        <time>2019-06-11T14:49:16Z</time>
      </trkpt>
    </trkseg>
  </trk>
</gpx>